<?xml version="1.0" encoding="UTF-8" standalone="no" ?>
<gpx xmlns="http://www.topografix.com/GPX/1/1" xmlns:xsi="http://www.w3.org/2001/XMLSchema-instance" xsi:schemaLocation="http://www.topografix.com/GPX/1/1 http://www.topografix.com/GPX/1/1/gpx.xsd" version="1.1" creator="VisuGPX - https://www.visugpx.com">
  <metadata>
    <name>tour denecourt</name>
  </metadata>
  <trk>
    <name><![CDATA[Tracé actuel: 23 MAI 2021 09:03]]></name>
    <trkseg>
      <trkpt lat="48.81204" lon="2.99011">
        <ele>64.6</ele>
        <time>2021-05-23T07:03:29Z</time>
      </trkpt>
      <trkpt lat="48.81235" lon="2.98907">
        <ele>64</ele>
        <time>2021-05-23T07:03:45Z</time>
      </trkpt>
      <trkpt lat="48.81268" lon="2.98797">
        <ele>65.5</ele>
        <time>2021-05-23T07:04:01Z</time>
      </trkpt>
      <trkpt lat="48.81282" lon="2.98751">
        <ele>66</ele>
        <time>2021-05-23T07:04:08Z</time>
      </trkpt>
      <trkpt lat="48.81283" lon="2.98745">
        <ele>66.3</ele>
        <time>2021-05-23T07:04:09Z</time>
      </trkpt>
      <trkpt lat="48.81282" lon="2.98739">
        <ele>66.6</ele>
        <time>2021-05-23T07:04:10Z</time>
      </trkpt>
      <trkpt lat="48.81281" lon="2.98734">
        <ele>67</ele>
        <time>2021-05-23T07:04:11Z</time>
      </trkpt>
      <trkpt lat="48.81278" lon="2.9873">
        <ele>67.4</ele>
        <time>2021-05-23T07:04:12Z</time>
      </trkpt>
      <trkpt lat="48.81275" lon="2.98727">
        <ele>67.8</ele>
        <time>2021-05-23T07:04:13Z</time>
      </trkpt>
      <trkpt lat="48.81244" lon="2.98697">
        <ele>72.4</ele>
        <time>2021-05-23T07:04:24Z</time>
      </trkpt>
      <trkpt lat="48.81221" lon="2.98668">
        <ele>76.8</ele>
        <time>2021-05-23T07:04:35Z</time>
      </trkpt>
      <trkpt lat="48.81221" lon="2.98663">
        <ele>76.8</ele>
        <time>2021-05-23T07:04:36Z</time>
      </trkpt>
      <trkpt lat="48.81222" lon="2.98659">
        <ele>76.8</ele>
        <time>2021-05-23T07:04:37Z</time>
      </trkpt>
      <trkpt lat="48.81241" lon="2.98584">
        <ele>75.7</ele>
        <time>2021-05-23T07:04:52Z</time>
      </trkpt>
      <trkpt lat="48.81261" lon="2.98523">
        <ele>73.5</ele>
        <time>2021-05-23T07:05:04Z</time>
      </trkpt>
      <trkpt lat="48.81282" lon="2.98468">
        <ele>72.5</ele>
        <time>2021-05-23T07:05:14Z</time>
      </trkpt>
      <trkpt lat="48.81284" lon="2.98461">
        <ele>72.5</ele>
        <time>2021-05-23T07:05:15Z</time>
      </trkpt>
      <trkpt lat="48.81286" lon="2.98455">
        <ele>72.5</ele>
        <time>2021-05-23T07:05:16Z</time>
      </trkpt>
      <trkpt lat="48.81292" lon="2.98436">
        <ele>72.5</ele>
        <time>2021-05-23T07:05:19Z</time>
      </trkpt>
      <trkpt lat="48.81303" lon="2.98354">
        <ele>74.1</ele>
        <time>2021-05-23T07:05:31Z</time>
      </trkpt>
      <trkpt lat="48.81307" lon="2.98328">
        <ele>74.5</ele>
        <time>2021-05-23T07:05:35Z</time>
      </trkpt>
      <trkpt lat="48.81307" lon="2.98321">
        <ele>74.4</ele>
        <time>2021-05-23T07:05:36Z</time>
      </trkpt>
      <trkpt lat="48.81307" lon="2.98315">
        <ele>74.2</ele>
        <time>2021-05-23T07:05:37Z</time>
      </trkpt>
      <trkpt lat="48.81307" lon="2.98308">
        <ele>74.1</ele>
        <time>2021-05-23T07:05:38Z</time>
      </trkpt>
      <trkpt lat="48.81307" lon="2.98301">
        <ele>74</ele>
        <time>2021-05-23T07:05:39Z</time>
      </trkpt>
      <trkpt lat="48.81306" lon="2.98295">
        <ele>73.9</ele>
        <time>2021-05-23T07:05:40Z</time>
      </trkpt>
      <trkpt lat="48.81309" lon="2.98234">
        <ele>72.1</ele>
        <time>2021-05-23T07:05:49Z</time>
      </trkpt>
      <trkpt lat="48.81303" lon="2.98202">
        <ele>70.8</ele>
        <time>2021-05-23T07:05:54Z</time>
      </trkpt>
      <trkpt lat="48.81277" lon="2.98102">
        <ele>68</ele>
        <time>2021-05-23T07:06:10Z</time>
      </trkpt>
      <trkpt lat="48.81254" lon="2.97999">
        <ele>65.8</ele>
        <time>2021-05-23T07:06:24Z</time>
      </trkpt>
      <trkpt lat="48.81221" lon="2.97875">
        <ele>66.4</ele>
        <time>2021-05-23T07:06:40Z</time>
      </trkpt>
      <trkpt lat="48.81191" lon="2.97775">
        <ele>64.5</ele>
        <time>2021-05-23T07:06:52Z</time>
      </trkpt>
      <trkpt lat="48.81184" lon="2.97757">
        <ele>63.9</ele>
        <time>2021-05-23T07:06:54Z</time>
      </trkpt>
      <trkpt lat="48.81183" lon="2.97747">
        <ele>63.6</ele>
        <time>2021-05-23T07:06:55Z</time>
      </trkpt>
      <trkpt lat="48.81182" lon="2.97737">
        <ele>63.4</ele>
        <time>2021-05-23T07:06:56Z</time>
      </trkpt>
      <trkpt lat="48.81181" lon="2.97717">
        <ele>63.2</ele>
        <time>2021-05-23T07:06:58Z</time>
      </trkpt>
      <trkpt lat="48.8118" lon="2.97707">
        <ele>63.1</ele>
        <time>2021-05-23T07:06:59Z</time>
      </trkpt>
      <trkpt lat="48.81176" lon="2.97689">
        <ele>63</ele>
        <time>2021-05-23T07:07:01Z</time>
      </trkpt>
      <trkpt lat="48.81173" lon="2.9768">
        <ele>62.9</ele>
        <time>2021-05-23T07:07:02Z</time>
      </trkpt>
      <trkpt lat="48.8117" lon="2.97672">
        <ele>62.9</ele>
        <time>2021-05-23T07:07:03Z</time>
      </trkpt>
      <trkpt lat="48.81166" lon="2.97664">
        <ele>62.9</ele>
        <time>2021-05-23T07:07:04Z</time>
      </trkpt>
      <trkpt lat="48.81163" lon="2.97656">
        <ele>62.6</ele>
        <time>2021-05-23T07:07:05Z</time>
      </trkpt>
      <trkpt lat="48.81159" lon="2.97649">
        <ele>62.4</ele>
        <time>2021-05-23T07:07:06Z</time>
      </trkpt>
      <trkpt lat="48.81154" lon="2.97643">
        <ele>62.1</ele>
        <time>2021-05-23T07:07:07Z</time>
      </trkpt>
      <trkpt lat="48.81136" lon="2.97619">
        <ele>61.3</ele>
        <time>2021-05-23T07:07:11Z</time>
      </trkpt>
      <trkpt lat="48.81063" lon="2.97546">
        <ele>60.1</ele>
        <time>2021-05-23T07:07:26Z</time>
      </trkpt>
      <trkpt lat="48.81049" lon="2.97532">
        <ele>60.1</ele>
        <time>2021-05-23T07:07:29Z</time>
      </trkpt>
      <trkpt lat="48.8104" lon="2.97522">
        <ele>60</ele>
        <time>2021-05-23T07:07:31Z</time>
      </trkpt>
      <trkpt lat="48.80987" lon="2.97429">
        <ele>61</ele>
        <time>2021-05-23T07:07:45Z</time>
      </trkpt>
      <trkpt lat="48.80956" lon="2.97381">
        <ele>62.6</ele>
        <time>2021-05-23T07:07:53Z</time>
      </trkpt>
      <trkpt lat="48.80919" lon="2.97318">
        <ele>64.4</ele>
        <time>2021-05-23T07:08:03Z</time>
      </trkpt>
      <trkpt lat="48.80903" lon="2.97288">
        <ele>64.7</ele>
        <time>2021-05-23T07:08:08Z</time>
      </trkpt>
      <trkpt lat="48.80895" lon="2.97278">
        <ele>64.7</ele>
        <time>2021-05-23T07:08:10Z</time>
      </trkpt>
      <trkpt lat="48.8089" lon="2.97273">
        <ele>64.7</ele>
        <time>2021-05-23T07:08:11Z</time>
      </trkpt>
      <trkpt lat="48.80885" lon="2.9727">
        <ele>64.6</ele>
        <time>2021-05-23T07:08:12Z</time>
      </trkpt>
      <trkpt lat="48.8088" lon="2.97267">
        <ele>64.5</ele>
        <time>2021-05-23T07:08:13Z</time>
      </trkpt>
      <trkpt lat="48.80876" lon="2.97265">
        <ele>64.3</ele>
        <time>2021-05-23T07:08:14Z</time>
      </trkpt>
      <trkpt lat="48.80835" lon="2.97241">
        <ele>63.1</ele>
        <time>2021-05-23T07:08:22Z</time>
      </trkpt>
      <trkpt lat="48.8083" lon="2.97238">
        <ele>63.2</ele>
        <time>2021-05-23T07:08:23Z</time>
      </trkpt>
      <trkpt lat="48.80825" lon="2.97234">
        <ele>63.5</ele>
        <time>2021-05-23T07:08:24Z</time>
      </trkpt>
      <trkpt lat="48.8081" lon="2.97221">
        <ele>64.4</ele>
        <time>2021-05-23T07:08:27Z</time>
      </trkpt>
      <trkpt lat="48.80793" lon="2.97203">
        <ele>65.1</ele>
        <time>2021-05-23T07:08:31Z</time>
      </trkpt>
      <trkpt lat="48.80789" lon="2.97199">
        <ele>65.2</ele>
        <time>2021-05-23T07:08:32Z</time>
      </trkpt>
      <trkpt lat="48.80775" lon="2.97187">
        <ele>65.6</ele>
        <time>2021-05-23T07:08:35Z</time>
      </trkpt>
      <trkpt lat="48.80771" lon="2.97182">
        <ele>65.7</ele>
        <time>2021-05-23T07:08:36Z</time>
      </trkpt>
      <trkpt lat="48.80767" lon="2.97178">
        <ele>65.7</ele>
        <time>2021-05-23T07:08:37Z</time>
      </trkpt>
      <trkpt lat="48.8076" lon="2.97168">
        <ele>65.7</ele>
        <time>2021-05-23T07:08:39Z</time>
      </trkpt>
      <trkpt lat="48.80756" lon="2.97162">
        <ele>65.6</ele>
        <time>2021-05-23T07:08:40Z</time>
      </trkpt>
      <trkpt lat="48.8074" lon="2.97128">
        <ele>66</ele>
        <time>2021-05-23T07:08:45Z</time>
      </trkpt>
      <trkpt lat="48.80737" lon="2.97121">
        <ele>66.1</ele>
        <time>2021-05-23T07:08:46Z</time>
      </trkpt>
      <trkpt lat="48.80734" lon="2.97114">
        <ele>66.2</ele>
        <time>2021-05-23T07:08:47Z</time>
      </trkpt>
      <trkpt lat="48.80732" lon="2.97106">
        <ele>66.1</ele>
        <time>2021-05-23T07:08:48Z</time>
      </trkpt>
      <trkpt lat="48.80729" lon="2.97098">
        <ele>66.2</ele>
        <time>2021-05-23T07:08:49Z</time>
      </trkpt>
      <trkpt lat="48.80725" lon="2.97091">
        <ele>66.3</ele>
        <time>2021-05-23T07:08:50Z</time>
      </trkpt>
      <trkpt lat="48.80714" lon="2.97061">
        <ele>66.3</ele>
        <time>2021-05-23T07:08:54Z</time>
      </trkpt>
      <trkpt lat="48.80711" lon="2.97054">
        <ele>66.3</ele>
        <time>2021-05-23T07:08:55Z</time>
      </trkpt>
      <trkpt lat="48.80693" lon="2.97008">
        <ele>66</ele>
        <time>2021-05-23T07:09:01Z</time>
      </trkpt>
      <trkpt lat="48.80688" lon="2.96992">
        <ele>65.8</ele>
        <time>2021-05-23T07:09:03Z</time>
      </trkpt>
      <trkpt lat="48.80685" lon="2.96984">
        <ele>65.9</ele>
        <time>2021-05-23T07:09:04Z</time>
      </trkpt>
      <trkpt lat="48.80681" lon="2.96968">
        <ele>65.8</ele>
        <time>2021-05-23T07:09:06Z</time>
      </trkpt>
      <trkpt lat="48.8068" lon="2.9696">
        <ele>65.7</ele>
        <time>2021-05-23T07:09:07Z</time>
      </trkpt>
      <trkpt lat="48.80676" lon="2.96935">
        <ele>65.6</ele>
        <time>2021-05-23T07:09:10Z</time>
      </trkpt>
      <trkpt lat="48.80673" lon="2.96928">
        <ele>65.7</ele>
        <time>2021-05-23T07:09:11Z</time>
      </trkpt>
      <trkpt lat="48.8067" lon="2.9692">
        <ele>65.8</ele>
        <time>2021-05-23T07:09:12Z</time>
      </trkpt>
      <trkpt lat="48.80642" lon="2.96838">
        <ele>66.1</ele>
        <time>2021-05-23T07:09:23Z</time>
      </trkpt>
      <trkpt lat="48.80639" lon="2.96831">
        <ele>66.2</ele>
        <time>2021-05-23T07:09:24Z</time>
      </trkpt>
      <trkpt lat="48.80637" lon="2.96824">
        <ele>66.5</ele>
        <time>2021-05-23T07:09:25Z</time>
      </trkpt>
      <trkpt lat="48.80631" lon="2.96811">
        <ele>66.9</ele>
        <time>2021-05-23T07:09:27Z</time>
      </trkpt>
      <trkpt lat="48.80629" lon="2.96804">
        <ele>67.1</ele>
        <time>2021-05-23T07:09:28Z</time>
      </trkpt>
      <trkpt lat="48.80627" lon="2.96798">
        <ele>67.2</ele>
        <time>2021-05-23T07:09:29Z</time>
      </trkpt>
      <trkpt lat="48.80618" lon="2.96757">
        <ele>67.4</ele>
        <time>2021-05-23T07:09:37Z</time>
      </trkpt>
      <trkpt lat="48.80624" lon="2.96693">
        <ele>67.3</ele>
        <time>2021-05-23T07:09:45Z</time>
      </trkpt>
      <trkpt lat="48.80625" lon="2.96685">
        <ele>67.2</ele>
        <time>2021-05-23T07:09:46Z</time>
      </trkpt>
      <trkpt lat="48.80627" lon="2.96676">
        <ele>67.1</ele>
        <time>2021-05-23T07:09:47Z</time>
      </trkpt>
      <trkpt lat="48.80629" lon="2.9667">
        <ele>67</ele>
        <time>2021-05-23T07:09:48Z</time>
      </trkpt>
      <trkpt lat="48.80631" lon="2.96664">
        <ele>66.9</ele>
        <time>2021-05-23T07:09:49Z</time>
      </trkpt>
      <trkpt lat="48.80632" lon="2.96661">
        <ele>66.9</ele>
        <time>2021-05-23T07:09:50Z</time>
      </trkpt>
      <trkpt lat="48.80633" lon="2.96624">
        <ele>68.3</ele>
        <time>2021-05-23T07:10:00Z</time>
      </trkpt>
      <trkpt lat="48.8063" lon="2.96556">
        <ele>71.4</ele>
        <time>2021-05-23T07:10:13Z</time>
      </trkpt>
      <trkpt lat="48.80631" lon="2.96549">
        <ele>71.5</ele>
        <time>2021-05-23T07:10:14Z</time>
      </trkpt>
      <trkpt lat="48.80631" lon="2.96544">
        <ele>71.6</ele>
        <time>2021-05-23T07:10:15Z</time>
      </trkpt>
      <trkpt lat="48.80632" lon="2.96538">
        <ele>71.8</ele>
        <time>2021-05-23T07:10:16Z</time>
      </trkpt>
      <trkpt lat="48.80642" lon="2.96446">
        <ele>76</ele>
        <time>2021-05-23T07:10:31Z</time>
      </trkpt>
      <trkpt lat="48.80646" lon="2.96434">
        <ele>76.3</ele>
        <time>2021-05-23T07:10:33Z</time>
      </trkpt>
      <trkpt lat="48.80651" lon="2.96423">
        <ele>76.3</ele>
        <time>2021-05-23T07:10:35Z</time>
      </trkpt>
      <trkpt lat="48.80654" lon="2.96418">
        <ele>76.4</ele>
        <time>2021-05-23T07:10:36Z</time>
      </trkpt>
      <trkpt lat="48.80657" lon="2.96412">
        <ele>76.5</ele>
        <time>2021-05-23T07:10:37Z</time>
      </trkpt>
      <trkpt lat="48.80664" lon="2.96401">
        <ele>76.5</ele>
        <time>2021-05-23T07:10:40Z</time>
      </trkpt>
      <trkpt lat="48.80686" lon="2.96373">
        <ele>76.7</ele>
        <time>2021-05-23T07:10:45Z</time>
      </trkpt>
      <trkpt lat="48.8069" lon="2.96367">
        <ele>76.6</ele>
        <time>2021-05-23T07:10:46Z</time>
      </trkpt>
      <trkpt lat="48.80698" lon="2.96357">
        <ele>76.4</ele>
        <time>2021-05-23T07:10:48Z</time>
      </trkpt>
      <trkpt lat="48.80727" lon="2.9633">
        <ele>73.9</ele>
        <time>2021-05-23T07:10:55Z</time>
      </trkpt>
      <trkpt lat="48.80731" lon="2.96328">
        <ele>73.6</ele>
        <time>2021-05-23T07:10:56Z</time>
      </trkpt>
      <trkpt lat="48.80736" lon="2.96326">
        <ele>73.1</ele>
        <time>2021-05-23T07:10:57Z</time>
      </trkpt>
      <trkpt lat="48.80751" lon="2.96323">
        <ele>70.9</ele>
        <time>2021-05-23T07:11:00Z</time>
      </trkpt>
      <trkpt lat="48.80755" lon="2.96323">
        <ele>70.6</ele>
        <time>2021-05-23T07:11:01Z</time>
      </trkpt>
      <trkpt lat="48.80808" lon="2.96297">
        <ele>72.6</ele>
        <time>2021-05-23T07:11:13Z</time>
      </trkpt>
      <trkpt lat="48.80823" lon="2.9628">
        <ele>74.7</ele>
        <time>2021-05-23T07:11:16Z</time>
      </trkpt>
      <trkpt lat="48.80864" lon="2.96224">
        <ele>79.6</ele>
        <time>2021-05-23T07:11:28Z</time>
      </trkpt>
      <trkpt lat="48.809" lon="2.96192">
        <ele>80.4</ele>
        <time>2021-05-23T07:11:39Z</time>
      </trkpt>
      <trkpt lat="48.80902" lon="2.9619">
        <ele>80.5</ele>
        <time>2021-05-23T07:11:40Z</time>
      </trkpt>
      <trkpt lat="48.8094" lon="2.96163">
        <ele>82.1</ele>
        <time>2021-05-23T07:11:53Z</time>
      </trkpt>
      <trkpt lat="48.80974" lon="2.9616">
        <ele>82.2</ele>
        <time>2021-05-23T07:12:04Z</time>
      </trkpt>
      <trkpt lat="48.8102" lon="2.96158">
        <ele>82.4</ele>
        <time>2021-05-23T07:12:17Z</time>
      </trkpt>
      <trkpt lat="48.81044" lon="2.96151">
        <ele>83.7</ele>
        <time>2021-05-23T07:12:27Z</time>
      </trkpt>
      <trkpt lat="48.81074" lon="2.96132">
        <ele>86.8</ele>
        <time>2021-05-23T07:12:37Z</time>
      </trkpt>
      <trkpt lat="48.81127" lon="2.96113">
        <ele>88.6</ele>
        <time>2021-05-23T07:12:51Z</time>
      </trkpt>
      <trkpt lat="48.81161" lon="2.961">
        <ele>89.6</ele>
        <time>2021-05-23T07:13:02Z</time>
      </trkpt>
      <trkpt lat="48.81204" lon="2.96089">
        <ele>87.7</ele>
        <time>2021-05-23T07:13:14Z</time>
      </trkpt>
      <trkpt lat="48.8126" lon="2.96077">
        <ele>84.5</ele>
        <time>2021-05-23T07:13:29Z</time>
      </trkpt>
      <trkpt lat="48.81311" lon="2.96075">
        <ele>83.8</ele>
        <time>2021-05-23T07:13:41Z</time>
      </trkpt>
      <trkpt lat="48.8139" lon="2.96067">
        <ele>81.3</ele>
        <time>2021-05-23T07:13:59Z</time>
      </trkpt>
      <trkpt lat="48.81406" lon="2.96064">
        <ele>80.7</ele>
        <time>2021-05-23T07:14:02Z</time>
      </trkpt>
      <trkpt lat="48.81412" lon="2.96063">
        <ele>80.5</ele>
        <time>2021-05-23T07:14:03Z</time>
      </trkpt>
      <trkpt lat="48.81418" lon="2.96062">
        <ele>80.2</ele>
        <time>2021-05-23T07:14:04Z</time>
      </trkpt>
      <trkpt lat="48.81424" lon="2.96061">
        <ele>79.9</ele>
        <time>2021-05-23T07:14:05Z</time>
      </trkpt>
      <trkpt lat="48.8143" lon="2.96061">
        <ele>79.5</ele>
        <time>2021-05-23T07:14:06Z</time>
      </trkpt>
      <trkpt lat="48.81437" lon="2.96062">
        <ele>79.1</ele>
        <time>2021-05-23T07:14:07Z</time>
      </trkpt>
      <trkpt lat="48.81443" lon="2.96064">
        <ele>78.8</ele>
        <time>2021-05-23T07:14:08Z</time>
      </trkpt>
      <trkpt lat="48.8145" lon="2.96068">
        <ele>78.5</ele>
        <time>2021-05-23T07:14:09Z</time>
      </trkpt>
      <trkpt lat="48.81456" lon="2.96071">
        <ele>78.2</ele>
        <time>2021-05-23T07:14:10Z</time>
      </trkpt>
      <trkpt lat="48.81463" lon="2.96074">
        <ele>78</ele>
        <time>2021-05-23T07:14:11Z</time>
      </trkpt>
      <trkpt lat="48.8147" lon="2.96077">
        <ele>77.8</ele>
        <time>2021-05-23T07:14:12Z</time>
      </trkpt>
      <trkpt lat="48.81562" lon="2.96089">
        <ele>75.9</ele>
        <time>2021-05-23T07:14:25Z</time>
      </trkpt>
      <trkpt lat="48.81653" lon="2.96077">
        <ele>75.8</ele>
        <time>2021-05-23T07:14:40Z</time>
      </trkpt>
      <trkpt lat="48.81728" lon="2.96064">
        <ele>74.4</ele>
        <time>2021-05-23T07:14:53Z</time>
      </trkpt>
      <trkpt lat="48.81793" lon="2.96049">
        <ele>73.5</ele>
        <time>2021-05-23T07:15:04Z</time>
      </trkpt>
      <trkpt lat="48.81804" lon="2.96046">
        <ele>73.4</ele>
        <time>2021-05-23T07:15:06Z</time>
      </trkpt>
      <trkpt lat="48.81881" lon="2.96008">
        <ele>72.8</ele>
        <time>2021-05-23T07:15:21Z</time>
      </trkpt>
      <trkpt lat="48.81955" lon="2.95964">
        <ele>70.4</ele>
        <time>2021-05-23T07:15:36Z</time>
      </trkpt>
      <trkpt lat="48.82035" lon="2.95919">
        <ele>68.1</ele>
        <time>2021-05-23T07:15:50Z</time>
      </trkpt>
      <trkpt lat="48.82111" lon="2.95878">
        <ele>66.8</ele>
        <time>2021-05-23T07:16:04Z</time>
      </trkpt>
      <trkpt lat="48.82116" lon="2.95875">
        <ele>66.8</ele>
        <time>2021-05-23T07:16:05Z</time>
      </trkpt>
      <trkpt lat="48.82192" lon="2.9583">
        <ele>67.1</ele>
        <time>2021-05-23T07:16:19Z</time>
      </trkpt>
      <trkpt lat="48.82225" lon="2.95816">
        <ele>66.9</ele>
        <time>2021-05-23T07:16:25Z</time>
      </trkpt>
      <trkpt lat="48.82274" lon="2.95799">
        <ele>66.6</ele>
        <time>2021-05-23T07:16:34Z</time>
      </trkpt>
      <trkpt lat="48.82314" lon="2.95789">
        <ele>66</ele>
        <time>2021-05-23T07:16:41Z</time>
      </trkpt>
      <trkpt lat="48.8232" lon="2.95789">
        <ele>66</ele>
        <time>2021-05-23T07:16:42Z</time>
      </trkpt>
      <trkpt lat="48.82347" lon="2.95792">
        <ele>65.7</ele>
        <time>2021-05-23T07:16:47Z</time>
      </trkpt>
      <trkpt lat="48.82352" lon="2.95792">
        <ele>65.6</ele>
        <time>2021-05-23T07:16:48Z</time>
      </trkpt>
      <trkpt lat="48.82382" lon="2.95792">
        <ele>64.8</ele>
        <time>2021-05-23T07:16:53Z</time>
      </trkpt>
      <trkpt lat="48.82388" lon="2.95792">
        <ele>64.7</ele>
        <time>2021-05-23T07:16:54Z</time>
      </trkpt>
      <trkpt lat="48.82399" lon="2.95791">
        <ele>64.4</ele>
        <time>2021-05-23T07:16:56Z</time>
      </trkpt>
      <trkpt lat="48.82403" lon="2.95789">
        <ele>64.3</ele>
        <time>2021-05-23T07:16:57Z</time>
      </trkpt>
      <trkpt lat="48.82406" lon="2.95785">
        <ele>64.2</ele>
        <time>2021-05-23T07:16:58Z</time>
      </trkpt>
      <trkpt lat="48.82409" lon="2.9578">
        <ele>64.2</ele>
        <time>2021-05-23T07:16:59Z</time>
      </trkpt>
      <trkpt lat="48.82411" lon="2.95774">
        <ele>64.1</ele>
        <time>2021-05-23T07:17:00Z</time>
      </trkpt>
      <trkpt lat="48.82413" lon="2.95767">
        <ele>64.1</ele>
        <time>2021-05-23T07:17:01Z</time>
      </trkpt>
      <trkpt lat="48.82416" lon="2.95761">
        <ele>64</ele>
        <time>2021-05-23T07:17:02Z</time>
      </trkpt>
      <trkpt lat="48.8242" lon="2.95755">
        <ele>63.9</ele>
        <time>2021-05-23T07:17:03Z</time>
      </trkpt>
      <trkpt lat="48.82424" lon="2.9575">
        <ele>63.8</ele>
        <time>2021-05-23T07:17:04Z</time>
      </trkpt>
      <trkpt lat="48.82428" lon="2.95745">
        <ele>63.6</ele>
        <time>2021-05-23T07:17:05Z</time>
      </trkpt>
      <trkpt lat="48.82487" lon="2.95669">
        <ele>60.2</ele>
        <time>2021-05-23T07:17:18Z</time>
      </trkpt>
      <trkpt lat="48.82524" lon="2.95616">
        <ele>59.3</ele>
        <time>2021-05-23T07:17:25Z</time>
      </trkpt>
      <trkpt lat="48.82552" lon="2.95561">
        <ele>58.9</ele>
        <time>2021-05-23T07:17:33Z</time>
      </trkpt>
      <trkpt lat="48.82577" lon="2.95488">
        <ele>59.7</ele>
        <time>2021-05-23T07:17:44Z</time>
      </trkpt>
      <trkpt lat="48.82575" lon="2.95484">
        <ele>60</ele>
        <time>2021-05-23T07:17:45Z</time>
      </trkpt>
      <trkpt lat="48.8257" lon="2.95481">
        <ele>60.1</ele>
        <time>2021-05-23T07:17:46Z</time>
      </trkpt>
      <trkpt lat="48.82565" lon="2.95479">
        <ele>60.1</ele>
        <time>2021-05-23T07:17:47Z</time>
      </trkpt>
      <trkpt lat="48.8256" lon="2.95478">
        <ele>60.1</ele>
        <time>2021-05-23T07:17:48Z</time>
      </trkpt>
      <trkpt lat="48.82472" lon="2.95454">
        <ele>59.5</ele>
        <time>2021-05-23T07:18:04Z</time>
      </trkpt>
      <trkpt lat="48.82453" lon="2.95444">
        <ele>59.6</ele>
        <time>2021-05-23T07:18:08Z</time>
      </trkpt>
      <trkpt lat="48.8244" lon="2.9543">
        <ele>59.9</ele>
        <time>2021-05-23T07:18:11Z</time>
      </trkpt>
      <trkpt lat="48.82436" lon="2.95424">
        <ele>60</ele>
        <time>2021-05-23T07:18:12Z</time>
      </trkpt>
      <trkpt lat="48.824" lon="2.95347">
        <ele>68.2</ele>
        <time>2021-05-23T07:18:24Z</time>
      </trkpt>
      <trkpt lat="48.82397" lon="2.95342">
        <ele>68.8</ele>
        <time>2021-05-23T07:18:25Z</time>
      </trkpt>
      <trkpt lat="48.82393" lon="2.9534">
        <ele>69.2</ele>
        <time>2021-05-23T07:18:26Z</time>
      </trkpt>
      <trkpt lat="48.82389" lon="2.9534">
        <ele>69.3</ele>
        <time>2021-05-23T07:18:27Z</time>
      </trkpt>
      <trkpt lat="48.82384" lon="2.95342">
        <ele>69.3</ele>
        <time>2021-05-23T07:18:28Z</time>
      </trkpt>
      <trkpt lat="48.8238" lon="2.95345">
        <ele>69.1</ele>
        <time>2021-05-23T07:18:29Z</time>
      </trkpt>
      <trkpt lat="48.82376" lon="2.9535">
        <ele>68.8</ele>
        <time>2021-05-23T07:18:30Z</time>
      </trkpt>
      <trkpt lat="48.82372" lon="2.95355">
        <ele>68.4</ele>
        <time>2021-05-23T07:18:31Z</time>
      </trkpt>
      <trkpt lat="48.82368" lon="2.9536">
        <ele>68</ele>
        <time>2021-05-23T07:18:32Z</time>
      </trkpt>
      <trkpt lat="48.82363" lon="2.95364">
        <ele>67.8</ele>
        <time>2021-05-23T07:18:33Z</time>
      </trkpt>
      <trkpt lat="48.82358" lon="2.95367">
        <ele>67.8</ele>
        <time>2021-05-23T07:18:34Z</time>
      </trkpt>
      <trkpt lat="48.82352" lon="2.95369">
        <ele>67.8</ele>
        <time>2021-05-23T07:18:35Z</time>
      </trkpt>
      <trkpt lat="48.82346" lon="2.9537">
        <ele>68</ele>
        <time>2021-05-23T07:18:36Z</time>
      </trkpt>
      <trkpt lat="48.82309" lon="2.95376">
        <ele>66.8</ele>
        <time>2021-05-23T07:18:43Z</time>
      </trkpt>
      <trkpt lat="48.82299" lon="2.95375">
        <ele>66.3</ele>
        <time>2021-05-23T07:18:45Z</time>
      </trkpt>
      <trkpt lat="48.82294" lon="2.95373">
        <ele>66.2</ele>
        <time>2021-05-23T07:18:46Z</time>
      </trkpt>
      <trkpt lat="48.82231" lon="2.95333">
        <ele>66.5</ele>
        <time>2021-05-23T07:18:58Z</time>
      </trkpt>
      <trkpt lat="48.822" lon="2.95318">
        <ele>70.7</ele>
        <time>2021-05-23T07:19:05Z</time>
      </trkpt>
      <trkpt lat="48.82195" lon="2.95318">
        <ele>70.9</ele>
        <time>2021-05-23T07:19:06Z</time>
      </trkpt>
      <trkpt lat="48.8219" lon="2.95318">
        <ele>71</ele>
        <time>2021-05-23T07:19:07Z</time>
      </trkpt>
      <trkpt lat="48.82181" lon="2.9532">
        <ele>70.7</ele>
        <time>2021-05-23T07:19:09Z</time>
      </trkpt>
      <trkpt lat="48.82136" lon="2.95345">
        <ele>70.3</ele>
        <time>2021-05-23T07:19:22Z</time>
      </trkpt>
      <trkpt lat="48.82106" lon="2.95355">
        <ele>72.2</ele>
        <time>2021-05-23T07:19:33Z</time>
      </trkpt>
      <trkpt lat="48.82085" lon="2.95341">
        <ele>76.6</ele>
        <time>2021-05-23T07:19:45Z</time>
      </trkpt>
      <trkpt lat="48.82055" lon="2.95336">
        <ele>78.7</ele>
        <time>2021-05-23T07:19:58Z</time>
      </trkpt>
      <trkpt lat="48.8203" lon="2.95337">
        <ele>79.4</ele>
        <time>2021-05-23T07:20:09Z</time>
      </trkpt>
      <trkpt lat="48.82023" lon="2.95337">
        <ele>79.7</ele>
        <time>2021-05-23T07:20:14Z</time>
      </trkpt>
      <trkpt lat="48.82021" lon="2.95337">
        <ele>79.7</ele>
        <time>2021-05-23T07:20:15Z</time>
      </trkpt>
      <trkpt lat="48.8202" lon="2.95337">
        <ele>79.8</ele>
        <time>2021-05-23T07:20:16Z</time>
      </trkpt>
      <trkpt lat="48.82017" lon="2.95337">
        <ele>79.8</ele>
        <time>2021-05-23T07:20:17Z</time>
      </trkpt>
      <trkpt lat="48.82015" lon="2.95338">
        <ele>79.8</ele>
        <time>2021-05-23T07:20:18Z</time>
      </trkpt>
      <trkpt lat="48.8201" lon="2.95339">
        <ele>79.8</ele>
        <time>2021-05-23T07:20:21Z</time>
      </trkpt>
      <trkpt lat="48.82008" lon="2.95339">
        <ele>79.9</ele>
        <time>2021-05-23T07:20:22Z</time>
      </trkpt>
      <trkpt lat="48.82007" lon="2.9534">
        <ele>79.9</ele>
        <time>2021-05-23T07:20:23Z</time>
      </trkpt>
      <trkpt lat="48.81996" lon="2.95341">
        <ele>79.8</ele>
        <time>2021-05-23T07:20:30Z</time>
      </trkpt>
      <trkpt lat="48.81986" lon="2.95337">
        <ele>79.9</ele>
        <time>2021-05-23T07:20:36Z</time>
      </trkpt>
      <trkpt lat="48.81983" lon="2.95337">
        <ele>79.9</ele>
        <time>2021-05-23T07:20:38Z</time>
      </trkpt>
      <trkpt lat="48.8198" lon="2.95337">
        <ele>79.9</ele>
        <time>2021-05-23T07:20:39Z</time>
      </trkpt>
      <trkpt lat="48.81948" lon="2.95327">
        <ele>79.5</ele>
        <time>2021-05-23T07:20:53Z</time>
      </trkpt>
      <trkpt lat="48.81934" lon="2.95322">
        <ele>79.2</ele>
        <time>2021-05-23T07:21:01Z</time>
      </trkpt>
      <trkpt lat="48.81907" lon="2.95319">
        <ele>78.1</ele>
        <time>2021-05-23T07:21:13Z</time>
      </trkpt>
      <trkpt lat="48.81907" lon="2.95316">
        <ele>78.2</ele>
        <time>2021-05-23T07:21:14Z</time>
      </trkpt>
      <trkpt lat="48.81906" lon="2.95313">
        <ele>78.4</ele>
        <time>2021-05-23T07:21:15Z</time>
      </trkpt>
      <trkpt lat="48.81906" lon="2.9531">
        <ele>78.5</ele>
        <time>2021-05-23T07:21:16Z</time>
      </trkpt>
      <trkpt lat="48.81906" lon="2.95307">
        <ele>78.7</ele>
        <time>2021-05-23T07:21:17Z</time>
      </trkpt>
      <trkpt lat="48.81906" lon="2.95304">
        <ele>78.8</ele>
        <time>2021-05-23T07:21:18Z</time>
      </trkpt>
      <trkpt lat="48.81904" lon="2.9525">
        <ele>81.2</ele>
        <time>2021-05-23T07:21:33Z</time>
      </trkpt>
      <trkpt lat="48.81898" lon="2.95182">
        <ele>82.5</ele>
        <time>2021-05-23T07:21:48Z</time>
      </trkpt>
      <trkpt lat="48.81876" lon="2.95104">
        <ele>83.5</ele>
        <time>2021-05-23T07:22:03Z</time>
      </trkpt>
      <trkpt lat="48.81852" lon="2.95049">
        <ele>82.8</ele>
        <time>2021-05-23T07:22:15Z</time>
      </trkpt>
      <trkpt lat="48.81838" lon="2.95027">
        <ele>82.1</ele>
        <time>2021-05-23T07:22:20Z</time>
      </trkpt>
      <trkpt lat="48.81835" lon="2.95021">
        <ele>81.9</ele>
        <time>2021-05-23T07:22:21Z</time>
      </trkpt>
      <trkpt lat="48.81833" lon="2.95015">
        <ele>81.8</ele>
        <time>2021-05-23T07:22:22Z</time>
      </trkpt>
      <trkpt lat="48.81829" lon="2.95001">
        <ele>81.5</ele>
        <time>2021-05-23T07:22:24Z</time>
      </trkpt>
      <trkpt lat="48.81827" lon="2.94994">
        <ele>81.4</ele>
        <time>2021-05-23T07:22:25Z</time>
      </trkpt>
      <trkpt lat="48.81827" lon="2.94987">
        <ele>81.4</ele>
        <time>2021-05-23T07:22:26Z</time>
      </trkpt>
      <trkpt lat="48.81827" lon="2.94979">
        <ele>81.4</ele>
        <time>2021-05-23T07:22:27Z</time>
      </trkpt>
      <trkpt lat="48.81827" lon="2.94972">
        <ele>81.4</ele>
        <time>2021-05-23T07:22:28Z</time>
      </trkpt>
      <trkpt lat="48.81827" lon="2.94943">
        <ele>81.5</ele>
        <time>2021-05-23T07:22:32Z</time>
      </trkpt>
      <trkpt lat="48.81828" lon="2.94936">
        <ele>81.5</ele>
        <time>2021-05-23T07:22:33Z</time>
      </trkpt>
      <trkpt lat="48.81832" lon="2.94875">
        <ele>82.4</ele>
        <time>2021-05-23T07:22:42Z</time>
      </trkpt>
      <trkpt lat="48.81834" lon="2.94839">
        <ele>83</ele>
        <time>2021-05-23T07:22:47Z</time>
      </trkpt>
      <trkpt lat="48.81833" lon="2.94808">
        <ele>83</ele>
        <time>2021-05-23T07:22:51Z</time>
      </trkpt>
      <trkpt lat="48.81833" lon="2.948">
        <ele>83</ele>
        <time>2021-05-23T07:22:52Z</time>
      </trkpt>
      <trkpt lat="48.81834" lon="2.94759">
        <ele>83</ele>
        <time>2021-05-23T07:22:57Z</time>
      </trkpt>
      <trkpt lat="48.81833" lon="2.94751">
        <ele>83</ele>
        <time>2021-05-23T07:22:58Z</time>
      </trkpt>
      <trkpt lat="48.81833" lon="2.94743">
        <ele>83</ele>
        <time>2021-05-23T07:22:59Z</time>
      </trkpt>
      <trkpt lat="48.81835" lon="2.94706">
        <ele>83.1</ele>
        <time>2021-05-23T07:23:04Z</time>
      </trkpt>
      <trkpt lat="48.81835" lon="2.94699">
        <ele>83.2</ele>
        <time>2021-05-23T07:23:05Z</time>
      </trkpt>
      <trkpt lat="48.81835" lon="2.94685">
        <ele>83.2</ele>
        <time>2021-05-23T07:23:07Z</time>
      </trkpt>
      <trkpt lat="48.81836" lon="2.9467">
        <ele>83.2</ele>
        <time>2021-05-23T07:23:09Z</time>
      </trkpt>
      <trkpt lat="48.81838" lon="2.9464">
        <ele>82.1</ele>
        <time>2021-05-23T07:23:13Z</time>
      </trkpt>
      <trkpt lat="48.81839" lon="2.94632">
        <ele>81.8</ele>
        <time>2021-05-23T07:23:14Z</time>
      </trkpt>
      <trkpt lat="48.81843" lon="2.9461">
        <ele>81.1</ele>
        <time>2021-05-23T07:23:17Z</time>
      </trkpt>
      <trkpt lat="48.81845" lon="2.94603">
        <ele>80.9</ele>
        <time>2021-05-23T07:23:18Z</time>
      </trkpt>
      <trkpt lat="48.81847" lon="2.94596">
        <ele>80.8</ele>
        <time>2021-05-23T07:23:19Z</time>
      </trkpt>
      <trkpt lat="48.81849" lon="2.9459">
        <ele>80.6</ele>
        <time>2021-05-23T07:23:20Z</time>
      </trkpt>
      <trkpt lat="48.81851" lon="2.94585">
        <ele>80.5</ele>
        <time>2021-05-23T07:23:21Z</time>
      </trkpt>
      <trkpt lat="48.81853" lon="2.94579">
        <ele>80.5</ele>
        <time>2021-05-23T07:23:22Z</time>
      </trkpt>
      <trkpt lat="48.81859" lon="2.94567">
        <ele>80.7</ele>
        <time>2021-05-23T07:23:24Z</time>
      </trkpt>
      <trkpt lat="48.81863" lon="2.94562">
        <ele>80.8</ele>
        <time>2021-05-23T07:23:25Z</time>
      </trkpt>
      <trkpt lat="48.81874" lon="2.94538">
        <ele>81.1</ele>
        <time>2021-05-23T07:23:29Z</time>
      </trkpt>
      <trkpt lat="48.81877" lon="2.94532">
        <ele>81.2</ele>
        <time>2021-05-23T07:23:30Z</time>
      </trkpt>
      <trkpt lat="48.81905" lon="2.9447">
        <ele>82.5</ele>
        <time>2021-05-23T07:23:42Z</time>
      </trkpt>
      <trkpt lat="48.81928" lon="2.94395">
        <ele>83.8</ele>
        <time>2021-05-23T07:23:55Z</time>
      </trkpt>
      <trkpt lat="48.81943" lon="2.94326">
        <ele>83.3</ele>
        <time>2021-05-23T07:24:07Z</time>
      </trkpt>
      <trkpt lat="48.81963" lon="2.94259">
        <ele>84.3</ele>
        <time>2021-05-23T07:24:18Z</time>
      </trkpt>
      <trkpt lat="48.81985" lon="2.94176">
        <ele>83.6</ele>
        <time>2021-05-23T07:24:32Z</time>
      </trkpt>
      <trkpt lat="48.81989" lon="2.94159">
        <ele>83.5</ele>
        <time>2021-05-23T07:24:35Z</time>
      </trkpt>
      <trkpt lat="48.81993" lon="2.94148">
        <ele>83.6</ele>
        <time>2021-05-23T07:24:37Z</time>
      </trkpt>
      <trkpt lat="48.81997" lon="2.94129">
        <ele>83.7</ele>
        <time>2021-05-23T07:24:40Z</time>
      </trkpt>
      <trkpt lat="48.8201" lon="2.94077">
        <ele>84.2</ele>
        <time>2021-05-23T07:24:49Z</time>
      </trkpt>
      <trkpt lat="48.82014" lon="2.94066">
        <ele>84.4</ele>
        <time>2021-05-23T07:24:51Z</time>
      </trkpt>
      <trkpt lat="48.82015" lon="2.9406">
        <ele>84.5</ele>
        <time>2021-05-23T07:24:52Z</time>
      </trkpt>
      <trkpt lat="48.82017" lon="2.94054">
        <ele>84.6</ele>
        <time>2021-05-23T07:24:53Z</time>
      </trkpt>
      <trkpt lat="48.82018" lon="2.94048">
        <ele>84.6</ele>
        <time>2021-05-23T07:24:54Z</time>
      </trkpt>
      <trkpt lat="48.82019" lon="2.94042">
        <ele>84.7</ele>
        <time>2021-05-23T07:24:55Z</time>
      </trkpt>
      <trkpt lat="48.82021" lon="2.94024">
        <ele>84.7</ele>
        <time>2021-05-23T07:24:58Z</time>
      </trkpt>
      <trkpt lat="48.82022" lon="2.94018">
        <ele>84.6</ele>
        <time>2021-05-23T07:24:59Z</time>
      </trkpt>
      <trkpt lat="48.82021" lon="2.94012">
        <ele>84.5</ele>
        <time>2021-05-23T07:25:00Z</time>
      </trkpt>
      <trkpt lat="48.8202" lon="2.94006">
        <ele>84.3</ele>
        <time>2021-05-23T07:25:01Z</time>
      </trkpt>
      <trkpt lat="48.8202" lon="2.94">
        <ele>84.1</ele>
        <time>2021-05-23T07:25:02Z</time>
      </trkpt>
      <trkpt lat="48.8202" lon="2.93995">
        <ele>83.8</ele>
        <time>2021-05-23T07:25:03Z</time>
      </trkpt>
      <trkpt lat="48.82019" lon="2.9399">
        <ele>83.5</ele>
        <time>2021-05-23T07:25:04Z</time>
      </trkpt>
      <trkpt lat="48.82017" lon="2.93969">
        <ele>82</ele>
        <time>2021-05-23T07:25:08Z</time>
      </trkpt>
      <trkpt lat="48.82015" lon="2.93963">
        <ele>81.5</ele>
        <time>2021-05-23T07:25:09Z</time>
      </trkpt>
      <trkpt lat="48.82015" lon="2.93956">
        <ele>81.1</ele>
        <time>2021-05-23T07:25:10Z</time>
      </trkpt>
      <trkpt lat="48.82015" lon="2.93924">
        <ele>79.2</ele>
        <time>2021-05-23T07:25:14Z</time>
      </trkpt>
      <trkpt lat="48.82015" lon="2.93916">
        <ele>78.8</ele>
        <time>2021-05-23T07:25:15Z</time>
      </trkpt>
      <trkpt lat="48.82016" lon="2.93908">
        <ele>78.2</ele>
        <time>2021-05-23T07:25:16Z</time>
      </trkpt>
      <trkpt lat="48.82017" lon="2.939">
        <ele>77.7</ele>
        <time>2021-05-23T07:25:17Z</time>
      </trkpt>
      <trkpt lat="48.82019" lon="2.93892">
        <ele>77.2</ele>
        <time>2021-05-23T07:25:18Z</time>
      </trkpt>
      <trkpt lat="48.82021" lon="2.93886">
        <ele>76.9</ele>
        <time>2021-05-23T07:25:19Z</time>
      </trkpt>
      <trkpt lat="48.82023" lon="2.9388">
        <ele>76.6</ele>
        <time>2021-05-23T07:25:20Z</time>
      </trkpt>
      <trkpt lat="48.82026" lon="2.93868">
        <ele>76</ele>
        <time>2021-05-23T07:25:22Z</time>
      </trkpt>
      <trkpt lat="48.82028" lon="2.93862">
        <ele>75.7</ele>
        <time>2021-05-23T07:25:23Z</time>
      </trkpt>
      <trkpt lat="48.8203" lon="2.93855">
        <ele>75.5</ele>
        <time>2021-05-23T07:25:24Z</time>
      </trkpt>
      <trkpt lat="48.82034" lon="2.93849">
        <ele>75.3</ele>
        <time>2021-05-23T07:25:25Z</time>
      </trkpt>
      <trkpt lat="48.82037" lon="2.93844">
        <ele>75.4</ele>
        <time>2021-05-23T07:25:26Z</time>
      </trkpt>
      <trkpt lat="48.82041" lon="2.93839">
        <ele>75.4</ele>
        <time>2021-05-23T07:25:27Z</time>
      </trkpt>
      <trkpt lat="48.82045" lon="2.93832">
        <ele>75.3</ele>
        <time>2021-05-23T07:25:28Z</time>
      </trkpt>
      <trkpt lat="48.82048" lon="2.93826">
        <ele>75.2</ele>
        <time>2021-05-23T07:25:29Z</time>
      </trkpt>
      <trkpt lat="48.8205" lon="2.9382">
        <ele>75.1</ele>
        <time>2021-05-23T07:25:30Z</time>
      </trkpt>
      <trkpt lat="48.82073" lon="2.9377">
        <ele>74.8</ele>
        <time>2021-05-23T07:25:37Z</time>
      </trkpt>
      <trkpt lat="48.82076" lon="2.93764">
        <ele>75</ele>
        <time>2021-05-23T07:25:38Z</time>
      </trkpt>
      <trkpt lat="48.8208" lon="2.93759">
        <ele>75.1</ele>
        <time>2021-05-23T07:25:39Z</time>
      </trkpt>
      <trkpt lat="48.82084" lon="2.93752">
        <ele>75.2</ele>
        <time>2021-05-23T07:25:40Z</time>
      </trkpt>
      <trkpt lat="48.82088" lon="2.93745">
        <ele>75.1</ele>
        <time>2021-05-23T07:25:41Z</time>
      </trkpt>
      <trkpt lat="48.82091" lon="2.93739">
        <ele>75.1</ele>
        <time>2021-05-23T07:25:42Z</time>
      </trkpt>
      <trkpt lat="48.82094" lon="2.93733">
        <ele>75.1</ele>
        <time>2021-05-23T07:25:43Z</time>
      </trkpt>
      <trkpt lat="48.82097" lon="2.93726">
        <ele>75.1</ele>
        <time>2021-05-23T07:25:44Z</time>
      </trkpt>
      <trkpt lat="48.821" lon="2.93719">
        <ele>75</ele>
        <time>2021-05-23T07:25:45Z</time>
      </trkpt>
      <trkpt lat="48.82104" lon="2.93713">
        <ele>75</ele>
        <time>2021-05-23T07:25:46Z</time>
      </trkpt>
      <trkpt lat="48.82108" lon="2.93707">
        <ele>75</ele>
        <time>2021-05-23T07:25:47Z</time>
      </trkpt>
      <trkpt lat="48.82112" lon="2.93701">
        <ele>75.1</ele>
        <time>2021-05-23T07:25:48Z</time>
      </trkpt>
      <trkpt lat="48.82119" lon="2.93684">
        <ele>74.9</ele>
        <time>2021-05-23T07:25:51Z</time>
      </trkpt>
      <trkpt lat="48.82122" lon="2.93676">
        <ele>74.7</ele>
        <time>2021-05-23T07:25:52Z</time>
      </trkpt>
      <trkpt lat="48.82144" lon="2.93595">
        <ele>71.5</ele>
        <time>2021-05-23T07:26:00Z</time>
      </trkpt>
      <trkpt lat="48.8215" lon="2.93553">
        <ele>69</ele>
        <time>2021-05-23T07:26:04Z</time>
      </trkpt>
      <trkpt lat="48.8215" lon="2.93543">
        <ele>68.4</ele>
        <time>2021-05-23T07:26:05Z</time>
      </trkpt>
      <trkpt lat="48.82151" lon="2.93533">
        <ele>67.6</ele>
        <time>2021-05-23T07:26:06Z</time>
      </trkpt>
      <trkpt lat="48.82152" lon="2.93502">
        <ele>65.5</ele>
        <time>2021-05-23T07:26:09Z</time>
      </trkpt>
      <trkpt lat="48.82165" lon="2.93443">
        <ele>63.2</ele>
        <time>2021-05-23T07:26:14Z</time>
      </trkpt>
      <trkpt lat="48.82169" lon="2.93431">
        <ele>63</ele>
        <time>2021-05-23T07:26:15Z</time>
      </trkpt>
      <trkpt lat="48.82178" lon="2.93408">
        <ele>63.1</ele>
        <time>2021-05-23T07:26:19Z</time>
      </trkpt>
      <trkpt lat="48.82181" lon="2.93405">
        <ele>63.3</ele>
        <time>2021-05-23T07:26:20Z</time>
      </trkpt>
      <trkpt lat="48.82185" lon="2.93403">
        <ele>63.6</ele>
        <time>2021-05-23T07:26:21Z</time>
      </trkpt>
      <trkpt lat="48.82214" lon="2.93381">
        <ele>65.5</ele>
        <time>2021-05-23T07:26:29Z</time>
      </trkpt>
      <trkpt lat="48.82218" lon="2.93376">
        <ele>65.6</ele>
        <time>2021-05-23T07:26:30Z</time>
      </trkpt>
      <trkpt lat="48.82222" lon="2.93373">
        <ele>65.7</ele>
        <time>2021-05-23T07:26:31Z</time>
      </trkpt>
      <trkpt lat="48.82234" lon="2.93363">
        <ele>66</ele>
        <time>2021-05-23T07:26:34Z</time>
      </trkpt>
      <trkpt lat="48.82238" lon="2.93359">
        <ele>66</ele>
        <time>2021-05-23T07:26:35Z</time>
      </trkpt>
      <trkpt lat="48.82247" lon="2.93345">
        <ele>65.7</ele>
        <time>2021-05-23T07:26:38Z</time>
      </trkpt>
      <trkpt lat="48.82249" lon="2.93338">
        <ele>65.3</ele>
        <time>2021-05-23T07:26:39Z</time>
      </trkpt>
      <trkpt lat="48.82251" lon="2.93331">
        <ele>64.8</ele>
        <time>2021-05-23T07:26:40Z</time>
      </trkpt>
      <trkpt lat="48.82265" lon="2.9329">
        <ele>61.7</ele>
        <time>2021-05-23T07:26:46Z</time>
      </trkpt>
      <trkpt lat="48.82267" lon="2.93281">
        <ele>61.1</ele>
        <time>2021-05-23T07:26:47Z</time>
      </trkpt>
      <trkpt lat="48.82271" lon="2.93256">
        <ele>59.4</ele>
        <time>2021-05-23T07:26:50Z</time>
      </trkpt>
      <trkpt lat="48.82273" lon="2.93248">
        <ele>58.9</ele>
        <time>2021-05-23T07:26:51Z</time>
      </trkpt>
      <trkpt lat="48.82276" lon="2.93241">
        <ele>58.6</ele>
        <time>2021-05-23T07:26:52Z</time>
      </trkpt>
      <trkpt lat="48.8228" lon="2.93234">
        <ele>58.4</ele>
        <time>2021-05-23T07:26:53Z</time>
      </trkpt>
      <trkpt lat="48.82284" lon="2.93228">
        <ele>58.1</ele>
        <time>2021-05-23T07:26:54Z</time>
      </trkpt>
      <trkpt lat="48.82287" lon="2.93222">
        <ele>57.9</ele>
        <time>2021-05-23T07:26:55Z</time>
      </trkpt>
      <trkpt lat="48.82299" lon="2.93203">
        <ele>57.1</ele>
        <time>2021-05-23T07:26:58Z</time>
      </trkpt>
      <trkpt lat="48.82343" lon="2.93119">
        <ele>54.5</ele>
        <time>2021-05-23T07:27:11Z</time>
      </trkpt>
      <trkpt lat="48.8238" lon="2.93028">
        <ele>53</ele>
        <time>2021-05-23T07:27:25Z</time>
      </trkpt>
      <trkpt lat="48.82419" lon="2.92948">
        <ele>52.5</ele>
        <time>2021-05-23T07:27:37Z</time>
      </trkpt>
      <trkpt lat="48.82463" lon="2.92854">
        <ele>54.1</ele>
        <time>2021-05-23T07:27:51Z</time>
      </trkpt>
      <trkpt lat="48.82465" lon="2.92847">
        <ele>54.2</ele>
        <time>2021-05-23T07:27:52Z</time>
      </trkpt>
      <trkpt lat="48.82483" lon="2.92787">
        <ele>54.5</ele>
        <time>2021-05-23T07:28:01Z</time>
      </trkpt>
      <trkpt lat="48.82486" lon="2.92782">
        <ele>54.6</ele>
        <time>2021-05-23T07:28:02Z</time>
      </trkpt>
      <trkpt lat="48.82488" lon="2.92776">
        <ele>54.6</ele>
        <time>2021-05-23T07:28:03Z</time>
      </trkpt>
      <trkpt lat="48.82489" lon="2.92769">
        <ele>54.6</ele>
        <time>2021-05-23T07:28:04Z</time>
      </trkpt>
      <trkpt lat="48.82491" lon="2.92762">
        <ele>54.7</ele>
        <time>2021-05-23T07:28:05Z</time>
      </trkpt>
      <trkpt lat="48.82496" lon="2.92741">
        <ele>54.9</ele>
        <time>2021-05-23T07:28:08Z</time>
      </trkpt>
      <trkpt lat="48.82498" lon="2.92734">
        <ele>54.9</ele>
        <time>2021-05-23T07:28:09Z</time>
      </trkpt>
      <trkpt lat="48.82505" lon="2.92714">
        <ele>55.2</ele>
        <time>2021-05-23T07:28:12Z</time>
      </trkpt>
      <trkpt lat="48.82507" lon="2.92707">
        <ele>55.4</ele>
        <time>2021-05-23T07:28:13Z</time>
      </trkpt>
      <trkpt lat="48.82508" lon="2.92701">
        <ele>55.5</ele>
        <time>2021-05-23T07:28:14Z</time>
      </trkpt>
      <trkpt lat="48.8251" lon="2.92694">
        <ele>55.6</ele>
        <time>2021-05-23T07:28:15Z</time>
      </trkpt>
      <trkpt lat="48.82511" lon="2.92689">
        <ele>55.6</ele>
        <time>2021-05-23T07:28:16Z</time>
      </trkpt>
      <trkpt lat="48.82519" lon="2.92657">
        <ele>56</ele>
        <time>2021-05-23T07:28:21Z</time>
      </trkpt>
      <trkpt lat="48.8252" lon="2.9265">
        <ele>55.9</ele>
        <time>2021-05-23T07:28:22Z</time>
      </trkpt>
      <trkpt lat="48.82521" lon="2.92644">
        <ele>55.9</ele>
        <time>2021-05-23T07:28:23Z</time>
      </trkpt>
      <trkpt lat="48.82522" lon="2.92639">
        <ele>55.9</ele>
        <time>2021-05-23T07:28:24Z</time>
      </trkpt>
      <trkpt lat="48.82523" lon="2.92633">
        <ele>55.9</ele>
        <time>2021-05-23T07:28:25Z</time>
      </trkpt>
      <trkpt lat="48.82524" lon="2.92626">
        <ele>55.9</ele>
        <time>2021-05-23T07:28:26Z</time>
      </trkpt>
      <trkpt lat="48.82526" lon="2.9262">
        <ele>56</ele>
        <time>2021-05-23T07:28:27Z</time>
      </trkpt>
      <trkpt lat="48.82538" lon="2.92566">
        <ele>56.7</ele>
        <time>2021-05-23T07:28:36Z</time>
      </trkpt>
      <trkpt lat="48.82552" lon="2.92539">
        <ele>57.9</ele>
        <time>2021-05-23T07:28:41Z</time>
      </trkpt>
      <trkpt lat="48.82557" lon="2.92499">
        <ele>58.1</ele>
        <time>2021-05-23T07:28:47Z</time>
      </trkpt>
      <trkpt lat="48.82558" lon="2.92491">
        <ele>58.2</ele>
        <time>2021-05-23T07:28:48Z</time>
      </trkpt>
      <trkpt lat="48.82558" lon="2.92483">
        <ele>58.2</ele>
        <time>2021-05-23T07:28:49Z</time>
      </trkpt>
      <trkpt lat="48.82558" lon="2.92475">
        <ele>58.3</ele>
        <time>2021-05-23T07:28:50Z</time>
      </trkpt>
      <trkpt lat="48.82558" lon="2.92466">
        <ele>58.3</ele>
        <time>2021-05-23T07:28:51Z</time>
      </trkpt>
      <trkpt lat="48.82561" lon="2.924">
        <ele>58.3</ele>
        <time>2021-05-23T07:29:00Z</time>
      </trkpt>
      <trkpt lat="48.82561" lon="2.92393">
        <ele>58.2</ele>
        <time>2021-05-23T07:29:01Z</time>
      </trkpt>
      <trkpt lat="48.82561" lon="2.92385">
        <ele>58.1</ele>
        <time>2021-05-23T07:29:02Z</time>
      </trkpt>
      <trkpt lat="48.82561" lon="2.92377">
        <ele>58</ele>
        <time>2021-05-23T07:29:03Z</time>
      </trkpt>
      <trkpt lat="48.82561" lon="2.92371">
        <ele>57.8</ele>
        <time>2021-05-23T07:29:04Z</time>
      </trkpt>
      <trkpt lat="48.8256" lon="2.92298">
        <ele>57.5</ele>
        <time>2021-05-23T07:29:15Z</time>
      </trkpt>
      <trkpt lat="48.82557" lon="2.92233">
        <ele>57.6</ele>
        <time>2021-05-23T07:29:25Z</time>
      </trkpt>
      <trkpt lat="48.82553" lon="2.92152">
        <ele>56.6</ele>
        <time>2021-05-23T07:29:37Z</time>
      </trkpt>
      <trkpt lat="48.8255" lon="2.92134">
        <ele>56.6</ele>
        <time>2021-05-23T07:29:40Z</time>
      </trkpt>
      <trkpt lat="48.8255" lon="2.92127">
        <ele>56.6</ele>
        <time>2021-05-23T07:29:41Z</time>
      </trkpt>
      <trkpt lat="48.82551" lon="2.92121">
        <ele>56.7</ele>
        <time>2021-05-23T07:29:42Z</time>
      </trkpt>
      <trkpt lat="48.82552" lon="2.92116">
        <ele>56.8</ele>
        <time>2021-05-23T07:29:43Z</time>
      </trkpt>
      <trkpt lat="48.82554" lon="2.92112">
        <ele>57</ele>
        <time>2021-05-23T07:29:44Z</time>
      </trkpt>
      <trkpt lat="48.82578" lon="2.92055">
        <ele>59.8</ele>
        <time>2021-05-23T07:29:55Z</time>
      </trkpt>
      <trkpt lat="48.82579" lon="2.91982">
        <ele>60.6</ele>
        <time>2021-05-23T07:30:07Z</time>
      </trkpt>
      <trkpt lat="48.82575" lon="2.91914">
        <ele>60.2</ele>
        <time>2021-05-23T07:30:21Z</time>
      </trkpt>
      <trkpt lat="48.82574" lon="2.91908">
        <ele>60.2</ele>
        <time>2021-05-23T07:30:23Z</time>
      </trkpt>
      <trkpt lat="48.82572" lon="2.91906">
        <ele>60.1</ele>
        <time>2021-05-23T07:30:24Z</time>
      </trkpt>
      <trkpt lat="48.8257" lon="2.91903">
        <ele>59.9</ele>
        <time>2021-05-23T07:30:25Z</time>
      </trkpt>
      <trkpt lat="48.82559" lon="2.91883">
        <ele>59.2</ele>
        <time>2021-05-23T07:30:30Z</time>
      </trkpt>
      <trkpt lat="48.82558" lon="2.91876">
        <ele>59.2</ele>
        <time>2021-05-23T07:30:31Z</time>
      </trkpt>
      <trkpt lat="48.82556" lon="2.91832">
        <ele>59.7</ele>
        <time>2021-05-23T07:30:37Z</time>
      </trkpt>
      <trkpt lat="48.82555" lon="2.91826">
        <ele>59.8</ele>
        <time>2021-05-23T07:30:38Z</time>
      </trkpt>
      <trkpt lat="48.82555" lon="2.9182">
        <ele>59.8</ele>
        <time>2021-05-23T07:30:39Z</time>
      </trkpt>
      <trkpt lat="48.82551" lon="2.91729">
        <ele>61.3</ele>
        <time>2021-05-23T07:30:54Z</time>
      </trkpt>
      <trkpt lat="48.82538" lon="2.91669">
        <ele>61.3</ele>
        <time>2021-05-23T07:31:06Z</time>
      </trkpt>
      <trkpt lat="48.8253" lon="2.91649">
        <ele>60.6</ele>
        <time>2021-05-23T07:31:10Z</time>
      </trkpt>
      <trkpt lat="48.82527" lon="2.91645">
        <ele>60.1</ele>
        <time>2021-05-23T07:31:11Z</time>
      </trkpt>
      <trkpt lat="48.82524" lon="2.9164">
        <ele>59.8</ele>
        <time>2021-05-23T07:31:12Z</time>
      </trkpt>
      <trkpt lat="48.82522" lon="2.91634">
        <ele>59.7</ele>
        <time>2021-05-23T07:31:13Z</time>
      </trkpt>
      <trkpt lat="48.82521" lon="2.91628">
        <ele>59.6</ele>
        <time>2021-05-23T07:31:14Z</time>
      </trkpt>
      <trkpt lat="48.82519" lon="2.91621">
        <ele>59.6</ele>
        <time>2021-05-23T07:31:15Z</time>
      </trkpt>
      <trkpt lat="48.82513" lon="2.91575">
        <ele>60</ele>
        <time>2021-05-23T07:31:23Z</time>
      </trkpt>
      <trkpt lat="48.82514" lon="2.9157">
        <ele>60.6</ele>
        <time>2021-05-23T07:31:24Z</time>
      </trkpt>
      <trkpt lat="48.82515" lon="2.9156">
        <ele>61.4</ele>
        <time>2021-05-23T07:31:26Z</time>
      </trkpt>
      <trkpt lat="48.82509" lon="2.9152">
        <ele>62</ele>
        <time>2021-05-23T07:31:35Z</time>
      </trkpt>
      <trkpt lat="48.82503" lon="2.91467">
        <ele>62.9</ele>
        <time>2021-05-23T07:31:46Z</time>
      </trkpt>
      <trkpt lat="48.82498" lon="2.9142">
        <ele>63.6</ele>
        <time>2021-05-23T07:31:56Z</time>
      </trkpt>
      <trkpt lat="48.82491" lon="2.91363">
        <ele>63.9</ele>
        <time>2021-05-23T07:32:06Z</time>
      </trkpt>
      <trkpt lat="48.82484" lon="2.91306">
        <ele>63.4</ele>
        <time>2021-05-23T07:32:16Z</time>
      </trkpt>
      <trkpt lat="48.82486" lon="2.91261">
        <ele>64.2</ele>
        <time>2021-05-23T07:32:26Z</time>
      </trkpt>
      <trkpt lat="48.82487" lon="2.91255">
        <ele>64.4</ele>
        <time>2021-05-23T07:32:28Z</time>
      </trkpt>
      <trkpt lat="48.82484" lon="2.91196">
        <ele>61.2</ele>
        <time>2021-05-23T07:32:40Z</time>
      </trkpt>
      <trkpt lat="48.8251" lon="2.91154">
        <ele>60.7</ele>
        <time>2021-05-23T07:32:51Z</time>
      </trkpt>
      <trkpt lat="48.82514" lon="2.91152">
        <ele>60.8</ele>
        <time>2021-05-23T07:32:52Z</time>
      </trkpt>
      <trkpt lat="48.82578" lon="2.91128">
        <ele>62.9</ele>
        <time>2021-05-23T07:33:08Z</time>
      </trkpt>
      <trkpt lat="48.82639" lon="2.91106">
        <ele>64</ele>
        <time>2021-05-23T07:33:23Z</time>
      </trkpt>
      <trkpt lat="48.82726" lon="2.91074">
        <ele>65.3</ele>
        <time>2021-05-23T07:33:43Z</time>
      </trkpt>
      <trkpt lat="48.82754" lon="2.91063">
        <ele>65.8</ele>
        <time>2021-05-23T07:33:49Z</time>
      </trkpt>
      <trkpt lat="48.82794" lon="2.91046">
        <ele>66.2</ele>
        <time>2021-05-23T07:33:57Z</time>
      </trkpt>
      <trkpt lat="48.82799" lon="2.91043">
        <ele>66.2</ele>
        <time>2021-05-23T07:33:58Z</time>
      </trkpt>
      <trkpt lat="48.82809" lon="2.9104">
        <ele>66.3</ele>
        <time>2021-05-23T07:34:00Z</time>
      </trkpt>
      <trkpt lat="48.82868" lon="2.91034">
        <ele>68.4</ele>
        <time>2021-05-23T07:34:12Z</time>
      </trkpt>
      <trkpt lat="48.82941" lon="2.91018">
        <ele>69.7</ele>
        <time>2021-05-23T07:34:28Z</time>
      </trkpt>
      <trkpt lat="48.82993" lon="2.91009">
        <ele>71</ele>
        <time>2021-05-23T07:34:40Z</time>
      </trkpt>
      <trkpt lat="48.83023" lon="2.90992">
        <ele>69.7</ele>
        <time>2021-05-23T07:34:49Z</time>
      </trkpt>
      <trkpt lat="48.83026" lon="2.90986">
        <ele>69.2</ele>
        <time>2021-05-23T07:34:50Z</time>
      </trkpt>
      <trkpt lat="48.83029" lon="2.90979">
        <ele>68.5</ele>
        <time>2021-05-23T07:34:51Z</time>
      </trkpt>
      <trkpt lat="48.83042" lon="2.90946">
        <ele>65.4</ele>
        <time>2021-05-23T07:34:55Z</time>
      </trkpt>
      <trkpt lat="48.83047" lon="2.90941">
        <ele>65.1</ele>
        <time>2021-05-23T07:34:56Z</time>
      </trkpt>
      <trkpt lat="48.83053" lon="2.90939">
        <ele>65.2</ele>
        <time>2021-05-23T07:34:57Z</time>
      </trkpt>
      <trkpt lat="48.83092" lon="2.90928">
        <ele>65.3</ele>
        <time>2021-05-23T07:35:08Z</time>
      </trkpt>
      <trkpt lat="48.83138" lon="2.90925">
        <ele>66.1</ele>
        <time>2021-05-23T07:35:23Z</time>
      </trkpt>
      <trkpt lat="48.83159" lon="2.90964">
        <ele>70.9</ele>
        <time>2021-05-23T07:35:35Z</time>
      </trkpt>
      <trkpt lat="48.83137" lon="2.91002">
        <ele>74.2</ele>
        <time>2021-05-23T07:35:47Z</time>
      </trkpt>
      <trkpt lat="48.83093" lon="2.91021">
        <ele>75.1</ele>
        <time>2021-05-23T07:36:02Z</time>
      </trkpt>
      <trkpt lat="48.83052" lon="2.91042">
        <ele>77</ele>
        <time>2021-05-23T07:36:17Z</time>
      </trkpt>
      <trkpt lat="48.83039" lon="2.91068">
        <ele>80.3</ele>
        <time>2021-05-23T07:36:25Z</time>
      </trkpt>
      <trkpt lat="48.83043" lon="2.91097">
        <ele>83.9</ele>
        <time>2021-05-23T07:36:35Z</time>
      </trkpt>
      <trkpt lat="48.83044" lon="2.911">
        <ele>84.2</ele>
        <time>2021-05-23T07:36:36Z</time>
      </trkpt>
      <trkpt lat="48.83046" lon="2.91104">
        <ele>84.7</ele>
        <time>2021-05-23T07:36:39Z</time>
      </trkpt>
      <trkpt lat="48.83073" lon="2.91115">
        <ele>86</ele>
        <time>2021-05-23T07:36:52Z</time>
      </trkpt>
      <trkpt lat="48.83111" lon="2.91123">
        <ele>87.3</ele>
        <time>2021-05-23T07:37:03Z</time>
      </trkpt>
      <trkpt lat="48.83151" lon="2.91131">
        <ele>88.6</ele>
        <time>2021-05-23T07:37:16Z</time>
      </trkpt>
      <trkpt lat="48.83176" lon="2.91159">
        <ele>90.6</ele>
        <time>2021-05-23T07:37:28Z</time>
      </trkpt>
      <trkpt lat="48.83165" lon="2.91207">
        <ele>92.5</ele>
        <time>2021-05-23T07:37:40Z</time>
      </trkpt>
      <trkpt lat="48.83141" lon="2.91265">
        <ele>95.1</ele>
        <time>2021-05-23T07:37:57Z</time>
      </trkpt>
      <trkpt lat="48.83143" lon="2.91315">
        <ele>96.9</ele>
        <time>2021-05-23T07:38:11Z</time>
      </trkpt>
      <trkpt lat="48.83155" lon="2.91376">
        <ele>98.7</ele>
        <time>2021-05-23T07:38:26Z</time>
      </trkpt>
      <trkpt lat="48.83168" lon="2.91436">
        <ele>100.7</ele>
        <time>2021-05-23T07:38:41Z</time>
      </trkpt>
      <trkpt lat="48.83183" lon="2.91516">
        <ele>103.3</ele>
        <time>2021-05-23T07:39:00Z</time>
      </trkpt>
      <trkpt lat="48.83191" lon="2.91575">
        <ele>105.1</ele>
        <time>2021-05-23T07:39:14Z</time>
      </trkpt>
      <trkpt lat="48.83197" lon="2.91639">
        <ele>106.6</ele>
        <time>2021-05-23T07:39:30Z</time>
      </trkpt>
      <trkpt lat="48.83201" lon="2.91699">
        <ele>108.7</ele>
        <time>2021-05-23T07:39:45Z</time>
      </trkpt>
      <trkpt lat="48.83191" lon="2.91781">
        <ele>112.5</ele>
        <time>2021-05-23T07:40:05Z</time>
      </trkpt>
      <trkpt lat="48.83176" lon="2.9186">
        <ele>114.8</ele>
        <time>2021-05-23T07:40:23Z</time>
      </trkpt>
      <trkpt lat="48.83167" lon="2.9195">
        <ele>115.4</ele>
        <time>2021-05-23T07:40:41Z</time>
      </trkpt>
      <trkpt lat="48.83163" lon="2.91992">
        <ele>116</ele>
        <time>2021-05-23T07:40:50Z</time>
      </trkpt>
      <trkpt lat="48.8316" lon="2.91995">
        <ele>116.1</ele>
        <time>2021-05-23T07:40:51Z</time>
      </trkpt>
      <trkpt lat="48.83158" lon="2.91995">
        <ele>116.2</ele>
        <time>2021-05-23T07:40:52Z</time>
      </trkpt>
      <trkpt lat="48.83146" lon="2.91997">
        <ele>116.5</ele>
        <time>2021-05-23T07:41:02Z</time>
      </trkpt>
      <trkpt lat="48.83146" lon="2.91997">
        <ele>116.5</ele>
        <time>2021-05-23T07:41:27Z</time>
      </trkpt>
      <trkpt lat="48.83146" lon="2.91996">
        <ele>116.5</ele>
        <time>2021-05-23T07:41:53Z</time>
      </trkpt>
      <trkpt lat="48.83146" lon="2.91996">
        <ele>116.5</ele>
        <time>2021-05-23T07:42:16Z</time>
      </trkpt>
      <trkpt lat="48.83145" lon="2.91997">
        <ele>116.5</ele>
        <time>2021-05-23T07:42:45Z</time>
      </trkpt>
      <trkpt lat="48.83099" lon="2.9201">
        <ele>117.5</ele>
        <time>2021-05-23T07:42:59Z</time>
      </trkpt>
      <trkpt lat="48.83067" lon="2.92021">
        <ele>117.5</ele>
        <time>2021-05-23T07:43:07Z</time>
      </trkpt>
      <trkpt lat="48.83062" lon="2.92023">
        <ele>117.5</ele>
        <time>2021-05-23T07:43:08Z</time>
      </trkpt>
      <trkpt lat="48.83058" lon="2.92024">
        <ele>117.4</ele>
        <time>2021-05-23T07:43:09Z</time>
      </trkpt>
      <trkpt lat="48.83019" lon="2.92042">
        <ele>116.7</ele>
        <time>2021-05-23T07:43:19Z</time>
      </trkpt>
      <trkpt lat="48.83017" lon="2.92046">
        <ele>116.6</ele>
        <time>2021-05-23T07:43:20Z</time>
      </trkpt>
      <trkpt lat="48.83017" lon="2.92051">
        <ele>116.6</ele>
        <time>2021-05-23T07:43:21Z</time>
      </trkpt>
      <trkpt lat="48.83022" lon="2.92135">
        <ele>114.7</ele>
        <time>2021-05-23T07:43:36Z</time>
      </trkpt>
      <trkpt lat="48.83025" lon="2.9223">
        <ele>113.4</ele>
        <time>2021-05-23T07:43:51Z</time>
      </trkpt>
      <trkpt lat="48.83025" lon="2.92236">
        <ele>113.3</ele>
        <time>2021-05-23T07:43:52Z</time>
      </trkpt>
      <trkpt lat="48.83027" lon="2.92262">
        <ele>113.2</ele>
        <time>2021-05-23T07:43:56Z</time>
      </trkpt>
      <trkpt lat="48.83027" lon="2.92268">
        <ele>113.2</ele>
        <time>2021-05-23T07:43:57Z</time>
      </trkpt>
      <trkpt lat="48.83029" lon="2.92299">
        <ele>113.2</ele>
        <time>2021-05-23T07:44:02Z</time>
      </trkpt>
      <trkpt lat="48.8303" lon="2.92329">
        <ele>113.1</ele>
        <time>2021-05-23T07:44:07Z</time>
      </trkpt>
      <trkpt lat="48.83031" lon="2.92335">
        <ele>113.1</ele>
        <time>2021-05-23T07:44:08Z</time>
      </trkpt>
      <trkpt lat="48.83033" lon="2.92341">
        <ele>113.2</ele>
        <time>2021-05-23T07:44:09Z</time>
      </trkpt>
      <trkpt lat="48.83034" lon="2.92347">
        <ele>113.2</ele>
        <time>2021-05-23T07:44:10Z</time>
      </trkpt>
      <trkpt lat="48.83035" lon="2.92353">
        <ele>113.2</ele>
        <time>2021-05-23T07:44:11Z</time>
      </trkpt>
      <trkpt lat="48.83038" lon="2.92371">
        <ele>113.3</ele>
        <time>2021-05-23T07:44:14Z</time>
      </trkpt>
      <trkpt lat="48.8304" lon="2.92376">
        <ele>113.4</ele>
        <time>2021-05-23T07:44:15Z</time>
      </trkpt>
      <trkpt lat="48.83041" lon="2.9238">
        <ele>113.5</ele>
        <time>2021-05-23T07:44:16Z</time>
      </trkpt>
      <trkpt lat="48.83058" lon="2.92444">
        <ele>114.5</ele>
        <time>2021-05-23T07:44:28Z</time>
      </trkpt>
      <trkpt lat="48.83069" lon="2.92498">
        <ele>115.1</ele>
        <time>2021-05-23T07:44:38Z</time>
      </trkpt>
      <trkpt lat="48.83072" lon="2.925">
        <ele>115.3</ele>
        <time>2021-05-23T07:44:39Z</time>
      </trkpt>
      <trkpt lat="48.83075" lon="2.92501">
        <ele>115.5</ele>
        <time>2021-05-23T07:44:40Z</time>
      </trkpt>
      <trkpt lat="48.83078" lon="2.925">
        <ele>115.7</ele>
        <time>2021-05-23T07:44:41Z</time>
      </trkpt>
      <trkpt lat="48.83081" lon="2.92499">
        <ele>115.8</ele>
        <time>2021-05-23T07:44:42Z</time>
      </trkpt>
      <trkpt lat="48.83083" lon="2.92499">
        <ele>116</ele>
        <time>2021-05-23T07:44:43Z</time>
      </trkpt>
      <trkpt lat="48.83086" lon="2.92498">
        <ele>116</ele>
        <time>2021-05-23T07:44:44Z</time>
      </trkpt>
      <trkpt lat="48.83089" lon="2.92498">
        <ele>116</ele>
        <time>2021-05-23T07:44:45Z</time>
      </trkpt>
      <trkpt lat="48.83091" lon="2.925">
        <ele>116</ele>
        <time>2021-05-23T07:44:46Z</time>
      </trkpt>
      <trkpt lat="48.83093" lon="2.92504">
        <ele>116</ele>
        <time>2021-05-23T07:44:47Z</time>
      </trkpt>
      <trkpt lat="48.83095" lon="2.92507">
        <ele>116</ele>
        <time>2021-05-23T07:44:48Z</time>
      </trkpt>
      <trkpt lat="48.83104" lon="2.92569">
        <ele>116.2</ele>
        <time>2021-05-23T07:45:02Z</time>
      </trkpt>
      <trkpt lat="48.83111" lon="2.92615">
        <ele>116.2</ele>
        <time>2021-05-23T07:45:12Z</time>
      </trkpt>
      <trkpt lat="48.83114" lon="2.92651">
        <ele>116.1</ele>
        <time>2021-05-23T07:45:22Z</time>
      </trkpt>
      <trkpt lat="48.83122" lon="2.92715">
        <ele>116.7</ele>
        <time>2021-05-23T07:45:34Z</time>
      </trkpt>
      <trkpt lat="48.83125" lon="2.92775">
        <ele>117.6</ele>
        <time>2021-05-23T07:45:45Z</time>
      </trkpt>
      <trkpt lat="48.83118" lon="2.92816">
        <ele>118.1</ele>
        <time>2021-05-23T07:45:56Z</time>
      </trkpt>
      <trkpt lat="48.83117" lon="2.92862">
        <ele>118.9</ele>
        <time>2021-05-23T07:46:07Z</time>
      </trkpt>
      <trkpt lat="48.83118" lon="2.92865">
        <ele>118.9</ele>
        <time>2021-05-23T07:46:08Z</time>
      </trkpt>
      <trkpt lat="48.83118" lon="2.92869">
        <ele>119</ele>
        <time>2021-05-23T07:46:09Z</time>
      </trkpt>
      <trkpt lat="48.83118" lon="2.92873">
        <ele>119.1</ele>
        <time>2021-05-23T07:46:10Z</time>
      </trkpt>
      <trkpt lat="48.83118" lon="2.92876">
        <ele>119.1</ele>
        <time>2021-05-23T07:46:11Z</time>
      </trkpt>
      <trkpt lat="48.83118" lon="2.9288">
        <ele>119.2</ele>
        <time>2021-05-23T07:46:12Z</time>
      </trkpt>
      <trkpt lat="48.83119" lon="2.92907">
        <ele>119.6</ele>
        <time>2021-05-23T07:46:20Z</time>
      </trkpt>
      <trkpt lat="48.83121" lon="2.92909">
        <ele>119.7</ele>
        <time>2021-05-23T07:46:21Z</time>
      </trkpt>
      <trkpt lat="48.83123" lon="2.9291">
        <ele>119.8</ele>
        <time>2021-05-23T07:46:22Z</time>
      </trkpt>
      <trkpt lat="48.83124" lon="2.92911">
        <ele>119.9</ele>
        <time>2021-05-23T07:46:23Z</time>
      </trkpt>
      <trkpt lat="48.83127" lon="2.92912">
        <ele>120</ele>
        <time>2021-05-23T07:46:24Z</time>
      </trkpt>
      <trkpt lat="48.83129" lon="2.92913">
        <ele>120.2</ele>
        <time>2021-05-23T07:46:25Z</time>
      </trkpt>
      <trkpt lat="48.83165" lon="2.92927">
        <ele>121.9</ele>
        <time>2021-05-23T07:46:38Z</time>
      </trkpt>
      <trkpt lat="48.83198" lon="2.92944">
        <ele>121.6</ele>
        <time>2021-05-23T07:46:49Z</time>
      </trkpt>
      <trkpt lat="48.832" lon="2.92949">
        <ele>121.6</ele>
        <time>2021-05-23T07:46:50Z</time>
      </trkpt>
      <trkpt lat="48.83204" lon="2.93034">
        <ele>122</ele>
        <time>2021-05-23T07:47:06Z</time>
      </trkpt>
      <trkpt lat="48.83199" lon="2.93133">
        <ele>122.8</ele>
        <time>2021-05-23T07:47:23Z</time>
      </trkpt>
      <trkpt lat="48.83196" lon="2.93222">
        <ele>123.9</ele>
        <time>2021-05-23T07:47:38Z</time>
      </trkpt>
      <trkpt lat="48.83192" lon="2.93324">
        <ele>125.8</ele>
        <time>2021-05-23T07:47:55Z</time>
      </trkpt>
      <trkpt lat="48.832" lon="2.93412">
        <ele>127.7</ele>
        <time>2021-05-23T07:48:10Z</time>
      </trkpt>
      <trkpt lat="48.83206" lon="2.93508">
        <ele>129</ele>
        <time>2021-05-23T07:48:26Z</time>
      </trkpt>
      <trkpt lat="48.83209" lon="2.9359">
        <ele>130.1</ele>
        <time>2021-05-23T07:48:41Z</time>
      </trkpt>
      <trkpt lat="48.83217" lon="2.93668">
        <ele>131.4</ele>
        <time>2021-05-23T07:48:56Z</time>
      </trkpt>
      <trkpt lat="48.83221" lon="2.93748">
        <ele>132.6</ele>
        <time>2021-05-23T07:49:12Z</time>
      </trkpt>
      <trkpt lat="48.83225" lon="2.93826">
        <ele>132.1</ele>
        <time>2021-05-23T07:49:28Z</time>
      </trkpt>
      <trkpt lat="48.83227" lon="2.93898">
        <ele>133.2</ele>
        <time>2021-05-23T07:49:43Z</time>
      </trkpt>
      <trkpt lat="48.83228" lon="2.93954">
        <ele>134.4</ele>
        <time>2021-05-23T07:49:56Z</time>
      </trkpt>
      <trkpt lat="48.83227" lon="2.9402">
        <ele>135.7</ele>
        <time>2021-05-23T07:50:12Z</time>
      </trkpt>
      <trkpt lat="48.83226" lon="2.94085">
        <ele>136.5</ele>
        <time>2021-05-23T07:50:28Z</time>
      </trkpt>
      <trkpt lat="48.83224" lon="2.94135">
        <ele>137.4</ele>
        <time>2021-05-23T07:50:40Z</time>
      </trkpt>
      <trkpt lat="48.83222" lon="2.94195">
        <ele>138.5</ele>
        <time>2021-05-23T07:50:54Z</time>
      </trkpt>
      <trkpt lat="48.8322" lon="2.9427">
        <ele>139.7</ele>
        <time>2021-05-23T07:51:10Z</time>
      </trkpt>
      <trkpt lat="48.83218" lon="2.94341">
        <ele>140.9</ele>
        <time>2021-05-23T07:51:26Z</time>
      </trkpt>
      <trkpt lat="48.83217" lon="2.94399">
        <ele>141.6</ele>
        <time>2021-05-23T07:51:40Z</time>
      </trkpt>
      <trkpt lat="48.83215" lon="2.94455">
        <ele>142.4</ele>
        <time>2021-05-23T07:51:54Z</time>
      </trkpt>
      <trkpt lat="48.83213" lon="2.9447">
        <ele>142.6</ele>
        <time>2021-05-23T07:51:58Z</time>
      </trkpt>
      <trkpt lat="48.8321" lon="2.94472">
        <ele>142.5</ele>
        <time>2021-05-23T07:51:59Z</time>
      </trkpt>
      <trkpt lat="48.83207" lon="2.94472">
        <ele>142.5</ele>
        <time>2021-05-23T07:52:00Z</time>
      </trkpt>
      <trkpt lat="48.83203" lon="2.94473">
        <ele>142.4</ele>
        <time>2021-05-23T07:52:01Z</time>
      </trkpt>
      <trkpt lat="48.832" lon="2.94473">
        <ele>142.3</ele>
        <time>2021-05-23T07:52:02Z</time>
      </trkpt>
      <trkpt lat="48.83197" lon="2.94473">
        <ele>142.2</ele>
        <time>2021-05-23T07:52:03Z</time>
      </trkpt>
      <trkpt lat="48.83145" lon="2.94484">
        <ele>141.1</ele>
        <time>2021-05-23T07:52:17Z</time>
      </trkpt>
      <trkpt lat="48.83073" lon="2.94505">
        <ele>139.8</ele>
        <time>2021-05-23T07:52:35Z</time>
      </trkpt>
      <trkpt lat="48.8299" lon="2.94525">
        <ele>137.9</ele>
        <time>2021-05-23T07:52:53Z</time>
      </trkpt>
      <trkpt lat="48.82951" lon="2.94533">
        <ele>136.6</ele>
        <time>2021-05-23T07:53:02Z</time>
      </trkpt>
      <trkpt lat="48.82946" lon="2.94535">
        <ele>136.5</ele>
        <time>2021-05-23T07:53:03Z</time>
      </trkpt>
      <trkpt lat="48.82918" lon="2.94548">
        <ele>135.6</ele>
        <time>2021-05-23T07:53:09Z</time>
      </trkpt>
      <trkpt lat="48.82851" lon="2.94577">
        <ele>132.8</ele>
        <time>2021-05-23T07:53:22Z</time>
      </trkpt>
      <trkpt lat="48.82763" lon="2.94572">
        <ele>129.4</ele>
        <time>2021-05-23T07:53:39Z</time>
      </trkpt>
      <trkpt lat="48.82666" lon="2.94561">
        <ele>127.5</ele>
        <time>2021-05-23T07:53:58Z</time>
      </trkpt>
      <trkpt lat="48.82651" lon="2.94558">
        <ele>127.3</ele>
        <time>2021-05-23T07:54:02Z</time>
      </trkpt>
      <trkpt lat="48.82649" lon="2.94561">
        <ele>127.3</ele>
        <time>2021-05-23T07:54:03Z</time>
      </trkpt>
      <trkpt lat="48.82647" lon="2.94564">
        <ele>127.4</ele>
        <time>2021-05-23T07:54:04Z</time>
      </trkpt>
      <trkpt lat="48.82642" lon="2.94615">
        <ele>128</ele>
        <time>2021-05-23T07:54:15Z</time>
      </trkpt>
      <trkpt lat="48.82644" lon="2.94644">
        <ele>128.3</ele>
        <time>2021-05-23T07:54:21Z</time>
      </trkpt>
      <trkpt lat="48.82643" lon="2.94649">
        <ele>128.3</ele>
        <time>2021-05-23T07:54:22Z</time>
      </trkpt>
      <trkpt lat="48.82658" lon="2.94738">
        <ele>128.7</ele>
        <time>2021-05-23T07:54:38Z</time>
      </trkpt>
      <trkpt lat="48.82686" lon="2.94786">
        <ele>129.5</ele>
        <time>2021-05-23T07:54:50Z</time>
      </trkpt>
      <trkpt lat="48.82739" lon="2.94851">
        <ele>130.3</ele>
        <time>2021-05-23T07:55:08Z</time>
      </trkpt>
      <trkpt lat="48.82787" lon="2.94914">
        <ele>129.5</ele>
        <time>2021-05-23T07:55:24Z</time>
      </trkpt>
      <trkpt lat="48.8279" lon="2.94918">
        <ele>129.4</ele>
        <time>2021-05-23T07:55:25Z</time>
      </trkpt>
      <trkpt lat="48.82793" lon="2.94922">
        <ele>129.4</ele>
        <time>2021-05-23T07:55:26Z</time>
      </trkpt>
      <trkpt lat="48.82814" lon="2.94948">
        <ele>128.9</ele>
        <time>2021-05-23T07:55:33Z</time>
      </trkpt>
      <trkpt lat="48.82823" lon="2.94968">
        <ele>128.6</ele>
        <time>2021-05-23T07:55:38Z</time>
      </trkpt>
      <trkpt lat="48.82822" lon="2.9497">
        <ele>128.5</ele>
        <time>2021-05-23T07:55:39Z</time>
      </trkpt>
      <trkpt lat="48.8282" lon="2.9497">
        <ele>128.4</ele>
        <time>2021-05-23T07:55:40Z</time>
      </trkpt>
      <trkpt lat="48.82818" lon="2.94971">
        <ele>128.4</ele>
        <time>2021-05-23T07:55:41Z</time>
      </trkpt>
      <trkpt lat="48.82815" lon="2.94971">
        <ele>128.3</ele>
        <time>2021-05-23T07:55:42Z</time>
      </trkpt>
      <trkpt lat="48.82812" lon="2.94973">
        <ele>128.2</ele>
        <time>2021-05-23T07:55:43Z</time>
      </trkpt>
      <trkpt lat="48.82773" lon="2.94991">
        <ele>126.9</ele>
        <time>2021-05-23T07:55:52Z</time>
      </trkpt>
      <trkpt lat="48.82769" lon="2.94994">
        <ele>126.6</ele>
        <time>2021-05-23T07:55:53Z</time>
      </trkpt>
      <trkpt lat="48.82764" lon="2.94999">
        <ele>126.4</ele>
        <time>2021-05-23T07:55:54Z</time>
      </trkpt>
      <trkpt lat="48.82761" lon="2.95004">
        <ele>126.1</ele>
        <time>2021-05-23T07:55:55Z</time>
      </trkpt>
      <trkpt lat="48.82757" lon="2.9501">
        <ele>125.8</ele>
        <time>2021-05-23T07:55:56Z</time>
      </trkpt>
      <trkpt lat="48.82754" lon="2.95017">
        <ele>125.5</ele>
        <time>2021-05-23T07:55:57Z</time>
      </trkpt>
      <trkpt lat="48.82752" lon="2.95026">
        <ele>125.1</ele>
        <time>2021-05-23T07:55:58Z</time>
      </trkpt>
      <trkpt lat="48.82751" lon="2.95034">
        <ele>124.8</ele>
        <time>2021-05-23T07:55:59Z</time>
      </trkpt>
      <trkpt lat="48.82751" lon="2.95043">
        <ele>124.5</ele>
        <time>2021-05-23T07:56:00Z</time>
      </trkpt>
      <trkpt lat="48.82753" lon="2.95052">
        <ele>124.2</ele>
        <time>2021-05-23T07:56:01Z</time>
      </trkpt>
      <trkpt lat="48.82756" lon="2.9506">
        <ele>124.1</ele>
        <time>2021-05-23T07:56:02Z</time>
      </trkpt>
      <trkpt lat="48.82759" lon="2.95069">
        <ele>123.9</ele>
        <time>2021-05-23T07:56:03Z</time>
      </trkpt>
      <trkpt lat="48.82818" lon="2.95213">
        <ele>119.6</ele>
        <time>2021-05-23T07:56:18Z</time>
      </trkpt>
      <trkpt lat="48.82843" lon="2.95349">
        <ele>112.8</ele>
        <time>2021-05-23T07:56:29Z</time>
      </trkpt>
      <trkpt lat="48.82867" lon="2.95571">
        <ele>98.6</ele>
        <time>2021-05-23T07:56:44Z</time>
      </trkpt>
      <trkpt lat="48.82882" lon="2.9572">
        <ele>93.8</ele>
        <time>2021-05-23T07:56:54Z</time>
      </trkpt>
      <trkpt lat="48.82882" lon="2.95728">
        <ele>93.5</ele>
        <time>2021-05-23T07:56:55Z</time>
      </trkpt>
      <trkpt lat="48.8288" lon="2.95732">
        <ele>93.1</ele>
        <time>2021-05-23T07:56:56Z</time>
      </trkpt>
      <trkpt lat="48.8288" lon="2.95736">
        <ele>92.9</ele>
        <time>2021-05-23T07:56:57Z</time>
      </trkpt>
      <trkpt lat="48.8288" lon="2.9574">
        <ele>92.7</ele>
        <time>2021-05-23T07:56:58Z</time>
      </trkpt>
      <trkpt lat="48.8288" lon="2.95744">
        <ele>92.8</ele>
        <time>2021-05-23T07:56:59Z</time>
      </trkpt>
      <trkpt lat="48.82882" lon="2.95747">
        <ele>93</ele>
        <time>2021-05-23T07:57:00Z</time>
      </trkpt>
      <trkpt lat="48.82883" lon="2.95749">
        <ele>93.2</ele>
        <time>2021-05-23T07:57:01Z</time>
      </trkpt>
      <trkpt lat="48.82885" lon="2.95751">
        <ele>93.4</ele>
        <time>2021-05-23T07:57:02Z</time>
      </trkpt>
      <trkpt lat="48.82885" lon="2.95752">
        <ele>93.5</ele>
        <time>2021-05-23T07:57:03Z</time>
      </trkpt>
      <trkpt lat="48.8289" lon="2.95759">
        <ele>94.2</ele>
        <time>2021-05-23T07:57:08Z</time>
      </trkpt>
      <trkpt lat="48.82891" lon="2.9576">
        <ele>94.4</ele>
        <time>2021-05-23T07:57:09Z</time>
      </trkpt>
      <trkpt lat="48.82906" lon="2.95765">
        <ele>97.2</ele>
        <time>2021-05-23T07:57:20Z</time>
      </trkpt>
      <trkpt lat="48.82909" lon="2.95767">
        <ele>97.8</ele>
        <time>2021-05-23T07:57:22Z</time>
      </trkpt>
      <trkpt lat="48.82911" lon="2.95767">
        <ele>98.2</ele>
        <time>2021-05-23T07:57:23Z</time>
      </trkpt>
      <trkpt lat="48.8292" lon="2.95767">
        <ele>100</ele>
        <time>2021-05-23T07:57:29Z</time>
      </trkpt>
      <trkpt lat="48.82933" lon="2.95777">
        <ele>101.7</ele>
        <time>2021-05-23T07:57:41Z</time>
      </trkpt>
      <trkpt lat="48.82936" lon="2.9578">
        <ele>102.3</ele>
        <time>2021-05-23T07:57:45Z</time>
      </trkpt>
      <trkpt lat="48.82939" lon="2.95783">
        <ele>102.6</ele>
        <time>2021-05-23T07:57:47Z</time>
      </trkpt>
      <trkpt lat="48.82949" lon="2.95795">
        <ele>103.7</ele>
        <time>2021-05-23T07:57:56Z</time>
      </trkpt>
      <trkpt lat="48.82952" lon="2.95799">
        <ele>104.1</ele>
        <time>2021-05-23T07:57:58Z</time>
      </trkpt>
      <trkpt lat="48.82964" lon="2.95816">
        <ele>105.6</ele>
        <time>2021-05-23T07:58:10Z</time>
      </trkpt>
      <trkpt lat="48.82968" lon="2.95819">
        <ele>106.1</ele>
        <time>2021-05-23T07:58:13Z</time>
      </trkpt>
      <trkpt lat="48.82969" lon="2.9582">
        <ele>106.2</ele>
        <time>2021-05-23T07:58:14Z</time>
      </trkpt>
      <trkpt lat="48.82973" lon="2.95823">
        <ele>106.8</ele>
        <time>2021-05-23T07:58:17Z</time>
      </trkpt>
      <trkpt lat="48.82988" lon="2.95834">
        <ele>109</ele>
        <time>2021-05-23T07:58:28Z</time>
      </trkpt>
      <trkpt lat="48.83008" lon="2.9584">
        <ele>112</ele>
        <time>2021-05-23T07:58:41Z</time>
      </trkpt>
      <trkpt lat="48.83024" lon="2.95842">
        <ele>114.3</ele>
        <time>2021-05-23T07:58:52Z</time>
      </trkpt>
      <trkpt lat="48.83048" lon="2.95844">
        <ele>117.5</ele>
        <time>2021-05-23T07:59:07Z</time>
      </trkpt>
      <trkpt lat="48.83054" lon="2.95844">
        <ele>118.3</ele>
        <time>2021-05-23T07:59:12Z</time>
      </trkpt>
      <trkpt lat="48.83075" lon="2.95842">
        <ele>121</ele>
        <time>2021-05-23T07:59:26Z</time>
      </trkpt>
      <trkpt lat="48.83094" lon="2.95837">
        <ele>123.1</ele>
        <time>2021-05-23T07:59:39Z</time>
      </trkpt>
      <trkpt lat="48.83114" lon="2.95838">
        <ele>125.1</ele>
        <time>2021-05-23T07:59:53Z</time>
      </trkpt>
      <trkpt lat="48.83136" lon="2.95837">
        <ele>127.1</ele>
        <time>2021-05-23T08:00:06Z</time>
      </trkpt>
      <trkpt lat="48.83159" lon="2.95837">
        <ele>129.3</ele>
        <time>2021-05-23T08:00:20Z</time>
      </trkpt>
      <trkpt lat="48.83171" lon="2.95837">
        <ele>130.3</ele>
        <time>2021-05-23T08:00:33Z</time>
      </trkpt>
      <trkpt lat="48.83172" lon="2.95836">
        <ele>130.3</ele>
        <time>2021-05-23T08:00:54Z</time>
      </trkpt>
      <trkpt lat="48.83173" lon="2.95834">
        <ele>130.3</ele>
        <time>2021-05-23T08:01:17Z</time>
      </trkpt>
      <trkpt lat="48.83173" lon="2.95833">
        <ele>130.3</ele>
        <time>2021-05-23T08:01:45Z</time>
      </trkpt>
      <trkpt lat="48.83173" lon="2.95834">
        <ele>130.3</ele>
        <time>2021-05-23T08:02:08Z</time>
      </trkpt>
      <trkpt lat="48.83173" lon="2.95835">
        <ele>130.3</ele>
        <time>2021-05-23T08:02:38Z</time>
      </trkpt>
      <trkpt lat="48.83174" lon="2.95835">
        <ele>130.4</ele>
        <time>2021-05-23T08:03:01Z</time>
      </trkpt>
      <trkpt lat="48.83174" lon="2.95836">
        <ele>130.4</ele>
        <time>2021-05-23T08:03:28Z</time>
      </trkpt>
      <trkpt lat="48.83174" lon="2.95835">
        <ele>130.4</ele>
        <time>2021-05-23T08:03:52Z</time>
      </trkpt>
      <trkpt lat="48.83174" lon="2.95835">
        <ele>130.4</ele>
        <time>2021-05-23T08:03:55Z</time>
      </trkpt>
      <trkpt lat="48.83175" lon="2.95836">
        <ele>130.5</ele>
        <time>2021-05-23T08:03:56Z</time>
      </trkpt>
      <trkpt lat="48.83178" lon="2.95838">
        <ele>130.6</ele>
        <time>2021-05-23T08:03:58Z</time>
      </trkpt>
      <trkpt lat="48.83179" lon="2.95837">
        <ele>130.7</ele>
        <time>2021-05-23T08:03:59Z</time>
      </trkpt>
      <trkpt lat="48.83181" lon="2.95837">
        <ele>130.8</ele>
        <time>2021-05-23T08:04:00Z</time>
      </trkpt>
      <trkpt lat="48.83194" lon="2.95841">
        <ele>131.5</ele>
        <time>2021-05-23T08:04:08Z</time>
      </trkpt>
      <trkpt lat="48.83195" lon="2.95843">
        <ele>131.6</ele>
        <time>2021-05-23T08:04:09Z</time>
      </trkpt>
      <trkpt lat="48.83195" lon="2.95846">
        <ele>131.7</ele>
        <time>2021-05-23T08:04:10Z</time>
      </trkpt>
      <trkpt lat="48.83195" lon="2.95849">
        <ele>131.7</ele>
        <time>2021-05-23T08:04:11Z</time>
      </trkpt>
      <trkpt lat="48.83195" lon="2.95852">
        <ele>131.8</ele>
        <time>2021-05-23T08:04:12Z</time>
      </trkpt>
      <trkpt lat="48.83194" lon="2.95855">
        <ele>131.8</ele>
        <time>2021-05-23T08:04:13Z</time>
      </trkpt>
      <trkpt lat="48.83183" lon="2.95923">
        <ele>132.9</ele>
        <time>2021-05-23T08:04:29Z</time>
      </trkpt>
      <trkpt lat="48.83171" lon="2.95992">
        <ele>133.1</ele>
        <time>2021-05-23T08:04:43Z</time>
      </trkpt>
      <trkpt lat="48.83144" lon="2.96054">
        <ele>131.5</ele>
        <time>2021-05-23T08:04:55Z</time>
      </trkpt>
      <trkpt lat="48.83143" lon="2.9606">
        <ele>131.5</ele>
        <time>2021-05-23T08:04:56Z</time>
      </trkpt>
      <trkpt lat="48.83139" lon="2.96149">
        <ele>130.5</ele>
        <time>2021-05-23T08:05:09Z</time>
      </trkpt>
      <trkpt lat="48.83132" lon="2.96242">
        <ele>128.1</ele>
        <time>2021-05-23T08:05:22Z</time>
      </trkpt>
      <trkpt lat="48.8313" lon="2.9625">
        <ele>127.8</ele>
        <time>2021-05-23T08:05:23Z</time>
      </trkpt>
      <trkpt lat="48.8312" lon="2.96306">
        <ele>126</ele>
        <time>2021-05-23T08:05:30Z</time>
      </trkpt>
      <trkpt lat="48.83117" lon="2.96313">
        <ele>125.6</ele>
        <time>2021-05-23T08:05:31Z</time>
      </trkpt>
      <trkpt lat="48.83111" lon="2.96329">
        <ele>124.6</ele>
        <time>2021-05-23T08:05:33Z</time>
      </trkpt>
      <trkpt lat="48.83108" lon="2.96337">
        <ele>124.3</ele>
        <time>2021-05-23T08:05:34Z</time>
      </trkpt>
      <trkpt lat="48.83107" lon="2.96345">
        <ele>124</ele>
        <time>2021-05-23T08:05:35Z</time>
      </trkpt>
      <trkpt lat="48.83106" lon="2.96352">
        <ele>123.9</ele>
        <time>2021-05-23T08:05:36Z</time>
      </trkpt>
      <trkpt lat="48.83107" lon="2.9636">
        <ele>123.9</ele>
        <time>2021-05-23T08:05:37Z</time>
      </trkpt>
      <trkpt lat="48.83108" lon="2.96367">
        <ele>124</ele>
        <time>2021-05-23T08:05:38Z</time>
      </trkpt>
      <trkpt lat="48.83109" lon="2.96375">
        <ele>124</ele>
        <time>2021-05-23T08:05:39Z</time>
      </trkpt>
      <trkpt lat="48.8311" lon="2.96406">
        <ele>124</ele>
        <time>2021-05-23T08:05:43Z</time>
      </trkpt>
      <trkpt lat="48.83109" lon="2.96431">
        <ele>123.4</ele>
        <time>2021-05-23T08:05:46Z</time>
      </trkpt>
      <trkpt lat="48.83109" lon="2.9644">
        <ele>123.1</ele>
        <time>2021-05-23T08:05:47Z</time>
      </trkpt>
      <trkpt lat="48.83109" lon="2.96449">
        <ele>122.8</ele>
        <time>2021-05-23T08:05:48Z</time>
      </trkpt>
      <trkpt lat="48.83108" lon="2.96457">
        <ele>122.6</ele>
        <time>2021-05-23T08:05:49Z</time>
      </trkpt>
      <trkpt lat="48.83108" lon="2.96465">
        <ele>122.4</ele>
        <time>2021-05-23T08:05:50Z</time>
      </trkpt>
      <trkpt lat="48.83108" lon="2.96481">
        <ele>121.9</ele>
        <time>2021-05-23T08:05:52Z</time>
      </trkpt>
      <trkpt lat="48.83105" lon="2.96542">
        <ele>122</ele>
        <time>2021-05-23T08:06:02Z</time>
      </trkpt>
      <trkpt lat="48.83101" lon="2.96561">
        <ele>122</ele>
        <time>2021-05-23T08:06:05Z</time>
      </trkpt>
      <trkpt lat="48.83099" lon="2.96567">
        <ele>122</ele>
        <time>2021-05-23T08:06:06Z</time>
      </trkpt>
      <trkpt lat="48.83095" lon="2.96581">
        <ele>121.9</ele>
        <time>2021-05-23T08:06:08Z</time>
      </trkpt>
      <trkpt lat="48.83091" lon="2.96594">
        <ele>121.9</ele>
        <time>2021-05-23T08:06:10Z</time>
      </trkpt>
      <trkpt lat="48.83091" lon="2.966">
        <ele>122</ele>
        <time>2021-05-23T08:06:11Z</time>
      </trkpt>
      <trkpt lat="48.83091" lon="2.96605">
        <ele>122.2</ele>
        <time>2021-05-23T08:06:12Z</time>
      </trkpt>
      <trkpt lat="48.83092" lon="2.9661">
        <ele>122.3</ele>
        <time>2021-05-23T08:06:13Z</time>
      </trkpt>
      <trkpt lat="48.83093" lon="2.96613">
        <ele>122.5</ele>
        <time>2021-05-23T08:06:15Z</time>
      </trkpt>
      <trkpt lat="48.83104" lon="2.96631">
        <ele>123.6</ele>
        <time>2021-05-23T08:06:23Z</time>
      </trkpt>
      <trkpt lat="48.83106" lon="2.96638">
        <ele>123.8</ele>
        <time>2021-05-23T08:06:25Z</time>
      </trkpt>
      <trkpt lat="48.83105" lon="2.96642">
        <ele>123.9</ele>
        <time>2021-05-23T08:06:26Z</time>
      </trkpt>
      <trkpt lat="48.83106" lon="2.96647">
        <ele>124</ele>
        <time>2021-05-23T08:06:27Z</time>
      </trkpt>
      <trkpt lat="48.83106" lon="2.96658">
        <ele>124.2</ele>
        <time>2021-05-23T08:06:30Z</time>
      </trkpt>
      <trkpt lat="48.8311" lon="2.96705">
        <ele>125.2</ele>
        <time>2021-05-23T08:06:41Z</time>
      </trkpt>
      <trkpt lat="48.83117" lon="2.96768">
        <ele>126.9</ele>
        <time>2021-05-23T08:06:54Z</time>
      </trkpt>
      <trkpt lat="48.83115" lon="2.96774">
        <ele>126.9</ele>
        <time>2021-05-23T08:06:55Z</time>
      </trkpt>
      <trkpt lat="48.83107" lon="2.96846">
        <ele>128.2</ele>
        <time>2021-05-23T08:07:07Z</time>
      </trkpt>
      <trkpt lat="48.83109" lon="2.96872">
        <ele>128.4</ele>
        <time>2021-05-23T08:07:11Z</time>
      </trkpt>
      <trkpt lat="48.8311" lon="2.96884">
        <ele>128.5</ele>
        <time>2021-05-23T08:07:13Z</time>
      </trkpt>
      <trkpt lat="48.8311" lon="2.9689">
        <ele>128.5</ele>
        <time>2021-05-23T08:07:14Z</time>
      </trkpt>
      <trkpt lat="48.83116" lon="2.9694">
        <ele>129.1</ele>
        <time>2021-05-23T08:07:22Z</time>
      </trkpt>
      <trkpt lat="48.83117" lon="2.96947">
        <ele>129.2</ele>
        <time>2021-05-23T08:07:23Z</time>
      </trkpt>
      <trkpt lat="48.83119" lon="2.9696">
        <ele>129.4</ele>
        <time>2021-05-23T08:07:25Z</time>
      </trkpt>
      <trkpt lat="48.83122" lon="2.97001">
        <ele>129.8</ele>
        <time>2021-05-23T08:07:32Z</time>
      </trkpt>
      <trkpt lat="48.83121" lon="2.97007">
        <ele>129.6</ele>
        <time>2021-05-23T08:07:33Z</time>
      </trkpt>
      <trkpt lat="48.83099" lon="2.971">
        <ele>124.6</ele>
        <time>2021-05-23T08:07:44Z</time>
      </trkpt>
      <trkpt lat="48.83096" lon="2.97107">
        <ele>124</ele>
        <time>2021-05-23T08:07:45Z</time>
      </trkpt>
      <trkpt lat="48.83093" lon="2.97114">
        <ele>123.3</ele>
        <time>2021-05-23T08:07:46Z</time>
      </trkpt>
      <trkpt lat="48.83089" lon="2.9712">
        <ele>122.7</ele>
        <time>2021-05-23T08:07:47Z</time>
      </trkpt>
      <trkpt lat="48.83085" lon="2.97124">
        <ele>122.2</ele>
        <time>2021-05-23T08:07:48Z</time>
      </trkpt>
      <trkpt lat="48.83081" lon="2.97127">
        <ele>121.7</ele>
        <time>2021-05-23T08:07:49Z</time>
      </trkpt>
      <trkpt lat="48.83078" lon="2.97129">
        <ele>121.1</ele>
        <time>2021-05-23T08:07:50Z</time>
      </trkpt>
      <trkpt lat="48.83074" lon="2.97131">
        <ele>120.6</ele>
        <time>2021-05-23T08:07:51Z</time>
      </trkpt>
      <trkpt lat="48.83058" lon="2.97149">
        <ele>117.9</ele>
        <time>2021-05-23T08:07:59Z</time>
      </trkpt>
      <trkpt lat="48.83035" lon="2.9717">
        <ele>114.2</ele>
        <time>2021-05-23T08:08:08Z</time>
      </trkpt>
      <trkpt lat="48.83033" lon="2.97171">
        <ele>113.9</ele>
        <time>2021-05-23T08:08:09Z</time>
      </trkpt>
      <trkpt lat="48.83011" lon="2.9719">
        <ele>111.1</ele>
        <time>2021-05-23T08:08:19Z</time>
      </trkpt>
      <trkpt lat="48.83007" lon="2.97192">
        <ele>110.5</ele>
        <time>2021-05-23T08:08:20Z</time>
      </trkpt>
      <trkpt lat="48.83002" lon="2.97195">
        <ele>110</ele>
        <time>2021-05-23T08:08:21Z</time>
      </trkpt>
      <trkpt lat="48.82998" lon="2.97199">
        <ele>109.4</ele>
        <time>2021-05-23T08:08:22Z</time>
      </trkpt>
      <trkpt lat="48.82975" lon="2.97208">
        <ele>107.5</ele>
        <time>2021-05-23T08:08:30Z</time>
      </trkpt>
      <trkpt lat="48.82973" lon="2.9721">
        <ele>107.4</ele>
        <time>2021-05-23T08:08:42Z</time>
      </trkpt>
      <trkpt lat="48.82969" lon="2.97211">
        <ele>107.1</ele>
        <time>2021-05-23T08:08:57Z</time>
      </trkpt>
      <trkpt lat="48.82969" lon="2.97211">
        <ele>107.1</ele>
        <time>2021-05-23T08:08:59Z</time>
      </trkpt>
      <trkpt lat="48.82968" lon="2.97211">
        <ele>107</ele>
        <time>2021-05-23T08:09:00Z</time>
      </trkpt>
      <trkpt lat="48.82966" lon="2.97211">
        <ele>106.8</ele>
        <time>2021-05-23T08:09:01Z</time>
      </trkpt>
      <trkpt lat="48.82964" lon="2.97211">
        <ele>106.6</ele>
        <time>2021-05-23T08:09:02Z</time>
      </trkpt>
      <trkpt lat="48.82961" lon="2.97212">
        <ele>106.4</ele>
        <time>2021-05-23T08:09:03Z</time>
      </trkpt>
      <trkpt lat="48.82958" lon="2.97213">
        <ele>106.2</ele>
        <time>2021-05-23T08:09:04Z</time>
      </trkpt>
      <trkpt lat="48.8293" lon="2.97215">
        <ele>103.8</ele>
        <time>2021-05-23T08:09:17Z</time>
      </trkpt>
      <trkpt lat="48.829" lon="2.97225">
        <ele>101</ele>
        <time>2021-05-23T08:09:27Z</time>
      </trkpt>
      <trkpt lat="48.82892" lon="2.97231">
        <ele>100.2</ele>
        <time>2021-05-23T08:09:29Z</time>
      </trkpt>
      <trkpt lat="48.82888" lon="2.97234">
        <ele>99.9</ele>
        <time>2021-05-23T08:09:30Z</time>
      </trkpt>
      <trkpt lat="48.82886" lon="2.97238">
        <ele>99.6</ele>
        <time>2021-05-23T08:09:31Z</time>
      </trkpt>
      <trkpt lat="48.82883" lon="2.97242">
        <ele>99.3</ele>
        <time>2021-05-23T08:09:32Z</time>
      </trkpt>
      <trkpt lat="48.82882" lon="2.97245">
        <ele>99.1</ele>
        <time>2021-05-23T08:09:33Z</time>
      </trkpt>
      <trkpt lat="48.82881" lon="2.97248">
        <ele>99</ele>
        <time>2021-05-23T08:09:34Z</time>
      </trkpt>
      <trkpt lat="48.82877" lon="2.97251">
        <ele>98.7</ele>
        <time>2021-05-23T08:09:47Z</time>
      </trkpt>
      <trkpt lat="48.82872" lon="2.97266">
        <ele>98</ele>
        <time>2021-05-23T08:10:02Z</time>
      </trkpt>
      <trkpt lat="48.82871" lon="2.97268">
        <ele>97.9</ele>
        <time>2021-05-23T08:10:03Z</time>
      </trkpt>
      <trkpt lat="48.82871" lon="2.9727">
        <ele>97.8</ele>
        <time>2021-05-23T08:10:04Z</time>
      </trkpt>
      <trkpt lat="48.8287" lon="2.97272">
        <ele>97.7</ele>
        <time>2021-05-23T08:10:05Z</time>
      </trkpt>
      <trkpt lat="48.82868" lon="2.97278">
        <ele>97.4</ele>
        <time>2021-05-23T08:10:09Z</time>
      </trkpt>
      <trkpt lat="48.82868" lon="2.9728">
        <ele>97.3</ele>
        <time>2021-05-23T08:10:10Z</time>
      </trkpt>
      <trkpt lat="48.82867" lon="2.97283">
        <ele>97.2</ele>
        <time>2021-05-23T08:10:11Z</time>
      </trkpt>
      <trkpt lat="48.82865" lon="2.97287">
        <ele>97</ele>
        <time>2021-05-23T08:10:12Z</time>
      </trkpt>
      <trkpt lat="48.82863" lon="2.97292">
        <ele>96.7</ele>
        <time>2021-05-23T08:10:13Z</time>
      </trkpt>
      <trkpt lat="48.82862" lon="2.97297">
        <ele>96.4</ele>
        <time>2021-05-23T08:10:14Z</time>
      </trkpt>
      <trkpt lat="48.8284" lon="2.97346">
        <ele>94</ele>
        <time>2021-05-23T08:10:25Z</time>
      </trkpt>
      <trkpt lat="48.82837" lon="2.9735">
        <ele>93.8</ele>
        <time>2021-05-23T08:10:26Z</time>
      </trkpt>
      <trkpt lat="48.82834" lon="2.97356">
        <ele>93.6</ele>
        <time>2021-05-23T08:10:27Z</time>
      </trkpt>
      <trkpt lat="48.82827" lon="2.97367">
        <ele>92.9</ele>
        <time>2021-05-23T08:10:29Z</time>
      </trkpt>
      <trkpt lat="48.82824" lon="2.97373">
        <ele>92.6</ele>
        <time>2021-05-23T08:10:30Z</time>
      </trkpt>
      <trkpt lat="48.82821" lon="2.97378">
        <ele>92.3</ele>
        <time>2021-05-23T08:10:31Z</time>
      </trkpt>
      <trkpt lat="48.82819" lon="2.97381">
        <ele>92</ele>
        <time>2021-05-23T08:10:32Z</time>
      </trkpt>
      <trkpt lat="48.82817" lon="2.97383">
        <ele>91.7</ele>
        <time>2021-05-23T08:10:33Z</time>
      </trkpt>
      <trkpt lat="48.82815" lon="2.97384">
        <ele>91.5</ele>
        <time>2021-05-23T08:10:34Z</time>
      </trkpt>
      <trkpt lat="48.82813" lon="2.97384">
        <ele>91.1</ele>
        <time>2021-05-23T08:10:35Z</time>
      </trkpt>
      <trkpt lat="48.82792" lon="2.97371">
        <ele>87.7</ele>
        <time>2021-05-23T08:10:42Z</time>
      </trkpt>
      <trkpt lat="48.82789" lon="2.97368">
        <ele>87.1</ele>
        <time>2021-05-23T08:10:43Z</time>
      </trkpt>
      <trkpt lat="48.82785" lon="2.97363">
        <ele>86.4</ele>
        <time>2021-05-23T08:10:44Z</time>
      </trkpt>
      <trkpt lat="48.82781" lon="2.9736">
        <ele>85.7</ele>
        <time>2021-05-23T08:10:45Z</time>
      </trkpt>
      <trkpt lat="48.82777" lon="2.97359">
        <ele>85</ele>
        <time>2021-05-23T08:10:46Z</time>
      </trkpt>
      <trkpt lat="48.82773" lon="2.9736">
        <ele>84.4</ele>
        <time>2021-05-23T08:10:47Z</time>
      </trkpt>
      <trkpt lat="48.82769" lon="2.97362">
        <ele>83.9</ele>
        <time>2021-05-23T08:10:48Z</time>
      </trkpt>
      <trkpt lat="48.82764" lon="2.97365">
        <ele>83.2</ele>
        <time>2021-05-23T08:10:49Z</time>
      </trkpt>
      <trkpt lat="48.82759" lon="2.97368">
        <ele>82.6</ele>
        <time>2021-05-23T08:10:50Z</time>
      </trkpt>
      <trkpt lat="48.82742" lon="2.9738">
        <ele>81.3</ele>
        <time>2021-05-23T08:10:53Z</time>
      </trkpt>
      <trkpt lat="48.82676" lon="2.9743">
        <ele>80.4</ele>
        <time>2021-05-23T08:11:03Z</time>
      </trkpt>
      <trkpt lat="48.82665" lon="2.97442">
        <ele>80.8</ele>
        <time>2021-05-23T08:11:05Z</time>
      </trkpt>
      <trkpt lat="48.82657" lon="2.97454">
        <ele>81.6</ele>
        <time>2021-05-23T08:11:07Z</time>
      </trkpt>
      <trkpt lat="48.82653" lon="2.9746">
        <ele>82</ele>
        <time>2021-05-23T08:11:08Z</time>
      </trkpt>
      <trkpt lat="48.82651" lon="2.97465">
        <ele>82.4</ele>
        <time>2021-05-23T08:11:09Z</time>
      </trkpt>
      <trkpt lat="48.82649" lon="2.97469">
        <ele>82.6</ele>
        <time>2021-05-23T08:11:10Z</time>
      </trkpt>
      <trkpt lat="48.82647" lon="2.97472">
        <ele>82.8</ele>
        <time>2021-05-23T08:11:11Z</time>
      </trkpt>
      <trkpt lat="48.82624" lon="2.97504">
        <ele>84.8</ele>
        <time>2021-05-23T08:11:23Z</time>
      </trkpt>
      <trkpt lat="48.82607" lon="2.97528">
        <ele>86.7</ele>
        <time>2021-05-23T08:11:33Z</time>
      </trkpt>
      <trkpt lat="48.82582" lon="2.9757">
        <ele>89.9</ele>
        <time>2021-05-23T08:11:46Z</time>
      </trkpt>
      <trkpt lat="48.82564" lon="2.97582">
        <ele>91.2</ele>
        <time>2021-05-23T08:11:54Z</time>
      </trkpt>
      <trkpt lat="48.82563" lon="2.97581">
        <ele>91</ele>
        <time>2021-05-23T08:11:55Z</time>
      </trkpt>
      <trkpt lat="48.82562" lon="2.97579">
        <ele>90.9</ele>
        <time>2021-05-23T08:11:56Z</time>
      </trkpt>
      <trkpt lat="48.8256" lon="2.97578">
        <ele>90.9</ele>
        <time>2021-05-23T08:11:57Z</time>
      </trkpt>
      <trkpt lat="48.82558" lon="2.97578">
        <ele>90.9</ele>
        <time>2021-05-23T08:11:58Z</time>
      </trkpt>
      <trkpt lat="48.82555" lon="2.97578">
        <ele>90.9</ele>
        <time>2021-05-23T08:11:59Z</time>
      </trkpt>
      <trkpt lat="48.82552" lon="2.97579">
        <ele>91</ele>
        <time>2021-05-23T08:12:00Z</time>
      </trkpt>
      <trkpt lat="48.82549" lon="2.97579">
        <ele>91.1</ele>
        <time>2021-05-23T08:12:01Z</time>
      </trkpt>
      <trkpt lat="48.82517" lon="2.97581">
        <ele>91.6</ele>
        <time>2021-05-23T08:12:11Z</time>
      </trkpt>
      <trkpt lat="48.82503" lon="2.9757">
        <ele>91.1</ele>
        <time>2021-05-23T08:12:15Z</time>
      </trkpt>
      <trkpt lat="48.82482" lon="2.97559">
        <ele>91</ele>
        <time>2021-05-23T08:12:20Z</time>
      </trkpt>
      <trkpt lat="48.82477" lon="2.97559">
        <ele>91.1</ele>
        <time>2021-05-23T08:12:21Z</time>
      </trkpt>
      <trkpt lat="48.82473" lon="2.97558">
        <ele>91.1</ele>
        <time>2021-05-23T08:12:22Z</time>
      </trkpt>
      <trkpt lat="48.82469" lon="2.97556">
        <ele>91.1</ele>
        <time>2021-05-23T08:12:23Z</time>
      </trkpt>
      <trkpt lat="48.82466" lon="2.97553">
        <ele>91</ele>
        <time>2021-05-23T08:12:24Z</time>
      </trkpt>
      <trkpt lat="48.82462" lon="2.97549">
        <ele>90.9</ele>
        <time>2021-05-23T08:12:25Z</time>
      </trkpt>
      <trkpt lat="48.82436" lon="2.97522">
        <ele>89.9</ele>
        <time>2021-05-23T08:12:32Z</time>
      </trkpt>
      <trkpt lat="48.82425" lon="2.97512">
        <ele>89.5</ele>
        <time>2021-05-23T08:12:35Z</time>
      </trkpt>
      <trkpt lat="48.82403" lon="2.97496">
        <ele>88.9</ele>
        <time>2021-05-23T08:12:41Z</time>
      </trkpt>
      <trkpt lat="48.82369" lon="2.97476">
        <ele>88.3</ele>
        <time>2021-05-23T08:12:49Z</time>
      </trkpt>
      <trkpt lat="48.82335" lon="2.9746">
        <ele>88.1</ele>
        <time>2021-05-23T08:12:58Z</time>
      </trkpt>
      <trkpt lat="48.82317" lon="2.97437">
        <ele>88.1</ele>
        <time>2021-05-23T08:13:03Z</time>
      </trkpt>
      <trkpt lat="48.82314" lon="2.97432">
        <ele>88.1</ele>
        <time>2021-05-23T08:13:04Z</time>
      </trkpt>
      <trkpt lat="48.82309" lon="2.97428">
        <ele>88.3</ele>
        <time>2021-05-23T08:13:05Z</time>
      </trkpt>
      <trkpt lat="48.82296" lon="2.97417">
        <ele>88.7</ele>
        <time>2021-05-23T08:13:08Z</time>
      </trkpt>
      <trkpt lat="48.8227" lon="2.97384">
        <ele>89</ele>
        <time>2021-05-23T08:13:16Z</time>
      </trkpt>
      <trkpt lat="48.82268" lon="2.9738">
        <ele>88.9</ele>
        <time>2021-05-23T08:13:17Z</time>
      </trkpt>
      <trkpt lat="48.82236" lon="2.97347">
        <ele>89.5</ele>
        <time>2021-05-23T08:13:24Z</time>
      </trkpt>
      <trkpt lat="48.82218" lon="2.97323">
        <ele>89.3</ele>
        <time>2021-05-23T08:13:29Z</time>
      </trkpt>
      <trkpt lat="48.82213" lon="2.97318">
        <ele>89.4</ele>
        <time>2021-05-23T08:13:30Z</time>
      </trkpt>
      <trkpt lat="48.82204" lon="2.9731">
        <ele>89.6</ele>
        <time>2021-05-23T08:13:32Z</time>
      </trkpt>
      <trkpt lat="48.822" lon="2.97305">
        <ele>89.6</ele>
        <time>2021-05-23T08:13:33Z</time>
      </trkpt>
      <trkpt lat="48.82195" lon="2.97301">
        <ele>89.7</ele>
        <time>2021-05-23T08:13:34Z</time>
      </trkpt>
      <trkpt lat="48.8219" lon="2.97297">
        <ele>89.9</ele>
        <time>2021-05-23T08:13:35Z</time>
      </trkpt>
      <trkpt lat="48.82186" lon="2.97293">
        <ele>90.1</ele>
        <time>2021-05-23T08:13:36Z</time>
      </trkpt>
      <trkpt lat="48.82182" lon="2.97289">
        <ele>90.2</ele>
        <time>2021-05-23T08:13:37Z</time>
      </trkpt>
      <trkpt lat="48.82177" lon="2.97286">
        <ele>90.4</ele>
        <time>2021-05-23T08:13:38Z</time>
      </trkpt>
      <trkpt lat="48.8214" lon="2.97256">
        <ele>92.1</ele>
        <time>2021-05-23T08:13:46Z</time>
      </trkpt>
      <trkpt lat="48.82107" lon="2.97227">
        <ele>92.5</ele>
        <time>2021-05-23T08:13:55Z</time>
      </trkpt>
      <trkpt lat="48.82072" lon="2.97206">
        <ele>92.8</ele>
        <time>2021-05-23T08:14:05Z</time>
      </trkpt>
      <trkpt lat="48.82038" lon="2.97174">
        <ele>91.7</ele>
        <time>2021-05-23T08:14:15Z</time>
      </trkpt>
      <trkpt lat="48.82003" lon="2.97138">
        <ele>90.4</ele>
        <time>2021-05-23T08:14:26Z</time>
      </trkpt>
      <trkpt lat="48.81953" lon="2.97108">
        <ele>89.9</ele>
        <time>2021-05-23T08:14:38Z</time>
      </trkpt>
      <trkpt lat="48.81948" lon="2.97107">
        <ele>90</ele>
        <time>2021-05-23T08:14:39Z</time>
      </trkpt>
      <trkpt lat="48.81923" lon="2.971">
        <ele>90.6</ele>
        <time>2021-05-23T08:14:44Z</time>
      </trkpt>
      <trkpt lat="48.81906" lon="2.97096">
        <ele>90.8</ele>
        <time>2021-05-23T08:14:48Z</time>
      </trkpt>
      <trkpt lat="48.81903" lon="2.97095">
        <ele>90.8</ele>
        <time>2021-05-23T08:14:49Z</time>
      </trkpt>
      <trkpt lat="48.81901" lon="2.97094">
        <ele>90.8</ele>
        <time>2021-05-23T08:14:50Z</time>
      </trkpt>
      <trkpt lat="48.81898" lon="2.97092">
        <ele>90.7</ele>
        <time>2021-05-23T08:14:51Z</time>
      </trkpt>
      <trkpt lat="48.81894" lon="2.97091">
        <ele>90.7</ele>
        <time>2021-05-23T08:14:52Z</time>
      </trkpt>
      <trkpt lat="48.81891" lon="2.9709">
        <ele>90.7</ele>
        <time>2021-05-23T08:14:53Z</time>
      </trkpt>
      <trkpt lat="48.81888" lon="2.97086">
        <ele>90.5</ele>
        <time>2021-05-23T08:14:54Z</time>
      </trkpt>
      <trkpt lat="48.81886" lon="2.97082">
        <ele>90.3</ele>
        <time>2021-05-23T08:14:55Z</time>
      </trkpt>
      <trkpt lat="48.81875" lon="2.97059">
        <ele>88.9</ele>
        <time>2021-05-23T08:14:59Z</time>
      </trkpt>
      <trkpt lat="48.81868" lon="2.97039">
        <ele>87.6</ele>
        <time>2021-05-23T08:15:02Z</time>
      </trkpt>
      <trkpt lat="48.81866" lon="2.97032">
        <ele>87.1</ele>
        <time>2021-05-23T08:15:03Z</time>
      </trkpt>
      <trkpt lat="48.81864" lon="2.97024">
        <ele>86.6</ele>
        <time>2021-05-23T08:15:04Z</time>
      </trkpt>
      <trkpt lat="48.81863" lon="2.97017">
        <ele>86.1</ele>
        <time>2021-05-23T08:15:05Z</time>
      </trkpt>
      <trkpt lat="48.81861" lon="2.97009">
        <ele>85.6</ele>
        <time>2021-05-23T08:15:06Z</time>
      </trkpt>
      <trkpt lat="48.81854" lon="2.96989">
        <ele>84</ele>
        <time>2021-05-23T08:15:09Z</time>
      </trkpt>
      <trkpt lat="48.8185" lon="2.96983">
        <ele>83.6</ele>
        <time>2021-05-23T08:15:10Z</time>
      </trkpt>
      <trkpt lat="48.81841" lon="2.96972">
        <ele>82.9</ele>
        <time>2021-05-23T08:15:12Z</time>
      </trkpt>
      <trkpt lat="48.81837" lon="2.96968">
        <ele>82.6</ele>
        <time>2021-05-23T08:15:13Z</time>
      </trkpt>
      <trkpt lat="48.81833" lon="2.96965">
        <ele>82.5</ele>
        <time>2021-05-23T08:15:14Z</time>
      </trkpt>
      <trkpt lat="48.81828" lon="2.96963">
        <ele>82.5</ele>
        <time>2021-05-23T08:15:15Z</time>
      </trkpt>
      <trkpt lat="48.81823" lon="2.96961">
        <ele>82.5</ele>
        <time>2021-05-23T08:15:16Z</time>
      </trkpt>
      <trkpt lat="48.81818" lon="2.9696">
        <ele>82.6</ele>
        <time>2021-05-23T08:15:17Z</time>
      </trkpt>
      <trkpt lat="48.81794" lon="2.96955">
        <ele>83</ele>
        <time>2021-05-23T08:15:22Z</time>
      </trkpt>
      <trkpt lat="48.81789" lon="2.96953">
        <ele>83</ele>
        <time>2021-05-23T08:15:23Z</time>
      </trkpt>
      <trkpt lat="48.81784" lon="2.96952">
        <ele>83.1</ele>
        <time>2021-05-23T08:15:24Z</time>
      </trkpt>
      <trkpt lat="48.81775" lon="2.96948">
        <ele>83.1</ele>
        <time>2021-05-23T08:15:26Z</time>
      </trkpt>
      <trkpt lat="48.81772" lon="2.96946">
        <ele>83.1</ele>
        <time>2021-05-23T08:15:27Z</time>
      </trkpt>
      <trkpt lat="48.8174" lon="2.9693">
        <ele>83</ele>
        <time>2021-05-23T08:15:36Z</time>
      </trkpt>
      <trkpt lat="48.81717" lon="2.96923">
        <ele>83.2</ele>
        <time>2021-05-23T08:15:41Z</time>
      </trkpt>
      <trkpt lat="48.81712" lon="2.96924">
        <ele>83.4</ele>
        <time>2021-05-23T08:15:42Z</time>
      </trkpt>
      <trkpt lat="48.81664" lon="2.96925">
        <ele>84.5</ele>
        <time>2021-05-23T08:15:53Z</time>
      </trkpt>
      <trkpt lat="48.81646" lon="2.96924">
        <ele>84.7</ele>
        <time>2021-05-23T08:15:57Z</time>
      </trkpt>
      <trkpt lat="48.81591" lon="2.96936">
        <ele>86.3</ele>
        <time>2021-05-23T08:16:09Z</time>
      </trkpt>
      <trkpt lat="48.81586" lon="2.96937">
        <ele>86.5</ele>
        <time>2021-05-23T08:16:10Z</time>
      </trkpt>
      <trkpt lat="48.81581" lon="2.96937">
        <ele>86.5</ele>
        <time>2021-05-23T08:16:11Z</time>
      </trkpt>
      <trkpt lat="48.81576" lon="2.96935">
        <ele>86.4</ele>
        <time>2021-05-23T08:16:12Z</time>
      </trkpt>
      <trkpt lat="48.8157" lon="2.96932">
        <ele>86.3</ele>
        <time>2021-05-23T08:16:13Z</time>
      </trkpt>
      <trkpt lat="48.81565" lon="2.9693">
        <ele>86.1</ele>
        <time>2021-05-23T08:16:14Z</time>
      </trkpt>
      <trkpt lat="48.81494" lon="2.96896">
        <ele>83.9</ele>
        <time>2021-05-23T08:16:26Z</time>
      </trkpt>
      <trkpt lat="48.81463" lon="2.96877">
        <ele>82.1</ele>
        <time>2021-05-23T08:16:31Z</time>
      </trkpt>
      <trkpt lat="48.81424" lon="2.96856">
        <ele>81.4</ele>
        <time>2021-05-23T08:16:37Z</time>
      </trkpt>
      <trkpt lat="48.81418" lon="2.96854">
        <ele>81.5</ele>
        <time>2021-05-23T08:16:38Z</time>
      </trkpt>
      <trkpt lat="48.81412" lon="2.96851">
        <ele>81.4</ele>
        <time>2021-05-23T08:16:39Z</time>
      </trkpt>
      <trkpt lat="48.81406" lon="2.96849">
        <ele>81.3</ele>
        <time>2021-05-23T08:16:40Z</time>
      </trkpt>
      <trkpt lat="48.81401" lon="2.96846">
        <ele>81.2</ele>
        <time>2021-05-23T08:16:41Z</time>
      </trkpt>
      <trkpt lat="48.8139" lon="2.96841">
        <ele>80.9</ele>
        <time>2021-05-23T08:16:43Z</time>
      </trkpt>
      <trkpt lat="48.81332" lon="2.96817">
        <ele>78.4</ele>
        <time>2021-05-23T08:16:53Z</time>
      </trkpt>
      <trkpt lat="48.81327" lon="2.96816">
        <ele>78.2</ele>
        <time>2021-05-23T08:16:54Z</time>
      </trkpt>
      <trkpt lat="48.81315" lon="2.96815">
        <ele>77.8</ele>
        <time>2021-05-23T08:16:57Z</time>
      </trkpt>
      <trkpt lat="48.81312" lon="2.96818">
        <ele>77.9</ele>
        <time>2021-05-23T08:16:58Z</time>
      </trkpt>
      <trkpt lat="48.8131" lon="2.96822">
        <ele>78.3</ele>
        <time>2021-05-23T08:16:59Z</time>
      </trkpt>
      <trkpt lat="48.81309" lon="2.96827">
        <ele>78.6</ele>
        <time>2021-05-23T08:17:00Z</time>
      </trkpt>
      <trkpt lat="48.81308" lon="2.96833">
        <ele>79</ele>
        <time>2021-05-23T08:17:01Z</time>
      </trkpt>
      <trkpt lat="48.813" lon="2.9688">
        <ele>81.2</ele>
        <time>2021-05-23T08:17:12Z</time>
      </trkpt>
      <trkpt lat="48.81299" lon="2.96885">
        <ele>81.4</ele>
        <time>2021-05-23T08:17:13Z</time>
      </trkpt>
      <trkpt lat="48.8129" lon="2.96926">
        <ele>83.3</ele>
        <time>2021-05-23T08:17:24Z</time>
      </trkpt>
      <trkpt lat="48.81285" lon="2.9697">
        <ele>84.8</ele>
        <time>2021-05-23T08:17:35Z</time>
      </trkpt>
      <trkpt lat="48.81277" lon="2.97034">
        <ele>86.6</ele>
        <time>2021-05-23T08:17:49Z</time>
      </trkpt>
      <trkpt lat="48.81269" lon="2.97093">
        <ele>87.8</ele>
        <time>2021-05-23T08:18:05Z</time>
      </trkpt>
      <trkpt lat="48.81264" lon="2.97136">
        <ele>88.1</ele>
        <time>2021-05-23T08:18:16Z</time>
      </trkpt>
      <trkpt lat="48.81261" lon="2.97175">
        <ele>88.2</ele>
        <time>2021-05-23T08:18:26Z</time>
      </trkpt>
      <trkpt lat="48.81262" lon="2.97177">
        <ele>88.2</ele>
        <time>2021-05-23T08:18:27Z</time>
      </trkpt>
      <trkpt lat="48.81265" lon="2.97179">
        <ele>88.3</ele>
        <time>2021-05-23T08:18:28Z</time>
      </trkpt>
      <trkpt lat="48.81267" lon="2.97181">
        <ele>88.4</ele>
        <time>2021-05-23T08:18:29Z</time>
      </trkpt>
      <trkpt lat="48.8127" lon="2.97182">
        <ele>88.5</ele>
        <time>2021-05-23T08:18:30Z</time>
      </trkpt>
      <trkpt lat="48.81319" lon="2.97211">
        <ele>90.8</ele>
        <time>2021-05-23T08:18:48Z</time>
      </trkpt>
      <trkpt lat="48.81362" lon="2.97233">
        <ele>92.9</ele>
        <time>2021-05-23T08:19:03Z</time>
      </trkpt>
      <trkpt lat="48.81408" lon="2.97264">
        <ele>94.6</ele>
        <time>2021-05-23T08:19:18Z</time>
      </trkpt>
      <trkpt lat="48.81464" lon="2.97303">
        <ele>96.4</ele>
        <time>2021-05-23T08:19:36Z</time>
      </trkpt>
      <trkpt lat="48.81511" lon="2.97338">
        <ele>97.6</ele>
        <time>2021-05-23T08:19:52Z</time>
      </trkpt>
      <trkpt lat="48.81553" lon="2.97369">
        <ele>100.4</ele>
        <time>2021-05-23T08:20:06Z</time>
      </trkpt>
      <trkpt lat="48.81615" lon="2.97401">
        <ele>104.2</ele>
        <time>2021-05-23T08:20:25Z</time>
      </trkpt>
      <trkpt lat="48.81664" lon="2.97451">
        <ele>107.3</ele>
        <time>2021-05-23T08:20:41Z</time>
      </trkpt>
      <trkpt lat="48.81711" lon="2.97531">
        <ele>107.5</ele>
        <time>2021-05-23T08:20:58Z</time>
      </trkpt>
      <trkpt lat="48.8172" lon="2.97544">
        <ele>107.4</ele>
        <time>2021-05-23T08:21:01Z</time>
      </trkpt>
      <trkpt lat="48.81724" lon="2.97547">
        <ele>107.3</ele>
        <time>2021-05-23T08:21:02Z</time>
      </trkpt>
      <trkpt lat="48.81727" lon="2.97551">
        <ele>107.3</ele>
        <time>2021-05-23T08:21:03Z</time>
      </trkpt>
      <trkpt lat="48.81793" lon="2.97619">
        <ele>107.8</ele>
        <time>2021-05-23T08:21:21Z</time>
      </trkpt>
      <trkpt lat="48.81856" lon="2.97695">
        <ele>108.2</ele>
        <time>2021-05-23T08:21:38Z</time>
      </trkpt>
      <trkpt lat="48.81896" lon="2.97752">
        <ele>109.3</ele>
        <time>2021-05-23T08:21:50Z</time>
      </trkpt>
      <trkpt lat="48.81937" lon="2.9781">
        <ele>110</ele>
        <time>2021-05-23T08:22:02Z</time>
      </trkpt>
      <trkpt lat="48.81941" lon="2.97816">
        <ele>110.1</ele>
        <time>2021-05-23T08:22:03Z</time>
      </trkpt>
      <trkpt lat="48.81947" lon="2.97827">
        <ele>110.3</ele>
        <time>2021-05-23T08:22:05Z</time>
      </trkpt>
      <trkpt lat="48.8195" lon="2.97832">
        <ele>110.4</ele>
        <time>2021-05-23T08:22:06Z</time>
      </trkpt>
      <trkpt lat="48.81986" lon="2.97875">
        <ele>110.9</ele>
        <time>2021-05-23T08:22:16Z</time>
      </trkpt>
      <trkpt lat="48.82051" lon="2.97944">
        <ele>112.1</ele>
        <time>2021-05-23T08:22:33Z</time>
      </trkpt>
      <trkpt lat="48.8207" lon="2.97959">
        <ele>112.6</ele>
        <time>2021-05-23T08:22:38Z</time>
      </trkpt>
      <trkpt lat="48.82074" lon="2.97962">
        <ele>112.7</ele>
        <time>2021-05-23T08:22:39Z</time>
      </trkpt>
      <trkpt lat="48.82078" lon="2.97964">
        <ele>112.8</ele>
        <time>2021-05-23T08:22:40Z</time>
      </trkpt>
      <trkpt lat="48.82082" lon="2.97967">
        <ele>112.9</ele>
        <time>2021-05-23T08:22:41Z</time>
      </trkpt>
      <trkpt lat="48.82086" lon="2.97971">
        <ele>113.1</ele>
        <time>2021-05-23T08:22:42Z</time>
      </trkpt>
      <trkpt lat="48.8209" lon="2.97973">
        <ele>113.2</ele>
        <time>2021-05-23T08:22:43Z</time>
      </trkpt>
      <trkpt lat="48.82097" lon="2.9798">
        <ele>113.5</ele>
        <time>2021-05-23T08:22:45Z</time>
      </trkpt>
      <trkpt lat="48.82129" lon="2.98025">
        <ele>115.1</ele>
        <time>2021-05-23T08:22:58Z</time>
      </trkpt>
      <trkpt lat="48.82158" lon="2.98066">
        <ele>117.2</ele>
        <time>2021-05-23T08:23:11Z</time>
      </trkpt>
      <trkpt lat="48.82174" lon="2.98081">
        <ele>118.5</ele>
        <time>2021-05-23T08:23:18Z</time>
      </trkpt>
      <trkpt lat="48.82175" lon="2.98084">
        <ele>118.6</ele>
        <time>2021-05-23T08:23:19Z</time>
      </trkpt>
      <trkpt lat="48.82174" lon="2.98088">
        <ele>118.6</ele>
        <time>2021-05-23T08:23:20Z</time>
      </trkpt>
      <trkpt lat="48.82173" lon="2.98091">
        <ele>118.4</ele>
        <time>2021-05-23T08:23:21Z</time>
      </trkpt>
      <trkpt lat="48.8217" lon="2.98095">
        <ele>118.3</ele>
        <time>2021-05-23T08:23:22Z</time>
      </trkpt>
      <trkpt lat="48.82158" lon="2.9812">
        <ele>117.5</ele>
        <time>2021-05-23T08:23:29Z</time>
      </trkpt>
      <trkpt lat="48.82159" lon="2.98125">
        <ele>117.5</ele>
        <time>2021-05-23T08:23:30Z</time>
      </trkpt>
      <trkpt lat="48.8216" lon="2.98129">
        <ele>117.6</ele>
        <time>2021-05-23T08:23:31Z</time>
      </trkpt>
      <trkpt lat="48.82161" lon="2.98133">
        <ele>117.7</ele>
        <time>2021-05-23T08:23:32Z</time>
      </trkpt>
      <trkpt lat="48.82163" lon="2.98136">
        <ele>117.8</ele>
        <time>2021-05-23T08:23:33Z</time>
      </trkpt>
      <trkpt lat="48.82165" lon="2.9814">
        <ele>117.9</ele>
        <time>2021-05-23T08:23:34Z</time>
      </trkpt>
      <trkpt lat="48.82199" lon="2.98185">
        <ele>120.6</ele>
        <time>2021-05-23T08:23:46Z</time>
      </trkpt>
      <trkpt lat="48.82209" lon="2.98206">
        <ele>121.3</ele>
        <time>2021-05-23T08:23:50Z</time>
      </trkpt>
      <trkpt lat="48.82212" lon="2.98211">
        <ele>121.6</ele>
        <time>2021-05-23T08:23:51Z</time>
      </trkpt>
      <trkpt lat="48.82215" lon="2.98216">
        <ele>121.8</ele>
        <time>2021-05-23T08:23:52Z</time>
      </trkpt>
      <trkpt lat="48.82254" lon="2.98286">
        <ele>123.9</ele>
        <time>2021-05-23T08:24:06Z</time>
      </trkpt>
      <trkpt lat="48.82283" lon="2.98373">
        <ele>123.4</ele>
        <time>2021-05-23T08:24:20Z</time>
      </trkpt>
      <trkpt lat="48.82295" lon="2.98443">
        <ele>123.1</ele>
        <time>2021-05-23T08:24:32Z</time>
      </trkpt>
      <trkpt lat="48.82325" lon="2.98495">
        <ele>125.3</ele>
        <time>2021-05-23T08:24:46Z</time>
      </trkpt>
      <trkpt lat="48.82358" lon="2.9854">
        <ele>127</ele>
        <time>2021-05-23T08:25:00Z</time>
      </trkpt>
      <trkpt lat="48.82375" lon="2.98608">
        <ele>127.7</ele>
        <time>2021-05-23T08:25:12Z</time>
      </trkpt>
      <trkpt lat="48.82377" lon="2.98613">
        <ele>127.7</ele>
        <time>2021-05-23T08:25:13Z</time>
      </trkpt>
      <trkpt lat="48.82391" lon="2.98646">
        <ele>128</ele>
        <time>2021-05-23T08:25:19Z</time>
      </trkpt>
      <trkpt lat="48.82397" lon="2.98656">
        <ele>128.2</ele>
        <time>2021-05-23T08:25:21Z</time>
      </trkpt>
      <trkpt lat="48.82415" lon="2.987">
        <ele>128.5</ele>
        <time>2021-05-23T08:25:29Z</time>
      </trkpt>
      <trkpt lat="48.82414" lon="2.98706">
        <ele>128.4</ele>
        <time>2021-05-23T08:25:30Z</time>
      </trkpt>
      <trkpt lat="48.82412" lon="2.98711">
        <ele>128.2</ele>
        <time>2021-05-23T08:25:31Z</time>
      </trkpt>
      <trkpt lat="48.82383" lon="2.98783">
        <ele>125.2</ele>
        <time>2021-05-23T08:25:42Z</time>
      </trkpt>
      <trkpt lat="48.8238" lon="2.98789">
        <ele>124.9</ele>
        <time>2021-05-23T08:25:43Z</time>
      </trkpt>
      <trkpt lat="48.82376" lon="2.98795">
        <ele>124.5</ele>
        <time>2021-05-23T08:25:44Z</time>
      </trkpt>
      <trkpt lat="48.82371" lon="2.98801">
        <ele>124.1</ele>
        <time>2021-05-23T08:25:45Z</time>
      </trkpt>
      <trkpt lat="48.82366" lon="2.98806">
        <ele>123.7</ele>
        <time>2021-05-23T08:25:46Z</time>
      </trkpt>
      <trkpt lat="48.82323" lon="2.98843">
        <ele>120.3</ele>
        <time>2021-05-23T08:25:54Z</time>
      </trkpt>
      <trkpt lat="48.82294" lon="2.98875">
        <ele>118.4</ele>
        <time>2021-05-23T08:25:59Z</time>
      </trkpt>
      <trkpt lat="48.82289" lon="2.98884">
        <ele>118.1</ele>
        <time>2021-05-23T08:26:00Z</time>
      </trkpt>
      <trkpt lat="48.82285" lon="2.98894">
        <ele>117.8</ele>
        <time>2021-05-23T08:26:01Z</time>
      </trkpt>
      <trkpt lat="48.82281" lon="2.98904">
        <ele>117.5</ele>
        <time>2021-05-23T08:26:02Z</time>
      </trkpt>
      <trkpt lat="48.82279" lon="2.98915">
        <ele>117.4</ele>
        <time>2021-05-23T08:26:03Z</time>
      </trkpt>
      <trkpt lat="48.82278" lon="2.98926">
        <ele>117.6</ele>
        <time>2021-05-23T08:26:04Z</time>
      </trkpt>
      <trkpt lat="48.82278" lon="2.98935">
        <ele>117.9</ele>
        <time>2021-05-23T08:26:05Z</time>
      </trkpt>
      <trkpt lat="48.82281" lon="2.98966">
        <ele>118.8</ele>
        <time>2021-05-23T08:26:09Z</time>
      </trkpt>
      <trkpt lat="48.82291" lon="2.99008">
        <ele>120.1</ele>
        <time>2021-05-23T08:26:15Z</time>
      </trkpt>
      <trkpt lat="48.82294" lon="2.99076">
        <ele>121</ele>
        <time>2021-05-23T08:26:25Z</time>
      </trkpt>
      <trkpt lat="48.82294" lon="2.99083">
        <ele>121.1</ele>
        <time>2021-05-23T08:26:26Z</time>
      </trkpt>
      <trkpt lat="48.82293" lon="2.99089">
        <ele>121.4</ele>
        <time>2021-05-23T08:26:27Z</time>
      </trkpt>
      <trkpt lat="48.82292" lon="2.99096">
        <ele>121.7</ele>
        <time>2021-05-23T08:26:28Z</time>
      </trkpt>
      <trkpt lat="48.8229" lon="2.99103">
        <ele>122</ele>
        <time>2021-05-23T08:26:29Z</time>
      </trkpt>
      <trkpt lat="48.82288" lon="2.99109">
        <ele>122.2</ele>
        <time>2021-05-23T08:26:30Z</time>
      </trkpt>
      <trkpt lat="48.82286" lon="2.99116">
        <ele>122.5</ele>
        <time>2021-05-23T08:26:31Z</time>
      </trkpt>
      <trkpt lat="48.82269" lon="2.99155">
        <ele>123.5</ele>
        <time>2021-05-23T08:26:37Z</time>
      </trkpt>
      <trkpt lat="48.82266" lon="2.99161">
        <ele>123.7</ele>
        <time>2021-05-23T08:26:38Z</time>
      </trkpt>
      <trkpt lat="48.82259" lon="2.99196">
        <ele>124.2</ele>
        <time>2021-05-23T08:26:43Z</time>
      </trkpt>
      <trkpt lat="48.82258" lon="2.99204">
        <ele>124.3</ele>
        <time>2021-05-23T08:26:44Z</time>
      </trkpt>
      <trkpt lat="48.82259" lon="2.99211">
        <ele>124.5</ele>
        <time>2021-05-23T08:26:45Z</time>
      </trkpt>
      <trkpt lat="48.82259" lon="2.99218">
        <ele>124.7</ele>
        <time>2021-05-23T08:26:46Z</time>
      </trkpt>
      <trkpt lat="48.8226" lon="2.99225">
        <ele>124.9</ele>
        <time>2021-05-23T08:26:47Z</time>
      </trkpt>
      <trkpt lat="48.82264" lon="2.99245">
        <ele>125.6</ele>
        <time>2021-05-23T08:26:50Z</time>
      </trkpt>
      <trkpt lat="48.82264" lon="2.99252">
        <ele>125.7</ele>
        <time>2021-05-23T08:26:51Z</time>
      </trkpt>
      <trkpt lat="48.82264" lon="2.99259">
        <ele>125.7</ele>
        <time>2021-05-23T08:26:52Z</time>
      </trkpt>
      <trkpt lat="48.82264" lon="2.99266">
        <ele>125.6</ele>
        <time>2021-05-23T08:26:53Z</time>
      </trkpt>
      <trkpt lat="48.82263" lon="2.99273">
        <ele>125.6</ele>
        <time>2021-05-23T08:26:54Z</time>
      </trkpt>
      <trkpt lat="48.82262" lon="2.99279">
        <ele>125.5</ele>
        <time>2021-05-23T08:26:55Z</time>
      </trkpt>
      <trkpt lat="48.8226" lon="2.99285">
        <ele>125.4</ele>
        <time>2021-05-23T08:26:56Z</time>
      </trkpt>
      <trkpt lat="48.82258" lon="2.99292">
        <ele>125.3</ele>
        <time>2021-05-23T08:26:57Z</time>
      </trkpt>
      <trkpt lat="48.82256" lon="2.99298">
        <ele>125.2</ele>
        <time>2021-05-23T08:26:58Z</time>
      </trkpt>
      <trkpt lat="48.82245" lon="2.99345">
        <ele>125</ele>
        <time>2021-05-23T08:27:05Z</time>
      </trkpt>
      <trkpt lat="48.82242" lon="2.99395">
        <ele>125.9</ele>
        <time>2021-05-23T08:27:12Z</time>
      </trkpt>
      <trkpt lat="48.82243" lon="2.99401">
        <ele>126.1</ele>
        <time>2021-05-23T08:27:13Z</time>
      </trkpt>
      <trkpt lat="48.82245" lon="2.99414">
        <ele>126.5</ele>
        <time>2021-05-23T08:27:15Z</time>
      </trkpt>
      <trkpt lat="48.82248" lon="2.99419">
        <ele>126.8</ele>
        <time>2021-05-23T08:27:16Z</time>
      </trkpt>
      <trkpt lat="48.82251" lon="2.99423">
        <ele>127.1</ele>
        <time>2021-05-23T08:27:17Z</time>
      </trkpt>
      <trkpt lat="48.82255" lon="2.99425">
        <ele>127.2</ele>
        <time>2021-05-23T08:27:18Z</time>
      </trkpt>
      <trkpt lat="48.8226" lon="2.99427">
        <ele>127.4</ele>
        <time>2021-05-23T08:27:19Z</time>
      </trkpt>
      <trkpt lat="48.82264" lon="2.99431">
        <ele>127.5</ele>
        <time>2021-05-23T08:27:20Z</time>
      </trkpt>
      <trkpt lat="48.82267" lon="2.99437">
        <ele>127.6</ele>
        <time>2021-05-23T08:27:21Z</time>
      </trkpt>
      <trkpt lat="48.82269" lon="2.99443">
        <ele>127.8</ele>
        <time>2021-05-23T08:27:22Z</time>
      </trkpt>
      <trkpt lat="48.82269" lon="2.9945">
        <ele>127.9</ele>
        <time>2021-05-23T08:27:23Z</time>
      </trkpt>
      <trkpt lat="48.8227" lon="2.99457">
        <ele>128</ele>
        <time>2021-05-23T08:27:24Z</time>
      </trkpt>
      <trkpt lat="48.8227" lon="2.99464">
        <ele>128.1</ele>
        <time>2021-05-23T08:27:25Z</time>
      </trkpt>
      <trkpt lat="48.82271" lon="2.99471">
        <ele>128.2</ele>
        <time>2021-05-23T08:27:26Z</time>
      </trkpt>
      <trkpt lat="48.82273" lon="2.99477">
        <ele>128.3</ele>
        <time>2021-05-23T08:27:27Z</time>
      </trkpt>
      <trkpt lat="48.82275" lon="2.99483">
        <ele>128.4</ele>
        <time>2021-05-23T08:27:28Z</time>
      </trkpt>
      <trkpt lat="48.82278" lon="2.99488">
        <ele>128.5</ele>
        <time>2021-05-23T08:27:29Z</time>
      </trkpt>
      <trkpt lat="48.82294" lon="2.99531">
        <ele>129.4</ele>
        <time>2021-05-23T08:27:38Z</time>
      </trkpt>
      <trkpt lat="48.82296" lon="2.99533">
        <ele>129.5</ele>
        <time>2021-05-23T08:27:39Z</time>
      </trkpt>
      <trkpt lat="48.82299" lon="2.99533">
        <ele>129.6</ele>
        <time>2021-05-23T08:27:40Z</time>
      </trkpt>
      <trkpt lat="48.82303" lon="2.99533">
        <ele>129.7</ele>
        <time>2021-05-23T08:27:41Z</time>
      </trkpt>
      <trkpt lat="48.82306" lon="2.99532">
        <ele>129.7</ele>
        <time>2021-05-23T08:27:42Z</time>
      </trkpt>
      <trkpt lat="48.82331" lon="2.9953">
        <ele>130.3</ele>
        <time>2021-05-23T08:27:49Z</time>
      </trkpt>
      <trkpt lat="48.82333" lon="2.99533">
        <ele>130.4</ele>
        <time>2021-05-23T08:27:50Z</time>
      </trkpt>
      <trkpt lat="48.82334" lon="2.99537">
        <ele>130.5</ele>
        <time>2021-05-23T08:27:51Z</time>
      </trkpt>
      <trkpt lat="48.82334" lon="2.99541">
        <ele>130.5</ele>
        <time>2021-05-23T08:27:52Z</time>
      </trkpt>
      <trkpt lat="48.82335" lon="2.99544">
        <ele>130.6</ele>
        <time>2021-05-23T08:27:53Z</time>
      </trkpt>
      <trkpt lat="48.82341" lon="2.99595">
        <ele>131.3</ele>
        <time>2021-05-23T08:28:05Z</time>
      </trkpt>
      <trkpt lat="48.82346" lon="2.9967">
        <ele>132.1</ele>
        <time>2021-05-23T08:28:22Z</time>
      </trkpt>
      <trkpt lat="48.82363" lon="2.9972">
        <ele>131.9</ele>
        <time>2021-05-23T08:28:35Z</time>
      </trkpt>
      <trkpt lat="48.82361" lon="2.99785">
        <ele>131.3</ele>
        <time>2021-05-23T08:28:49Z</time>
      </trkpt>
      <trkpt lat="48.82352" lon="2.99854">
        <ele>130.9</ele>
        <time>2021-05-23T08:29:03Z</time>
      </trkpt>
      <trkpt lat="48.8235" lon="2.99858">
        <ele>131</ele>
        <time>2021-05-23T08:29:04Z</time>
      </trkpt>
      <trkpt lat="48.82348" lon="2.9986">
        <ele>131</ele>
        <time>2021-05-23T08:29:05Z</time>
      </trkpt>
      <trkpt lat="48.82345" lon="2.9986">
        <ele>130.9</ele>
        <time>2021-05-23T08:29:06Z</time>
      </trkpt>
      <trkpt lat="48.82342" lon="2.99859">
        <ele>130.8</ele>
        <time>2021-05-23T08:29:07Z</time>
      </trkpt>
      <trkpt lat="48.82338" lon="2.99857">
        <ele>130.7</ele>
        <time>2021-05-23T08:29:08Z</time>
      </trkpt>
      <trkpt lat="48.82335" lon="2.99856">
        <ele>130.6</ele>
        <time>2021-05-23T08:29:09Z</time>
      </trkpt>
      <trkpt lat="48.82313" lon="2.99848">
        <ele>129.8</ele>
        <time>2021-05-23T08:29:15Z</time>
      </trkpt>
      <trkpt lat="48.82308" lon="2.99847">
        <ele>129.7</ele>
        <time>2021-05-23T08:29:16Z</time>
      </trkpt>
      <trkpt lat="48.82254" lon="2.99834">
        <ele>128.1</ele>
        <time>2021-05-23T08:29:28Z</time>
      </trkpt>
      <trkpt lat="48.82249" lon="2.99836">
        <ele>128</ele>
        <time>2021-05-23T08:29:29Z</time>
      </trkpt>
      <trkpt lat="48.82245" lon="2.99839">
        <ele>127.9</ele>
        <time>2021-05-23T08:29:30Z</time>
      </trkpt>
      <trkpt lat="48.82241" lon="2.99842">
        <ele>127.8</ele>
        <time>2021-05-23T08:29:31Z</time>
      </trkpt>
      <trkpt lat="48.82236" lon="2.99844">
        <ele>127.6</ele>
        <time>2021-05-23T08:29:32Z</time>
      </trkpt>
      <trkpt lat="48.82231" lon="2.99845">
        <ele>127.5</ele>
        <time>2021-05-23T08:29:33Z</time>
      </trkpt>
      <trkpt lat="48.82226" lon="2.99846">
        <ele>127.3</ele>
        <time>2021-05-23T08:29:34Z</time>
      </trkpt>
      <trkpt lat="48.82215" lon="2.99847">
        <ele>126.9</ele>
        <time>2021-05-23T08:29:36Z</time>
      </trkpt>
      <trkpt lat="48.8221" lon="2.99847">
        <ele>126.7</ele>
        <time>2021-05-23T08:29:37Z</time>
      </trkpt>
      <trkpt lat="48.82183" lon="2.99855">
        <ele>125.8</ele>
        <time>2021-05-23T08:29:42Z</time>
      </trkpt>
      <trkpt lat="48.82178" lon="2.99858">
        <ele>125.7</ele>
        <time>2021-05-23T08:29:43Z</time>
      </trkpt>
      <trkpt lat="48.82172" lon="2.99863">
        <ele>125.6</ele>
        <time>2021-05-23T08:29:44Z</time>
      </trkpt>
      <trkpt lat="48.82168" lon="2.99867">
        <ele>125.4</ele>
        <time>2021-05-23T08:29:45Z</time>
      </trkpt>
      <trkpt lat="48.82163" lon="2.99872">
        <ele>125.3</ele>
        <time>2021-05-23T08:29:46Z</time>
      </trkpt>
      <trkpt lat="48.82159" lon="2.99877">
        <ele>125.1</ele>
        <time>2021-05-23T08:29:47Z</time>
      </trkpt>
      <trkpt lat="48.82155" lon="2.99883">
        <ele>125</ele>
        <time>2021-05-23T08:29:48Z</time>
      </trkpt>
      <trkpt lat="48.82151" lon="2.99889">
        <ele>124.9</ele>
        <time>2021-05-23T08:29:49Z</time>
      </trkpt>
      <trkpt lat="48.82148" lon="2.99896">
        <ele>124.9</ele>
        <time>2021-05-23T08:29:50Z</time>
      </trkpt>
      <trkpt lat="48.82145" lon="2.99903">
        <ele>124.8</ele>
        <time>2021-05-23T08:29:51Z</time>
      </trkpt>
      <trkpt lat="48.82143" lon="2.9991">
        <ele>124.8</ele>
        <time>2021-05-23T08:29:52Z</time>
      </trkpt>
      <trkpt lat="48.82119" lon="3.00028">
        <ele>124.2</ele>
        <time>2021-05-23T08:30:07Z</time>
      </trkpt>
      <trkpt lat="48.82091" lon="3.00151">
        <ele>124.3</ele>
        <time>2021-05-23T08:30:23Z</time>
      </trkpt>
      <trkpt lat="48.82076" lon="3.00306">
        <ele>123.4</ele>
        <time>2021-05-23T08:30:40Z</time>
      </trkpt>
      <trkpt lat="48.8207" lon="3.00367">
        <ele>123.4</ele>
        <time>2021-05-23T08:30:47Z</time>
      </trkpt>
      <trkpt lat="48.82068" lon="3.00429">
        <ele>123</ele>
        <time>2021-05-23T08:30:54Z</time>
      </trkpt>
      <trkpt lat="48.8209" lon="3.00549">
        <ele>122.1</ele>
        <time>2021-05-23T08:31:08Z</time>
      </trkpt>
      <trkpt lat="48.82103" lon="3.00582">
        <ele>122.2</ele>
        <time>2021-05-23T08:31:12Z</time>
      </trkpt>
      <trkpt lat="48.8215" lon="3.00673">
        <ele>122.4</ele>
        <time>2021-05-23T08:31:26Z</time>
      </trkpt>
      <trkpt lat="48.822" lon="3.0077">
        <ele>122.1</ele>
        <time>2021-05-23T08:31:41Z</time>
      </trkpt>
      <trkpt lat="48.82212" lon="3.00787">
        <ele>122.4</ele>
        <time>2021-05-23T08:31:45Z</time>
      </trkpt>
      <trkpt lat="48.82215" lon="3.00787">
        <ele>122.5</ele>
        <time>2021-05-23T08:31:46Z</time>
      </trkpt>
      <trkpt lat="48.82217" lon="3.00785">
        <ele>122.6</ele>
        <time>2021-05-23T08:31:47Z</time>
      </trkpt>
      <trkpt lat="48.8222" lon="3.00783">
        <ele>122.7</ele>
        <time>2021-05-23T08:31:48Z</time>
      </trkpt>
      <trkpt lat="48.82222" lon="3.0078">
        <ele>122.7</ele>
        <time>2021-05-23T08:31:49Z</time>
      </trkpt>
      <trkpt lat="48.82224" lon="3.00776">
        <ele>122.8</ele>
        <time>2021-05-23T08:31:50Z</time>
      </trkpt>
      <trkpt lat="48.82226" lon="3.00773">
        <ele>122.9</ele>
        <time>2021-05-23T08:31:51Z</time>
      </trkpt>
      <trkpt lat="48.82228" lon="3.0077">
        <ele>123</ele>
        <time>2021-05-23T08:31:52Z</time>
      </trkpt>
      <trkpt lat="48.82256" lon="3.00717">
        <ele>124.9</ele>
        <time>2021-05-23T08:32:07Z</time>
      </trkpt>
      <trkpt lat="48.82287" lon="3.00659">
        <ele>127</ele>
        <time>2021-05-23T08:32:23Z</time>
      </trkpt>
      <trkpt lat="48.82318" lon="3.00606">
        <ele>128.4</ele>
        <time>2021-05-23T08:32:37Z</time>
      </trkpt>
      <trkpt lat="48.82353" lon="3.00544">
        <ele>130</ele>
        <time>2021-05-23T08:32:52Z</time>
      </trkpt>
      <trkpt lat="48.82387" lon="3.00488">
        <ele>131.4</ele>
        <time>2021-05-23T08:33:06Z</time>
      </trkpt>
      <trkpt lat="48.82396" lon="3.00482">
        <ele>131.6</ele>
        <time>2021-05-23T08:33:09Z</time>
      </trkpt>
      <trkpt lat="48.824" lon="3.00484">
        <ele>131.5</ele>
        <time>2021-05-23T08:33:10Z</time>
      </trkpt>
      <trkpt lat="48.82404" lon="3.00489">
        <ele>131.4</ele>
        <time>2021-05-23T08:33:11Z</time>
      </trkpt>
      <trkpt lat="48.82413" lon="3.00506">
        <ele>130.8</ele>
        <time>2021-05-23T08:33:14Z</time>
      </trkpt>
      <trkpt lat="48.82416" lon="3.00513">
        <ele>130.7</ele>
        <time>2021-05-23T08:33:15Z</time>
      </trkpt>
      <trkpt lat="48.82419" lon="3.0052">
        <ele>130.5</ele>
        <time>2021-05-23T08:33:16Z</time>
      </trkpt>
      <trkpt lat="48.82466" lon="3.00615">
        <ele>129.4</ele>
        <time>2021-05-23T08:33:30Z</time>
      </trkpt>
      <trkpt lat="48.82477" lon="3.00642">
        <ele>129.5</ele>
        <time>2021-05-23T08:33:34Z</time>
      </trkpt>
      <trkpt lat="48.82479" lon="3.00649">
        <ele>129.5</ele>
        <time>2021-05-23T08:33:35Z</time>
      </trkpt>
      <trkpt lat="48.82503" lon="3.00784">
        <ele>129.2</ele>
        <time>2021-05-23T08:33:53Z</time>
      </trkpt>
      <trkpt lat="48.82511" lon="3.00869">
        <ele>129.6</ele>
        <time>2021-05-23T08:34:04Z</time>
      </trkpt>
      <trkpt lat="48.82509" lon="3.00877">
        <ele>129.5</ele>
        <time>2021-05-23T08:34:05Z</time>
      </trkpt>
      <trkpt lat="48.82504" lon="3.00908">
        <ele>129.2</ele>
        <time>2021-05-23T08:34:09Z</time>
      </trkpt>
      <trkpt lat="48.82504" lon="3.00916">
        <ele>129.2</ele>
        <time>2021-05-23T08:34:10Z</time>
      </trkpt>
      <trkpt lat="48.82504" lon="3.00925">
        <ele>129.1</ele>
        <time>2021-05-23T08:34:11Z</time>
      </trkpt>
      <trkpt lat="48.82505" lon="3.00933">
        <ele>129</ele>
        <time>2021-05-23T08:34:12Z</time>
      </trkpt>
      <trkpt lat="48.82506" lon="3.00942">
        <ele>129</ele>
        <time>2021-05-23T08:34:13Z</time>
      </trkpt>
      <trkpt lat="48.82507" lon="3.0095">
        <ele>128.9</ele>
        <time>2021-05-23T08:34:14Z</time>
      </trkpt>
      <trkpt lat="48.82509" lon="3.00957">
        <ele>128.9</ele>
        <time>2021-05-23T08:34:15Z</time>
      </trkpt>
      <trkpt lat="48.82512" lon="3.00964">
        <ele>128.9</ele>
        <time>2021-05-23T08:34:16Z</time>
      </trkpt>
      <trkpt lat="48.82515" lon="3.00969">
        <ele>129</ele>
        <time>2021-05-23T08:34:17Z</time>
      </trkpt>
      <trkpt lat="48.82518" lon="3.00974">
        <ele>129</ele>
        <time>2021-05-23T08:34:18Z</time>
      </trkpt>
      <trkpt lat="48.8253" lon="3.00994">
        <ele>129.2</ele>
        <time>2021-05-23T08:34:25Z</time>
      </trkpt>
      <trkpt lat="48.82531" lon="3.00998">
        <ele>129.2</ele>
        <time>2021-05-23T08:34:36Z</time>
      </trkpt>
      <trkpt lat="48.82532" lon="3.00997">
        <ele>129.2</ele>
        <time>2021-05-23T08:35:05Z</time>
      </trkpt>
      <trkpt lat="48.82531" lon="3.00998">
        <ele>129.2</ele>
        <time>2021-05-23T08:35:33Z</time>
      </trkpt>
      <trkpt lat="48.82531" lon="3.00999">
        <ele>129.1</ele>
        <time>2021-05-23T08:36:00Z</time>
      </trkpt>
      <trkpt lat="48.82531" lon="3.00998">
        <ele>129.1</ele>
        <time>2021-05-23T08:36:31Z</time>
      </trkpt>
      <trkpt lat="48.82531" lon="3.00998">
        <ele>129.2</ele>
        <time>2021-05-23T08:37:03Z</time>
      </trkpt>
      <trkpt lat="48.82531" lon="3.00998">
        <ele>129.1</ele>
        <time>2021-05-23T08:37:32Z</time>
      </trkpt>
      <trkpt lat="48.82531" lon="3.00998">
        <ele>129.2</ele>
        <time>2021-05-23T08:38:03Z</time>
      </trkpt>
      <trkpt lat="48.82531" lon="3.00999">
        <ele>129.1</ele>
        <time>2021-05-23T08:38:35Z</time>
      </trkpt>
      <trkpt lat="48.82531" lon="3.00999">
        <ele>129.2</ele>
        <time>2021-05-23T08:39:13Z</time>
      </trkpt>
      <trkpt lat="48.82532" lon="3.00998">
        <ele>129.2</ele>
        <time>2021-05-23T08:39:47Z</time>
      </trkpt>
      <trkpt lat="48.82532" lon="3.00996">
        <ele>129.2</ele>
        <time>2021-05-23T08:40:20Z</time>
      </trkpt>
      <trkpt lat="48.82532" lon="3.00998">
        <ele>129.2</ele>
        <time>2021-05-23T08:40:50Z</time>
      </trkpt>
      <trkpt lat="48.82534" lon="3.00998">
        <ele>129.2</ele>
        <time>2021-05-23T08:41:21Z</time>
      </trkpt>
      <trkpt lat="48.82534" lon="3.00998">
        <ele>129.2</ele>
        <time>2021-05-23T08:41:48Z</time>
      </trkpt>
      <trkpt lat="48.82534" lon="3.00999">
        <ele>129.3</ele>
        <time>2021-05-23T08:42:15Z</time>
      </trkpt>
      <trkpt lat="48.82535" lon="3.00997">
        <ele>129.3</ele>
        <time>2021-05-23T08:42:43Z</time>
      </trkpt>
      <trkpt lat="48.82535" lon="3.00997">
        <ele>129.3</ele>
        <time>2021-05-23T08:42:54Z</time>
      </trkpt>
      <trkpt lat="48.82536" lon="3.00997">
        <ele>129.4</ele>
        <time>2021-05-23T08:42:57Z</time>
      </trkpt>
      <trkpt lat="48.82537" lon="3.00998">
        <ele>129.4</ele>
        <time>2021-05-23T08:42:58Z</time>
      </trkpt>
      <trkpt lat="48.82538" lon="3.01">
        <ele>129.4</ele>
        <time>2021-05-23T08:42:59Z</time>
      </trkpt>
      <trkpt lat="48.82551" lon="3.01034">
        <ele>128.7</ele>
        <time>2021-05-23T08:43:12Z</time>
      </trkpt>
      <trkpt lat="48.82552" lon="3.01063">
        <ele>127.9</ele>
        <time>2021-05-23T08:43:17Z</time>
      </trkpt>
      <trkpt lat="48.82552" lon="3.0107">
        <ele>127.6</ele>
        <time>2021-05-23T08:43:18Z</time>
      </trkpt>
      <trkpt lat="48.8255" lon="3.01077">
        <ele>127.4</ele>
        <time>2021-05-23T08:43:19Z</time>
      </trkpt>
      <trkpt lat="48.82549" lon="3.01084">
        <ele>127.2</ele>
        <time>2021-05-23T08:43:20Z</time>
      </trkpt>
      <trkpt lat="48.82546" lon="3.01091">
        <ele>127.1</ele>
        <time>2021-05-23T08:43:21Z</time>
      </trkpt>
      <trkpt lat="48.82543" lon="3.01098">
        <ele>127</ele>
        <time>2021-05-23T08:43:22Z</time>
      </trkpt>
      <trkpt lat="48.8254" lon="3.01105">
        <ele>126.8</ele>
        <time>2021-05-23T08:43:23Z</time>
      </trkpt>
      <trkpt lat="48.82537" lon="3.01111">
        <ele>126.7</ele>
        <time>2021-05-23T08:43:24Z</time>
      </trkpt>
      <trkpt lat="48.82532" lon="3.01123">
        <ele>126.4</ele>
        <time>2021-05-23T08:43:26Z</time>
      </trkpt>
      <trkpt lat="48.82529" lon="3.0113">
        <ele>126.2</ele>
        <time>2021-05-23T08:43:27Z</time>
      </trkpt>
      <trkpt lat="48.82524" lon="3.01145">
        <ele>125.8</ele>
        <time>2021-05-23T08:43:29Z</time>
      </trkpt>
      <trkpt lat="48.82522" lon="3.01153">
        <ele>125.6</ele>
        <time>2021-05-23T08:43:30Z</time>
      </trkpt>
      <trkpt lat="48.82516" lon="3.01214">
        <ele>126.4</ele>
        <time>2021-05-23T08:43:38Z</time>
      </trkpt>
      <trkpt lat="48.82518" lon="3.01242">
        <ele>127.4</ele>
        <time>2021-05-23T08:43:42Z</time>
      </trkpt>
      <trkpt lat="48.82519" lon="3.01249">
        <ele>127.7</ele>
        <time>2021-05-23T08:43:43Z</time>
      </trkpt>
      <trkpt lat="48.82519" lon="3.01256">
        <ele>127.8</ele>
        <time>2021-05-23T08:43:44Z</time>
      </trkpt>
      <trkpt lat="48.82527" lon="3.01315">
        <ele>128.5</ele>
        <time>2021-05-23T08:43:52Z</time>
      </trkpt>
      <trkpt lat="48.82528" lon="3.01321">
        <ele>128.6</ele>
        <time>2021-05-23T08:43:53Z</time>
      </trkpt>
      <trkpt lat="48.82535" lon="3.01366">
        <ele>129.3</ele>
        <time>2021-05-23T08:44:00Z</time>
      </trkpt>
      <trkpt lat="48.82535" lon="3.01373">
        <ele>129.4</ele>
        <time>2021-05-23T08:44:01Z</time>
      </trkpt>
      <trkpt lat="48.82536" lon="3.0138">
        <ele>129.5</ele>
        <time>2021-05-23T08:44:02Z</time>
      </trkpt>
      <trkpt lat="48.8254" lon="3.01429">
        <ele>130.2</ele>
        <time>2021-05-23T08:44:09Z</time>
      </trkpt>
      <trkpt lat="48.82541" lon="3.01436">
        <ele>130.2</ele>
        <time>2021-05-23T08:44:10Z</time>
      </trkpt>
      <trkpt lat="48.82544" lon="3.0147">
        <ele>130.6</ele>
        <time>2021-05-23T08:44:15Z</time>
      </trkpt>
      <trkpt lat="48.82545" lon="3.01477">
        <ele>130.7</ele>
        <time>2021-05-23T08:44:16Z</time>
      </trkpt>
      <trkpt lat="48.8255" lon="3.01522">
        <ele>130.7</ele>
        <time>2021-05-23T08:44:22Z</time>
      </trkpt>
      <trkpt lat="48.82552" lon="3.01537">
        <ele>130.7</ele>
        <time>2021-05-23T08:44:24Z</time>
      </trkpt>
      <trkpt lat="48.82554" lon="3.01544">
        <ele>130.7</ele>
        <time>2021-05-23T08:44:25Z</time>
      </trkpt>
      <trkpt lat="48.82555" lon="3.01552">
        <ele>130.7</ele>
        <time>2021-05-23T08:44:26Z</time>
      </trkpt>
      <trkpt lat="48.82579" lon="3.01611">
        <ele>130.9</ele>
        <time>2021-05-23T08:44:37Z</time>
      </trkpt>
      <trkpt lat="48.82598" lon="3.01643">
        <ele>131.3</ele>
        <time>2021-05-23T08:44:46Z</time>
      </trkpt>
      <trkpt lat="48.82617" lon="3.01683">
        <ele>131.2</ele>
        <time>2021-05-23T08:44:55Z</time>
      </trkpt>
      <trkpt lat="48.82638" lon="3.01756">
        <ele>129.3</ele>
        <time>2021-05-23T08:45:09Z</time>
      </trkpt>
      <trkpt lat="48.82648" lon="3.01815">
        <ele>129.4</ele>
        <time>2021-05-23T08:45:21Z</time>
      </trkpt>
      <trkpt lat="48.8266" lon="3.01901">
        <ele>130.5</ele>
        <time>2021-05-23T08:45:34Z</time>
      </trkpt>
      <trkpt lat="48.82661" lon="3.01914">
        <ele>130.7</ele>
        <time>2021-05-23T08:45:36Z</time>
      </trkpt>
      <trkpt lat="48.82662" lon="3.01921">
        <ele>130.7</ele>
        <time>2021-05-23T08:45:37Z</time>
      </trkpt>
      <trkpt lat="48.82671" lon="3.02034">
        <ele>128.4</ele>
        <time>2021-05-23T08:45:51Z</time>
      </trkpt>
      <trkpt lat="48.8267" lon="3.02064">
        <ele>127.6</ele>
        <time>2021-05-23T08:45:54Z</time>
      </trkpt>
      <trkpt lat="48.82669" lon="3.02074">
        <ele>127.3</ele>
        <time>2021-05-23T08:45:55Z</time>
      </trkpt>
      <trkpt lat="48.82658" lon="3.02149">
        <ele>124.6</ele>
        <time>2021-05-23T08:46:02Z</time>
      </trkpt>
      <trkpt lat="48.82658" lon="3.0216">
        <ele>124.3</ele>
        <time>2021-05-23T08:46:03Z</time>
      </trkpt>
      <trkpt lat="48.82655" lon="3.02254">
        <ele>120.9</ele>
        <time>2021-05-23T08:46:12Z</time>
      </trkpt>
      <trkpt lat="48.82653" lon="3.02255">
        <ele>120.7</ele>
        <time>2021-05-23T08:46:13Z</time>
      </trkpt>
      <trkpt lat="48.82651" lon="3.02253">
        <ele>120.5</ele>
        <time>2021-05-23T08:46:14Z</time>
      </trkpt>
      <trkpt lat="48.82649" lon="3.0225">
        <ele>120.5</ele>
        <time>2021-05-23T08:46:15Z</time>
      </trkpt>
      <trkpt lat="48.82646" lon="3.02246">
        <ele>120.4</ele>
        <time>2021-05-23T08:46:16Z</time>
      </trkpt>
      <trkpt lat="48.82644" lon="3.02243">
        <ele>120.3</ele>
        <time>2021-05-23T08:46:17Z</time>
      </trkpt>
      <trkpt lat="48.82641" lon="3.02239">
        <ele>120.2</ele>
        <time>2021-05-23T08:46:18Z</time>
      </trkpt>
      <trkpt lat="48.82601" lon="3.02163">
        <ele>118.7</ele>
        <time>2021-05-23T08:46:32Z</time>
      </trkpt>
      <trkpt lat="48.82552" lon="3.02071">
        <ele>115.6</ele>
        <time>2021-05-23T08:46:46Z</time>
      </trkpt>
      <trkpt lat="48.82546" lon="3.02057">
        <ele>115.5</ele>
        <time>2021-05-23T08:46:48Z</time>
      </trkpt>
      <trkpt lat="48.82539" lon="3.02045">
        <ele>115.2</ele>
        <time>2021-05-23T08:46:50Z</time>
      </trkpt>
      <trkpt lat="48.82537" lon="3.02038">
        <ele>115.2</ele>
        <time>2021-05-23T08:46:51Z</time>
      </trkpt>
      <trkpt lat="48.82506" lon="3.01967">
        <ele>114.4</ele>
        <time>2021-05-23T08:47:01Z</time>
      </trkpt>
      <trkpt lat="48.82502" lon="3.0196">
        <ele>114.2</ele>
        <time>2021-05-23T08:47:02Z</time>
      </trkpt>
      <trkpt lat="48.82477" lon="3.01918">
        <ele>113.3</ele>
        <time>2021-05-23T08:47:08Z</time>
      </trkpt>
      <trkpt lat="48.8247" lon="3.01904">
        <ele>113.4</ele>
        <time>2021-05-23T08:47:10Z</time>
      </trkpt>
      <trkpt lat="48.82419" lon="3.01784">
        <ele>113.2</ele>
        <time>2021-05-23T08:47:26Z</time>
      </trkpt>
      <trkpt lat="48.82415" lon="3.01776">
        <ele>113.3</ele>
        <time>2021-05-23T08:47:27Z</time>
      </trkpt>
      <trkpt lat="48.82372" lon="3.01692">
        <ele>112.3</ele>
        <time>2021-05-23T08:47:39Z</time>
      </trkpt>
      <trkpt lat="48.82364" lon="3.01677">
        <ele>111.9</ele>
        <time>2021-05-23T08:47:41Z</time>
      </trkpt>
      <trkpt lat="48.82354" lon="3.01654">
        <ele>111.6</ele>
        <time>2021-05-23T08:47:44Z</time>
      </trkpt>
      <trkpt lat="48.82349" lon="3.01638">
        <ele>111.5</ele>
        <time>2021-05-23T08:47:46Z</time>
      </trkpt>
      <trkpt lat="48.82334" lon="3.0159">
        <ele>110.9</ele>
        <time>2021-05-23T08:47:52Z</time>
      </trkpt>
      <trkpt lat="48.8233" lon="3.01585">
        <ele>110.7</ele>
        <time>2021-05-23T08:47:53Z</time>
      </trkpt>
      <trkpt lat="48.82326" lon="3.01579">
        <ele>110.5</ele>
        <time>2021-05-23T08:47:54Z</time>
      </trkpt>
      <trkpt lat="48.8231" lon="3.01551">
        <ele>109.2</ele>
        <time>2021-05-23T08:47:58Z</time>
      </trkpt>
      <trkpt lat="48.82304" lon="3.01547">
        <ele>108.6</ele>
        <time>2021-05-23T08:47:59Z</time>
      </trkpt>
      <trkpt lat="48.82297" lon="3.01547">
        <ele>107.9</ele>
        <time>2021-05-23T08:48:00Z</time>
      </trkpt>
      <trkpt lat="48.82272" lon="3.01548">
        <ele>105.2</ele>
        <time>2021-05-23T08:48:03Z</time>
      </trkpt>
      <trkpt lat="48.82264" lon="3.01548">
        <ele>104.3</ele>
        <time>2021-05-23T08:48:04Z</time>
      </trkpt>
      <trkpt lat="48.82242" lon="3.01551">
        <ele>101.9</ele>
        <time>2021-05-23T08:48:08Z</time>
      </trkpt>
      <trkpt lat="48.82239" lon="3.01554">
        <ele>101.7</ele>
        <time>2021-05-23T08:48:09Z</time>
      </trkpt>
      <trkpt lat="48.82237" lon="3.01558">
        <ele>101.6</ele>
        <time>2021-05-23T08:48:10Z</time>
      </trkpt>
      <trkpt lat="48.82236" lon="3.01563">
        <ele>101.7</ele>
        <time>2021-05-23T08:48:11Z</time>
      </trkpt>
      <trkpt lat="48.82236" lon="3.01568">
        <ele>101.9</ele>
        <time>2021-05-23T08:48:12Z</time>
      </trkpt>
      <trkpt lat="48.82237" lon="3.01574">
        <ele>102.1</ele>
        <time>2021-05-23T08:48:13Z</time>
      </trkpt>
      <trkpt lat="48.82236" lon="3.0158">
        <ele>102.2</ele>
        <time>2021-05-23T08:48:14Z</time>
      </trkpt>
      <trkpt lat="48.82235" lon="3.01585">
        <ele>102.2</ele>
        <time>2021-05-23T08:48:15Z</time>
      </trkpt>
      <trkpt lat="48.82234" lon="3.01591">
        <ele>101.9</ele>
        <time>2021-05-23T08:48:16Z</time>
      </trkpt>
      <trkpt lat="48.82234" lon="3.01597">
        <ele>101.6</ele>
        <time>2021-05-23T08:48:17Z</time>
      </trkpt>
      <trkpt lat="48.82234" lon="3.01603">
        <ele>101.4</ele>
        <time>2021-05-23T08:48:18Z</time>
      </trkpt>
      <trkpt lat="48.82248" lon="3.01652">
        <ele>102.1</ele>
        <time>2021-05-23T08:48:28Z</time>
      </trkpt>
      <trkpt lat="48.82268" lon="3.0169">
        <ele>102</ele>
        <time>2021-05-23T08:48:35Z</time>
      </trkpt>
      <trkpt lat="48.82274" lon="3.01713">
        <ele>101.1</ele>
        <time>2021-05-23T08:48:38Z</time>
      </trkpt>
      <trkpt lat="48.82274" lon="3.01722">
        <ele>100.6</ele>
        <time>2021-05-23T08:48:39Z</time>
      </trkpt>
      <trkpt lat="48.82274" lon="3.0173">
        <ele>100.1</ele>
        <time>2021-05-23T08:48:40Z</time>
      </trkpt>
      <trkpt lat="48.82273" lon="3.01745">
        <ele>99.2</ele>
        <time>2021-05-23T08:48:42Z</time>
      </trkpt>
      <trkpt lat="48.82274" lon="3.01751">
        <ele>98.9</ele>
        <time>2021-05-23T08:48:43Z</time>
      </trkpt>
      <trkpt lat="48.82277" lon="3.01794">
        <ele>97</ele>
        <time>2021-05-23T08:48:48Z</time>
      </trkpt>
      <trkpt lat="48.8228" lon="3.01811">
        <ele>96.4</ele>
        <time>2021-05-23T08:48:50Z</time>
      </trkpt>
      <trkpt lat="48.82281" lon="3.0182">
        <ele>96.2</ele>
        <time>2021-05-23T08:48:51Z</time>
      </trkpt>
      <trkpt lat="48.82282" lon="3.01828">
        <ele>96</ele>
        <time>2021-05-23T08:48:52Z</time>
      </trkpt>
      <trkpt lat="48.82288" lon="3.01845">
        <ele>96.4</ele>
        <time>2021-05-23T08:48:54Z</time>
      </trkpt>
      <trkpt lat="48.8229" lon="3.01852">
        <ele>96.7</ele>
        <time>2021-05-23T08:48:55Z</time>
      </trkpt>
      <trkpt lat="48.82296" lon="3.01888">
        <ele>97.4</ele>
        <time>2021-05-23T08:49:01Z</time>
      </trkpt>
      <trkpt lat="48.82326" lon="3.01936">
        <ele>101.1</ele>
        <time>2021-05-23T08:49:11Z</time>
      </trkpt>
      <trkpt lat="48.82342" lon="3.01985">
        <ele>99.3</ele>
        <time>2021-05-23T08:49:16Z</time>
      </trkpt>
      <trkpt lat="48.82344" lon="3.01995">
        <ele>98.7</ele>
        <time>2021-05-23T08:49:17Z</time>
      </trkpt>
      <trkpt lat="48.82356" lon="3.0204">
        <ele>96.3</ele>
        <time>2021-05-23T08:49:22Z</time>
      </trkpt>
      <trkpt lat="48.82367" lon="3.02088">
        <ele>93.8</ele>
        <time>2021-05-23T08:49:27Z</time>
      </trkpt>
      <trkpt lat="48.82379" lon="3.02143">
        <ele>94.7</ele>
        <time>2021-05-23T08:49:34Z</time>
      </trkpt>
      <trkpt lat="48.82379" lon="3.0215">
        <ele>94.7</ele>
        <time>2021-05-23T08:49:35Z</time>
      </trkpt>
      <trkpt lat="48.8238" lon="3.02156">
        <ele>94.8</ele>
        <time>2021-05-23T08:49:36Z</time>
      </trkpt>
      <trkpt lat="48.82382" lon="3.02161">
        <ele>94.9</ele>
        <time>2021-05-23T08:49:37Z</time>
      </trkpt>
      <trkpt lat="48.82384" lon="3.02167">
        <ele>95.1</ele>
        <time>2021-05-23T08:49:38Z</time>
      </trkpt>
      <trkpt lat="48.82387" lon="3.02179">
        <ele>95.2</ele>
        <time>2021-05-23T08:49:40Z</time>
      </trkpt>
      <trkpt lat="48.82387" lon="3.02187">
        <ele>95.1</ele>
        <time>2021-05-23T08:49:41Z</time>
      </trkpt>
      <trkpt lat="48.82386" lon="3.02194">
        <ele>94.8</ele>
        <time>2021-05-23T08:49:42Z</time>
      </trkpt>
      <trkpt lat="48.82385" lon="3.02202">
        <ele>94.6</ele>
        <time>2021-05-23T08:49:43Z</time>
      </trkpt>
      <trkpt lat="48.82386" lon="3.02208">
        <ele>94.5</ele>
        <time>2021-05-23T08:49:44Z</time>
      </trkpt>
      <trkpt lat="48.82388" lon="3.02214">
        <ele>94.6</ele>
        <time>2021-05-23T08:49:45Z</time>
      </trkpt>
      <trkpt lat="48.8239" lon="3.02219">
        <ele>94.8</ele>
        <time>2021-05-23T08:49:46Z</time>
      </trkpt>
      <trkpt lat="48.82394" lon="3.02224">
        <ele>95.1</ele>
        <time>2021-05-23T08:49:47Z</time>
      </trkpt>
      <trkpt lat="48.82429" lon="3.02268">
        <ele>98.6</ele>
        <time>2021-05-23T08:49:58Z</time>
      </trkpt>
      <trkpt lat="48.82462" lon="3.02284">
        <ele>103.3</ele>
        <time>2021-05-23T08:50:09Z</time>
      </trkpt>
      <trkpt lat="48.82472" lon="3.02285">
        <ele>104.6</ele>
        <time>2021-05-23T08:50:13Z</time>
      </trkpt>
      <trkpt lat="48.82474" lon="3.02287">
        <ele>104.9</ele>
        <time>2021-05-23T08:50:14Z</time>
      </trkpt>
      <trkpt lat="48.82476" lon="3.02289">
        <ele>105</ele>
        <time>2021-05-23T08:50:15Z</time>
      </trkpt>
      <trkpt lat="48.82477" lon="3.02293">
        <ele>105.2</ele>
        <time>2021-05-23T08:50:16Z</time>
      </trkpt>
      <trkpt lat="48.82478" lon="3.02297">
        <ele>105.2</ele>
        <time>2021-05-23T08:50:17Z</time>
      </trkpt>
      <trkpt lat="48.8248" lon="3.02301">
        <ele>105.3</ele>
        <time>2021-05-23T08:50:18Z</time>
      </trkpt>
      <trkpt lat="48.82481" lon="3.02304">
        <ele>105.3</ele>
        <time>2021-05-23T08:50:19Z</time>
      </trkpt>
      <trkpt lat="48.82481" lon="3.02309">
        <ele>105.3</ele>
        <time>2021-05-23T08:50:20Z</time>
      </trkpt>
      <trkpt lat="48.82483" lon="3.02313">
        <ele>105.4</ele>
        <time>2021-05-23T08:50:21Z</time>
      </trkpt>
      <trkpt lat="48.82484" lon="3.02317">
        <ele>105.4</ele>
        <time>2021-05-23T08:50:22Z</time>
      </trkpt>
      <trkpt lat="48.82485" lon="3.02321">
        <ele>105.4</ele>
        <time>2021-05-23T08:50:23Z</time>
      </trkpt>
      <trkpt lat="48.82487" lon="3.02325">
        <ele>105.5</ele>
        <time>2021-05-23T08:50:24Z</time>
      </trkpt>
      <trkpt lat="48.82502" lon="3.02376">
        <ele>105.6</ele>
        <time>2021-05-23T08:50:37Z</time>
      </trkpt>
      <trkpt lat="48.82522" lon="3.02413">
        <ele>105.7</ele>
        <time>2021-05-23T08:50:46Z</time>
      </trkpt>
      <trkpt lat="48.82552" lon="3.02449">
        <ele>107.5</ele>
        <time>2021-05-23T08:50:59Z</time>
      </trkpt>
      <trkpt lat="48.82576" lon="3.02452">
        <ele>109.1</ele>
        <time>2021-05-23T08:51:11Z</time>
      </trkpt>
      <trkpt lat="48.82599" lon="3.02459">
        <ele>111</ele>
        <time>2021-05-23T08:51:25Z</time>
      </trkpt>
      <trkpt lat="48.82613" lon="3.02458">
        <ele>112.4</ele>
        <time>2021-05-23T08:51:36Z</time>
      </trkpt>
      <trkpt lat="48.82633" lon="3.02463">
        <ele>114.2</ele>
        <time>2021-05-23T08:51:48Z</time>
      </trkpt>
      <trkpt lat="48.82651" lon="3.02464">
        <ele>115.9</ele>
        <time>2021-05-23T08:52:01Z</time>
      </trkpt>
      <trkpt lat="48.82668" lon="3.02466">
        <ele>117.5</ele>
        <time>2021-05-23T08:52:13Z</time>
      </trkpt>
      <trkpt lat="48.82685" lon="3.02472">
        <ele>118.9</ele>
        <time>2021-05-23T08:52:24Z</time>
      </trkpt>
      <trkpt lat="48.82689" lon="3.02474">
        <ele>119.2</ele>
        <time>2021-05-23T08:52:26Z</time>
      </trkpt>
      <trkpt lat="48.8271" lon="3.02489">
        <ele>120.8</ele>
        <time>2021-05-23T08:52:39Z</time>
      </trkpt>
      <trkpt lat="48.82726" lon="3.02521">
        <ele>121.6</ele>
        <time>2021-05-23T08:52:50Z</time>
      </trkpt>
      <trkpt lat="48.82752" lon="3.02556">
        <ele>122.8</ele>
        <time>2021-05-23T08:53:03Z</time>
      </trkpt>
      <trkpt lat="48.8278" lon="3.02613">
        <ele>123.7</ele>
        <time>2021-05-23T08:53:18Z</time>
      </trkpt>
      <trkpt lat="48.82808" lon="3.02662">
        <ele>124.8</ele>
        <time>2021-05-23T08:53:31Z</time>
      </trkpt>
      <trkpt lat="48.82848" lon="3.02728">
        <ele>126.4</ele>
        <time>2021-05-23T08:53:46Z</time>
      </trkpt>
      <trkpt lat="48.82879" lon="3.02763">
        <ele>126.8</ele>
        <time>2021-05-23T08:53:59Z</time>
      </trkpt>
      <trkpt lat="48.82882" lon="3.02765">
        <ele>126.8</ele>
        <time>2021-05-23T08:54:00Z</time>
      </trkpt>
      <trkpt lat="48.82917" lon="3.02793">
        <ele>126.4</ele>
        <time>2021-05-23T08:54:10Z</time>
      </trkpt>
      <trkpt lat="48.8292" lon="3.02797">
        <ele>126.4</ele>
        <time>2021-05-23T08:54:11Z</time>
      </trkpt>
      <trkpt lat="48.82944" lon="3.02818">
        <ele>126.5</ele>
        <time>2021-05-23T08:54:18Z</time>
      </trkpt>
      <trkpt lat="48.82945" lon="3.02825">
        <ele>126.3</ele>
        <time>2021-05-23T08:54:19Z</time>
      </trkpt>
      <trkpt lat="48.82944" lon="3.02831">
        <ele>126.1</ele>
        <time>2021-05-23T08:54:20Z</time>
      </trkpt>
      <trkpt lat="48.82937" lon="3.02865">
        <ele>126.1</ele>
        <time>2021-05-23T08:54:25Z</time>
      </trkpt>
      <trkpt lat="48.82925" lon="3.02947">
        <ele>126.7</ele>
        <time>2021-05-23T08:54:36Z</time>
      </trkpt>
      <trkpt lat="48.82923" lon="3.02953">
        <ele>126.7</ele>
        <time>2021-05-23T08:54:37Z</time>
      </trkpt>
      <trkpt lat="48.82912" lon="3.02982">
        <ele>126.6</ele>
        <time>2021-05-23T08:54:42Z</time>
      </trkpt>
      <trkpt lat="48.8291" lon="3.02988">
        <ele>126.6</ele>
        <time>2021-05-23T08:54:43Z</time>
      </trkpt>
      <trkpt lat="48.82899" lon="3.0303">
        <ele>125.7</ele>
        <time>2021-05-23T08:54:49Z</time>
      </trkpt>
      <trkpt lat="48.82898" lon="3.03038">
        <ele>125.6</ele>
        <time>2021-05-23T08:54:50Z</time>
      </trkpt>
      <trkpt lat="48.82898" lon="3.03169">
        <ele>124.3</ele>
        <time>2021-05-23T08:55:06Z</time>
      </trkpt>
      <trkpt lat="48.82898" lon="3.03178">
        <ele>124.1</ele>
        <time>2021-05-23T08:55:07Z</time>
      </trkpt>
      <trkpt lat="48.82885" lon="3.03307">
        <ele>120.9</ele>
        <time>2021-05-23T08:55:22Z</time>
      </trkpt>
      <trkpt lat="48.82862" lon="3.03395">
        <ele>119</ele>
        <time>2021-05-23T08:55:32Z</time>
      </trkpt>
      <trkpt lat="48.82802" lon="3.0352">
        <ele>115</ele>
        <time>2021-05-23T08:55:47Z</time>
      </trkpt>
      <trkpt lat="48.82793" lon="3.0354">
        <ele>114.3</ele>
        <time>2021-05-23T08:55:50Z</time>
      </trkpt>
      <trkpt lat="48.82791" lon="3.03547">
        <ele>114.1</ele>
        <time>2021-05-23T08:55:51Z</time>
      </trkpt>
      <trkpt lat="48.82791" lon="3.03555">
        <ele>114</ele>
        <time>2021-05-23T08:55:52Z</time>
      </trkpt>
      <trkpt lat="48.82791" lon="3.03611">
        <ele>112.7</ele>
        <time>2021-05-23T08:56:02Z</time>
      </trkpt>
      <trkpt lat="48.82794" lon="3.03698">
        <ele>110.2</ele>
        <time>2021-05-23T08:56:15Z</time>
      </trkpt>
      <trkpt lat="48.82794" lon="3.03705">
        <ele>109.9</ele>
        <time>2021-05-23T08:56:16Z</time>
      </trkpt>
      <trkpt lat="48.82793" lon="3.03713">
        <ele>109.7</ele>
        <time>2021-05-23T08:56:17Z</time>
      </trkpt>
      <trkpt lat="48.82786" lon="3.03833">
        <ele>106.3</ele>
        <time>2021-05-23T08:56:32Z</time>
      </trkpt>
      <trkpt lat="48.82785" lon="3.03941">
        <ele>102</ele>
        <time>2021-05-23T08:56:45Z</time>
      </trkpt>
      <trkpt lat="48.82783" lon="3.04039">
        <ele>97.8</ele>
        <time>2021-05-23T08:56:56Z</time>
      </trkpt>
      <trkpt lat="48.82775" lon="3.0416">
        <ele>93</ele>
        <time>2021-05-23T08:57:08Z</time>
      </trkpt>
      <trkpt lat="48.82772" lon="3.04176">
        <ele>92.1</ele>
        <time>2021-05-23T08:57:11Z</time>
      </trkpt>
      <trkpt lat="48.82768" lon="3.04178">
        <ele>92</ele>
        <time>2021-05-23T08:57:12Z</time>
      </trkpt>
      <trkpt lat="48.82765" lon="3.04179">
        <ele>92</ele>
        <time>2021-05-23T08:57:13Z</time>
      </trkpt>
      <trkpt lat="48.82704" lon="3.04163">
        <ele>92.6</ele>
        <time>2021-05-23T08:57:28Z</time>
      </trkpt>
      <trkpt lat="48.827" lon="3.04163">
        <ele>92.5</ele>
        <time>2021-05-23T08:57:29Z</time>
      </trkpt>
      <trkpt lat="48.82624" lon="3.04152">
        <ele>90.1</ele>
        <time>2021-05-23T08:57:46Z</time>
      </trkpt>
      <trkpt lat="48.82574" lon="3.04143">
        <ele>87.7</ele>
        <time>2021-05-23T08:57:56Z</time>
      </trkpt>
      <trkpt lat="48.82569" lon="3.04142">
        <ele>87.6</ele>
        <time>2021-05-23T08:57:57Z</time>
      </trkpt>
      <trkpt lat="48.82514" lon="3.04129">
        <ele>85.5</ele>
        <time>2021-05-23T08:58:07Z</time>
      </trkpt>
      <trkpt lat="48.82508" lon="3.04127">
        <ele>85.3</ele>
        <time>2021-05-23T08:58:08Z</time>
      </trkpt>
      <trkpt lat="48.82415" lon="3.04064">
        <ele>81.6</ele>
        <time>2021-05-23T08:58:25Z</time>
      </trkpt>
      <trkpt lat="48.82405" lon="3.04047">
        <ele>81.7</ele>
        <time>2021-05-23T08:58:33Z</time>
      </trkpt>
      <trkpt lat="48.82403" lon="3.04045">
        <ele>81.7</ele>
        <time>2021-05-23T08:58:35Z</time>
      </trkpt>
      <trkpt lat="48.82402" lon="3.04045">
        <ele>81.7</ele>
        <time>2021-05-23T08:58:36Z</time>
      </trkpt>
      <trkpt lat="48.82399" lon="3.04046">
        <ele>81.5</ele>
        <time>2021-05-23T08:58:37Z</time>
      </trkpt>
      <trkpt lat="48.82396" lon="3.04045">
        <ele>81.4</ele>
        <time>2021-05-23T08:58:38Z</time>
      </trkpt>
      <trkpt lat="48.82392" lon="3.04044">
        <ele>81.2</ele>
        <time>2021-05-23T08:58:39Z</time>
      </trkpt>
      <trkpt lat="48.82355" lon="3.04029">
        <ele>79.8</ele>
        <time>2021-05-23T08:58:50Z</time>
      </trkpt>
      <trkpt lat="48.82343" lon="3.04023">
        <ele>79.2</ele>
        <time>2021-05-23T08:58:54Z</time>
      </trkpt>
      <trkpt lat="48.82338" lon="3.04022">
        <ele>79</ele>
        <time>2021-05-23T08:58:55Z</time>
      </trkpt>
      <trkpt lat="48.82258" lon="3.03975">
        <ele>75</ele>
        <time>2021-05-23T08:59:10Z</time>
      </trkpt>
      <trkpt lat="48.82198" lon="3.03908">
        <ele>74.2</ele>
        <time>2021-05-23T08:59:23Z</time>
      </trkpt>
      <trkpt lat="48.82188" lon="3.0389">
        <ele>74</ele>
        <time>2021-05-23T08:59:26Z</time>
      </trkpt>
      <trkpt lat="48.82184" lon="3.03885">
        <ele>73.9</ele>
        <time>2021-05-23T08:59:27Z</time>
      </trkpt>
      <trkpt lat="48.82179" lon="3.03882">
        <ele>73.8</ele>
        <time>2021-05-23T08:59:28Z</time>
      </trkpt>
      <trkpt lat="48.82174" lon="3.03879">
        <ele>73.7</ele>
        <time>2021-05-23T08:59:29Z</time>
      </trkpt>
      <trkpt lat="48.82169" lon="3.03877">
        <ele>73.5</ele>
        <time>2021-05-23T08:59:30Z</time>
      </trkpt>
      <trkpt lat="48.82159" lon="3.03874">
        <ele>73.2</ele>
        <time>2021-05-23T08:59:32Z</time>
      </trkpt>
      <trkpt lat="48.82154" lon="3.03873">
        <ele>73</ele>
        <time>2021-05-23T08:59:33Z</time>
      </trkpt>
      <trkpt lat="48.82149" lon="3.0387">
        <ele>72.8</ele>
        <time>2021-05-23T08:59:34Z</time>
      </trkpt>
      <trkpt lat="48.82146" lon="3.03867">
        <ele>72.7</ele>
        <time>2021-05-23T08:59:35Z</time>
      </trkpt>
      <trkpt lat="48.82143" lon="3.03863">
        <ele>72.6</ele>
        <time>2021-05-23T08:59:36Z</time>
      </trkpt>
      <trkpt lat="48.82141" lon="3.03858">
        <ele>72.6</ele>
        <time>2021-05-23T08:59:37Z</time>
      </trkpt>
      <trkpt lat="48.8214" lon="3.03852">
        <ele>72.6</ele>
        <time>2021-05-23T08:59:38Z</time>
      </trkpt>
      <trkpt lat="48.82141" lon="3.03846">
        <ele>72.7</ele>
        <time>2021-05-23T08:59:39Z</time>
      </trkpt>
      <trkpt lat="48.82142" lon="3.03838">
        <ele>72.8</ele>
        <time>2021-05-23T08:59:40Z</time>
      </trkpt>
      <trkpt lat="48.82144" lon="3.03831">
        <ele>72.9</ele>
        <time>2021-05-23T08:59:41Z</time>
      </trkpt>
      <trkpt lat="48.82146" lon="3.03824">
        <ele>73</ele>
        <time>2021-05-23T08:59:42Z</time>
      </trkpt>
      <trkpt lat="48.82147" lon="3.03816">
        <ele>73</ele>
        <time>2021-05-23T08:59:43Z</time>
      </trkpt>
      <trkpt lat="48.82148" lon="3.03809">
        <ele>73</ele>
        <time>2021-05-23T08:59:44Z</time>
      </trkpt>
      <trkpt lat="48.8215" lon="3.03802">
        <ele>73.1</ele>
        <time>2021-05-23T08:59:45Z</time>
      </trkpt>
      <trkpt lat="48.82155" lon="3.03736">
        <ele>73.3</ele>
        <time>2021-05-23T08:59:57Z</time>
      </trkpt>
      <trkpt lat="48.82151" lon="3.03731">
        <ele>73</ele>
        <time>2021-05-23T08:59:59Z</time>
      </trkpt>
      <trkpt lat="48.82148" lon="3.03729">
        <ele>72.8</ele>
        <time>2021-05-23T09:00:00Z</time>
      </trkpt>
      <trkpt lat="48.82145" lon="3.03728">
        <ele>72.7</ele>
        <time>2021-05-23T09:00:01Z</time>
      </trkpt>
      <trkpt lat="48.82127" lon="3.03723">
        <ele>71.5</ele>
        <time>2021-05-23T09:00:06Z</time>
      </trkpt>
      <trkpt lat="48.82102" lon="3.03722">
        <ele>69.9</ele>
        <time>2021-05-23T09:00:11Z</time>
      </trkpt>
      <trkpt lat="48.82091" lon="3.03724">
        <ele>69.2</ele>
        <time>2021-05-23T09:00:13Z</time>
      </trkpt>
      <trkpt lat="48.82085" lon="3.03727">
        <ele>68.8</ele>
        <time>2021-05-23T09:00:14Z</time>
      </trkpt>
      <trkpt lat="48.8208" lon="3.03732">
        <ele>68.6</ele>
        <time>2021-05-23T09:00:15Z</time>
      </trkpt>
      <trkpt lat="48.82074" lon="3.03738">
        <ele>68.3</ele>
        <time>2021-05-23T09:00:16Z</time>
      </trkpt>
      <trkpt lat="48.82068" lon="3.03742">
        <ele>68</ele>
        <time>2021-05-23T09:00:17Z</time>
      </trkpt>
      <trkpt lat="48.8206" lon="3.03743">
        <ele>67.6</ele>
        <time>2021-05-23T09:00:18Z</time>
      </trkpt>
      <trkpt lat="48.82053" lon="3.03742">
        <ele>67.1</ele>
        <time>2021-05-23T09:00:19Z</time>
      </trkpt>
      <trkpt lat="48.82046" lon="3.0374">
        <ele>66.7</ele>
        <time>2021-05-23T09:00:20Z</time>
      </trkpt>
      <trkpt lat="48.8203" lon="3.03734">
        <ele>65.7</ele>
        <time>2021-05-23T09:00:23Z</time>
      </trkpt>
      <trkpt lat="48.81979" lon="3.03719">
        <ele>63.7</ele>
        <time>2021-05-23T09:00:35Z</time>
      </trkpt>
      <trkpt lat="48.81915" lon="3.03707">
        <ele>62.5</ele>
        <time>2021-05-23T09:00:49Z</time>
      </trkpt>
      <trkpt lat="48.81877" lon="3.03718">
        <ele>62.6</ele>
        <time>2021-05-23T09:00:57Z</time>
      </trkpt>
      <trkpt lat="48.81804" lon="3.0378">
        <ele>66.3</ele>
        <time>2021-05-23T09:01:13Z</time>
      </trkpt>
      <trkpt lat="48.81795" lon="3.03786">
        <ele>67.3</ele>
        <time>2021-05-23T09:01:15Z</time>
      </trkpt>
      <trkpt lat="48.81792" lon="3.03785">
        <ele>67.7</ele>
        <time>2021-05-23T09:01:16Z</time>
      </trkpt>
      <trkpt lat="48.81788" lon="3.03784">
        <ele>68.1</ele>
        <time>2021-05-23T09:01:17Z</time>
      </trkpt>
      <trkpt lat="48.81757" lon="3.03786">
        <ele>71.6</ele>
        <time>2021-05-23T09:01:30Z</time>
      </trkpt>
      <trkpt lat="48.81735" lon="3.03786">
        <ele>74.8</ele>
        <time>2021-05-23T09:01:44Z</time>
      </trkpt>
      <trkpt lat="48.81734" lon="3.03786">
        <ele>75</ele>
        <time>2021-05-23T09:01:45Z</time>
      </trkpt>
      <trkpt lat="48.81732" lon="3.03786">
        <ele>75.2</ele>
        <time>2021-05-23T09:01:46Z</time>
      </trkpt>
      <trkpt lat="48.81716" lon="3.03783">
        <ele>77.7</ele>
        <time>2021-05-23T09:01:58Z</time>
      </trkpt>
      <trkpt lat="48.81709" lon="3.03782">
        <ele>78.7</ele>
        <time>2021-05-23T09:02:02Z</time>
      </trkpt>
      <trkpt lat="48.81708" lon="3.03781">
        <ele>79</ele>
        <time>2021-05-23T09:02:03Z</time>
      </trkpt>
      <trkpt lat="48.81706" lon="3.03781">
        <ele>79.2</ele>
        <time>2021-05-23T09:02:04Z</time>
      </trkpt>
      <trkpt lat="48.81704" lon="3.03781">
        <ele>79.5</ele>
        <time>2021-05-23T09:02:05Z</time>
      </trkpt>
      <trkpt lat="48.81703" lon="3.0378">
        <ele>79.8</ele>
        <time>2021-05-23T09:02:06Z</time>
      </trkpt>
      <trkpt lat="48.81701" lon="3.03779">
        <ele>80</ele>
        <time>2021-05-23T09:02:07Z</time>
      </trkpt>
      <trkpt lat="48.81699" lon="3.03778">
        <ele>80.3</ele>
        <time>2021-05-23T09:02:08Z</time>
      </trkpt>
      <trkpt lat="48.81697" lon="3.03778">
        <ele>80.6</ele>
        <time>2021-05-23T09:02:09Z</time>
      </trkpt>
      <trkpt lat="48.81696" lon="3.03778">
        <ele>80.8</ele>
        <time>2021-05-23T09:02:10Z</time>
      </trkpt>
      <trkpt lat="48.81694" lon="3.03778">
        <ele>81</ele>
        <time>2021-05-23T09:02:11Z</time>
      </trkpt>
      <trkpt lat="48.81693" lon="3.03777">
        <ele>81.2</ele>
        <time>2021-05-23T09:02:12Z</time>
      </trkpt>
      <trkpt lat="48.81673" lon="3.03764">
        <ele>84.2</ele>
        <time>2021-05-23T09:02:25Z</time>
      </trkpt>
      <trkpt lat="48.81654" lon="3.03762">
        <ele>86.2</ele>
        <time>2021-05-23T09:02:37Z</time>
      </trkpt>
      <trkpt lat="48.81639" lon="3.03761">
        <ele>87.4</ele>
        <time>2021-05-23T09:02:50Z</time>
      </trkpt>
      <trkpt lat="48.81622" lon="3.03759">
        <ele>88.8</ele>
        <time>2021-05-23T09:03:02Z</time>
      </trkpt>
      <trkpt lat="48.8161" lon="3.03756">
        <ele>89.8</ele>
        <time>2021-05-23T09:03:13Z</time>
      </trkpt>
      <trkpt lat="48.81595" lon="3.03753">
        <ele>91.1</ele>
        <time>2021-05-23T09:03:24Z</time>
      </trkpt>
      <trkpt lat="48.81592" lon="3.03753">
        <ele>91.3</ele>
        <time>2021-05-23T09:03:26Z</time>
      </trkpt>
      <trkpt lat="48.81585" lon="3.03751">
        <ele>91.9</ele>
        <time>2021-05-23T09:03:31Z</time>
      </trkpt>
      <trkpt lat="48.81583" lon="3.0375">
        <ele>92</ele>
        <time>2021-05-23T09:03:32Z</time>
      </trkpt>
      <trkpt lat="48.81582" lon="3.0375">
        <ele>92.1</ele>
        <time>2021-05-23T09:03:33Z</time>
      </trkpt>
      <trkpt lat="48.8158" lon="3.0375">
        <ele>92.2</ele>
        <time>2021-05-23T09:03:34Z</time>
      </trkpt>
      <trkpt lat="48.81564" lon="3.03745">
        <ele>93.1</ele>
        <time>2021-05-23T09:03:45Z</time>
      </trkpt>
      <trkpt lat="48.81559" lon="3.03742">
        <ele>93.3</ele>
        <time>2021-05-23T09:03:48Z</time>
      </trkpt>
      <trkpt lat="48.81558" lon="3.0374">
        <ele>93.4</ele>
        <time>2021-05-23T09:03:49Z</time>
      </trkpt>
      <trkpt lat="48.81557" lon="3.03737">
        <ele>93.4</ele>
        <time>2021-05-23T09:03:50Z</time>
      </trkpt>
      <trkpt lat="48.81556" lon="3.03735">
        <ele>93.4</ele>
        <time>2021-05-23T09:03:51Z</time>
      </trkpt>
      <trkpt lat="48.81557" lon="3.0373">
        <ele>93.3</ele>
        <time>2021-05-23T09:03:54Z</time>
      </trkpt>
      <trkpt lat="48.81569" lon="3.03686">
        <ele>91.6</ele>
        <time>2021-05-23T09:04:07Z</time>
      </trkpt>
      <trkpt lat="48.81588" lon="3.0362">
        <ele>87.7</ele>
        <time>2021-05-23T09:04:20Z</time>
      </trkpt>
      <trkpt lat="48.81592" lon="3.03603">
        <ele>86.5</ele>
        <time>2021-05-23T09:04:23Z</time>
      </trkpt>
      <trkpt lat="48.81595" lon="3.03581">
        <ele>85.3</ele>
        <time>2021-05-23T09:04:26Z</time>
      </trkpt>
      <trkpt lat="48.81615" lon="3.03494">
        <ele>85.4</ele>
        <time>2021-05-23T09:04:35Z</time>
      </trkpt>
      <trkpt lat="48.81626" lon="3.03442">
        <ele>86.3</ele>
        <time>2021-05-23T09:04:43Z</time>
      </trkpt>
      <trkpt lat="48.81626" lon="3.03436">
        <ele>86.6</ele>
        <time>2021-05-23T09:04:44Z</time>
      </trkpt>
      <trkpt lat="48.81627" lon="3.03431">
        <ele>86.8</ele>
        <time>2021-05-23T09:04:45Z</time>
      </trkpt>
      <trkpt lat="48.81628" lon="3.03426">
        <ele>87</ele>
        <time>2021-05-23T09:04:46Z</time>
      </trkpt>
      <trkpt lat="48.81629" lon="3.03421">
        <ele>87.2</ele>
        <time>2021-05-23T09:04:47Z</time>
      </trkpt>
      <trkpt lat="48.8163" lon="3.03416">
        <ele>87.3</ele>
        <time>2021-05-23T09:04:48Z</time>
      </trkpt>
      <trkpt lat="48.81631" lon="3.03411">
        <ele>87.4</ele>
        <time>2021-05-23T09:04:49Z</time>
      </trkpt>
      <trkpt lat="48.81632" lon="3.03405">
        <ele>87.4</ele>
        <time>2021-05-23T09:04:50Z</time>
      </trkpt>
      <trkpt lat="48.81644" lon="3.03341">
        <ele>88</ele>
        <time>2021-05-23T09:05:01Z</time>
      </trkpt>
      <trkpt lat="48.81646" lon="3.03314">
        <ele>88</ele>
        <time>2021-05-23T09:05:05Z</time>
      </trkpt>
      <trkpt lat="48.81646" lon="3.03307">
        <ele>88.1</ele>
        <time>2021-05-23T09:05:06Z</time>
      </trkpt>
      <trkpt lat="48.81652" lon="3.03221">
        <ele>88.4</ele>
        <time>2021-05-23T09:05:17Z</time>
      </trkpt>
      <trkpt lat="48.81652" lon="3.03214">
        <ele>88.5</ele>
        <time>2021-05-23T09:05:18Z</time>
      </trkpt>
      <trkpt lat="48.81651" lon="3.03147">
        <ele>89.1</ele>
        <time>2021-05-23T09:05:27Z</time>
      </trkpt>
      <trkpt lat="48.81652" lon="3.03139">
        <ele>88.9</ele>
        <time>2021-05-23T09:05:28Z</time>
      </trkpt>
      <trkpt lat="48.81652" lon="3.03124">
        <ele>88.7</ele>
        <time>2021-05-23T09:05:30Z</time>
      </trkpt>
      <trkpt lat="48.81648" lon="3.03088">
        <ele>88.1</ele>
        <time>2021-05-23T09:05:34Z</time>
      </trkpt>
      <trkpt lat="48.8165" lon="3.03047">
        <ele>86.7</ele>
        <time>2021-05-23T09:05:38Z</time>
      </trkpt>
      <trkpt lat="48.81649" lon="3.03038">
        <ele>86.4</ele>
        <time>2021-05-23T09:05:39Z</time>
      </trkpt>
      <trkpt lat="48.81648" lon="3.03029">
        <ele>86.1</ele>
        <time>2021-05-23T09:05:40Z</time>
      </trkpt>
      <trkpt lat="48.81648" lon="3.03021">
        <ele>85.7</ele>
        <time>2021-05-23T09:05:41Z</time>
      </trkpt>
      <trkpt lat="48.81648" lon="3.03012">
        <ele>85.4</ele>
        <time>2021-05-23T09:05:42Z</time>
      </trkpt>
      <trkpt lat="48.81647" lon="3.02986">
        <ele>84.6</ele>
        <time>2021-05-23T09:05:45Z</time>
      </trkpt>
      <trkpt lat="48.81646" lon="3.02977">
        <ele>84.3</ele>
        <time>2021-05-23T09:05:46Z</time>
      </trkpt>
      <trkpt lat="48.81641" lon="3.02917">
        <ele>82.4</ele>
        <time>2021-05-23T09:05:53Z</time>
      </trkpt>
      <trkpt lat="48.81642" lon="3.02907">
        <ele>82</ele>
        <time>2021-05-23T09:05:54Z</time>
      </trkpt>
      <trkpt lat="48.81642" lon="3.02898">
        <ele>81.7</ele>
        <time>2021-05-23T09:05:55Z</time>
      </trkpt>
      <trkpt lat="48.81642" lon="3.02889">
        <ele>81.4</ele>
        <time>2021-05-23T09:05:56Z</time>
      </trkpt>
      <trkpt lat="48.81641" lon="3.02879">
        <ele>81</ele>
        <time>2021-05-23T09:05:57Z</time>
      </trkpt>
      <trkpt lat="48.81641" lon="3.02869">
        <ele>80.6</ele>
        <time>2021-05-23T09:05:58Z</time>
      </trkpt>
      <trkpt lat="48.81641" lon="3.0286">
        <ele>80.3</ele>
        <time>2021-05-23T09:05:59Z</time>
      </trkpt>
      <trkpt lat="48.81641" lon="3.0285">
        <ele>79.9</ele>
        <time>2021-05-23T09:06:00Z</time>
      </trkpt>
      <trkpt lat="48.81641" lon="3.02842">
        <ele>79.6</ele>
        <time>2021-05-23T09:06:01Z</time>
      </trkpt>
      <trkpt lat="48.8164" lon="3.02833">
        <ele>79.3</ele>
        <time>2021-05-23T09:06:02Z</time>
      </trkpt>
      <trkpt lat="48.81639" lon="3.02825">
        <ele>79</ele>
        <time>2021-05-23T09:06:03Z</time>
      </trkpt>
      <trkpt lat="48.81637" lon="3.02817">
        <ele>78.8</ele>
        <time>2021-05-23T09:06:04Z</time>
      </trkpt>
      <trkpt lat="48.81635" lon="3.02808">
        <ele>78.5</ele>
        <time>2021-05-23T09:06:05Z</time>
      </trkpt>
      <trkpt lat="48.81634" lon="3.028">
        <ele>78.3</ele>
        <time>2021-05-23T09:06:06Z</time>
      </trkpt>
      <trkpt lat="48.81633" lon="3.02791">
        <ele>78</ele>
        <time>2021-05-23T09:06:07Z</time>
      </trkpt>
      <trkpt lat="48.81632" lon="3.02783">
        <ele>77.8</ele>
        <time>2021-05-23T09:06:08Z</time>
      </trkpt>
      <trkpt lat="48.81631" lon="3.02776">
        <ele>77.5</ele>
        <time>2021-05-23T09:06:09Z</time>
      </trkpt>
      <trkpt lat="48.81627" lon="3.02744">
        <ele>76.9</ele>
        <time>2021-05-23T09:06:14Z</time>
      </trkpt>
      <trkpt lat="48.81624" lon="3.02722">
        <ele>76.9</ele>
        <time>2021-05-23T09:06:17Z</time>
      </trkpt>
      <trkpt lat="48.81623" lon="3.02715">
        <ele>76.9</ele>
        <time>2021-05-23T09:06:18Z</time>
      </trkpt>
      <trkpt lat="48.8162" lon="3.02703">
        <ele>77</ele>
        <time>2021-05-23T09:06:20Z</time>
      </trkpt>
      <trkpt lat="48.81619" lon="3.02696">
        <ele>77</ele>
        <time>2021-05-23T09:06:21Z</time>
      </trkpt>
      <trkpt lat="48.81603" lon="3.02615">
        <ele>76.9</ele>
        <time>2021-05-23T09:06:33Z</time>
      </trkpt>
      <trkpt lat="48.81601" lon="3.02609">
        <ele>76.9</ele>
        <time>2021-05-23T09:06:34Z</time>
      </trkpt>
      <trkpt lat="48.81585" lon="3.02537">
        <ele>77.3</ele>
        <time>2021-05-23T09:06:45Z</time>
      </trkpt>
      <trkpt lat="48.81574" lon="3.02483">
        <ele>77.4</ele>
        <time>2021-05-23T09:06:55Z</time>
      </trkpt>
      <trkpt lat="48.81573" lon="3.02476">
        <ele>77.4</ele>
        <time>2021-05-23T09:06:56Z</time>
      </trkpt>
      <trkpt lat="48.81571" lon="3.02372">
        <ele>77.9</ele>
        <time>2021-05-23T09:07:09Z</time>
      </trkpt>
      <trkpt lat="48.8157" lon="3.02364">
        <ele>78.1</ele>
        <time>2021-05-23T09:07:10Z</time>
      </trkpt>
      <trkpt lat="48.81569" lon="3.02356">
        <ele>78.4</ele>
        <time>2021-05-23T09:07:11Z</time>
      </trkpt>
      <trkpt lat="48.81554" lon="3.02281">
        <ele>79.2</ele>
        <time>2021-05-23T09:07:21Z</time>
      </trkpt>
      <trkpt lat="48.81552" lon="3.02274">
        <ele>79.3</ele>
        <time>2021-05-23T09:07:22Z</time>
      </trkpt>
      <trkpt lat="48.81545" lon="3.02237">
        <ele>79.1</ele>
        <time>2021-05-23T09:07:27Z</time>
      </trkpt>
      <trkpt lat="48.81544" lon="3.02229">
        <ele>78.8</ele>
        <time>2021-05-23T09:07:28Z</time>
      </trkpt>
      <trkpt lat="48.81542" lon="3.02222">
        <ele>78.7</ele>
        <time>2021-05-23T09:07:29Z</time>
      </trkpt>
      <trkpt lat="48.8154" lon="3.02215">
        <ele>78.5</ele>
        <time>2021-05-23T09:07:30Z</time>
      </trkpt>
      <trkpt lat="48.81538" lon="3.02209">
        <ele>78.3</ele>
        <time>2021-05-23T09:07:31Z</time>
      </trkpt>
      <trkpt lat="48.81536" lon="3.02203">
        <ele>78.2</ele>
        <time>2021-05-23T09:07:32Z</time>
      </trkpt>
      <trkpt lat="48.81523" lon="3.02139">
        <ele>77</ele>
        <time>2021-05-23T09:07:41Z</time>
      </trkpt>
      <trkpt lat="48.81522" lon="3.02132">
        <ele>76.9</ele>
        <time>2021-05-23T09:07:42Z</time>
      </trkpt>
      <trkpt lat="48.81517" lon="3.02104">
        <ele>76.7</ele>
        <time>2021-05-23T09:07:46Z</time>
      </trkpt>
      <trkpt lat="48.81515" lon="3.02097">
        <ele>76.7</ele>
        <time>2021-05-23T09:07:47Z</time>
      </trkpt>
      <trkpt lat="48.81508" lon="3.02062">
        <ele>76.3</ele>
        <time>2021-05-23T09:07:52Z</time>
      </trkpt>
      <trkpt lat="48.81506" lon="3.02055">
        <ele>76.2</ele>
        <time>2021-05-23T09:07:53Z</time>
      </trkpt>
      <trkpt lat="48.81505" lon="3.02048">
        <ele>76.1</ele>
        <time>2021-05-23T09:07:54Z</time>
      </trkpt>
      <trkpt lat="48.81498" lon="3.02011">
        <ele>75.3</ele>
        <time>2021-05-23T09:07:59Z</time>
      </trkpt>
      <trkpt lat="48.8149" lon="3.01982">
        <ele>74.3</ele>
        <time>2021-05-23T09:08:03Z</time>
      </trkpt>
      <trkpt lat="48.81488" lon="3.01974">
        <ele>74</ele>
        <time>2021-05-23T09:08:04Z</time>
      </trkpt>
      <trkpt lat="48.81486" lon="3.01966">
        <ele>73.7</ele>
        <time>2021-05-23T09:08:05Z</time>
      </trkpt>
      <trkpt lat="48.81482" lon="3.01951">
        <ele>73.2</ele>
        <time>2021-05-23T09:08:07Z</time>
      </trkpt>
      <trkpt lat="48.8148" lon="3.01944">
        <ele>73</ele>
        <time>2021-05-23T09:08:08Z</time>
      </trkpt>
      <trkpt lat="48.81478" lon="3.01936">
        <ele>72.8</ele>
        <time>2021-05-23T09:08:09Z</time>
      </trkpt>
      <trkpt lat="48.81474" lon="3.01922">
        <ele>72.4</ele>
        <time>2021-05-23T09:08:11Z</time>
      </trkpt>
      <trkpt lat="48.81459" lon="3.01866">
        <ele>71.7</ele>
        <time>2021-05-23T09:08:19Z</time>
      </trkpt>
      <trkpt lat="48.81435" lon="3.01799">
        <ele>71.2</ele>
        <time>2021-05-23T09:08:32Z</time>
      </trkpt>
      <trkpt lat="48.81416" lon="3.0178">
        <ele>71.4</ele>
        <time>2021-05-23T09:08:37Z</time>
      </trkpt>
      <trkpt lat="48.81403" lon="3.01763">
        <ele>71.4</ele>
        <time>2021-05-23T09:08:40Z</time>
      </trkpt>
      <trkpt lat="48.814" lon="3.01756">
        <ele>71.3</ele>
        <time>2021-05-23T09:08:41Z</time>
      </trkpt>
      <trkpt lat="48.81385" lon="3.01709">
        <ele>70.7</ele>
        <time>2021-05-23T09:08:47Z</time>
      </trkpt>
      <trkpt lat="48.81348" lon="3.01578">
        <ele>66.1</ele>
        <time>2021-05-23T09:09:02Z</time>
      </trkpt>
      <trkpt lat="48.81322" lon="3.01519">
        <ele>64.2</ele>
        <time>2021-05-23T09:09:10Z</time>
      </trkpt>
      <trkpt lat="48.81297" lon="3.01467">
        <ele>63.6</ele>
        <time>2021-05-23T09:09:21Z</time>
      </trkpt>
      <trkpt lat="48.81298" lon="3.01466">
        <ele>63.6</ele>
        <time>2021-05-23T09:09:38Z</time>
      </trkpt>
      <trkpt lat="48.81286" lon="3.01454">
        <ele>63.5</ele>
        <time>2021-05-23T09:09:44Z</time>
      </trkpt>
      <trkpt lat="48.81264" lon="3.0144">
        <ele>63.2</ele>
        <time>2021-05-23T09:09:49Z</time>
      </trkpt>
      <trkpt lat="48.81241" lon="3.01425">
        <ele>62.9</ele>
        <time>2021-05-23T09:09:54Z</time>
      </trkpt>
      <trkpt lat="48.81237" lon="3.01421">
        <ele>62.8</ele>
        <time>2021-05-23T09:09:55Z</time>
      </trkpt>
      <trkpt lat="48.81223" lon="3.01406">
        <ele>63.2</ele>
        <time>2021-05-23T09:09:59Z</time>
      </trkpt>
      <trkpt lat="48.81219" lon="3.01406">
        <ele>63.4</ele>
        <time>2021-05-23T09:10:00Z</time>
      </trkpt>
      <trkpt lat="48.81216" lon="3.01407">
        <ele>63.5</ele>
        <time>2021-05-23T09:10:01Z</time>
      </trkpt>
      <trkpt lat="48.81187" lon="3.01422">
        <ele>65.1</ele>
        <time>2021-05-23T09:10:09Z</time>
      </trkpt>
      <trkpt lat="48.81182" lon="3.01423">
        <ele>65.3</ele>
        <time>2021-05-23T09:10:10Z</time>
      </trkpt>
      <trkpt lat="48.81178" lon="3.01425">
        <ele>65.5</ele>
        <time>2021-05-23T09:10:11Z</time>
      </trkpt>
      <trkpt lat="48.81174" lon="3.01427">
        <ele>65.7</ele>
        <time>2021-05-23T09:10:12Z</time>
      </trkpt>
      <trkpt lat="48.8117" lon="3.0143">
        <ele>65.9</ele>
        <time>2021-05-23T09:10:13Z</time>
      </trkpt>
      <trkpt lat="48.81166" lon="3.01434">
        <ele>66</ele>
        <time>2021-05-23T09:10:14Z</time>
      </trkpt>
      <trkpt lat="48.81162" lon="3.01437">
        <ele>66</ele>
        <time>2021-05-23T09:10:15Z</time>
      </trkpt>
      <trkpt lat="48.81154" lon="3.01445">
        <ele>65.8</ele>
        <time>2021-05-23T09:10:17Z</time>
      </trkpt>
      <trkpt lat="48.81143" lon="3.01459">
        <ele>65.6</ele>
        <time>2021-05-23T09:10:20Z</time>
      </trkpt>
      <trkpt lat="48.81139" lon="3.01464">
        <ele>65.4</ele>
        <time>2021-05-23T09:10:21Z</time>
      </trkpt>
      <trkpt lat="48.81087" lon="3.01517">
        <ele>63.3</ele>
        <time>2021-05-23T09:10:34Z</time>
      </trkpt>
      <trkpt lat="48.81033" lon="3.01587">
        <ele>64.8</ele>
        <time>2021-05-23T09:10:49Z</time>
      </trkpt>
      <trkpt lat="48.81016" lon="3.0161">
        <ele>65.8</ele>
        <time>2021-05-23T09:10:54Z</time>
      </trkpt>
      <trkpt lat="48.81" lon="3.01622">
        <ele>66.4</ele>
        <time>2021-05-23T09:10:58Z</time>
      </trkpt>
      <trkpt lat="48.80995" lon="3.01624">
        <ele>66.5</ele>
        <time>2021-05-23T09:10:59Z</time>
      </trkpt>
      <trkpt lat="48.80987" lon="3.01626">
        <ele>66.6</ele>
        <time>2021-05-23T09:11:01Z</time>
      </trkpt>
      <trkpt lat="48.8092" lon="3.01637">
        <ele>67.6</ele>
        <time>2021-05-23T09:11:16Z</time>
      </trkpt>
      <trkpt lat="48.80853" lon="3.01651">
        <ele>68.7</ele>
        <time>2021-05-23T09:11:29Z</time>
      </trkpt>
      <trkpt lat="48.80834" lon="3.01653">
        <ele>68.8</ele>
        <time>2021-05-23T09:11:33Z</time>
      </trkpt>
      <trkpt lat="48.80829" lon="3.01654">
        <ele>68.8</ele>
        <time>2021-05-23T09:11:34Z</time>
      </trkpt>
      <trkpt lat="48.80811" lon="3.01659">
        <ele>68.9</ele>
        <time>2021-05-23T09:11:38Z</time>
      </trkpt>
      <trkpt lat="48.80805" lon="3.01661">
        <ele>68.9</ele>
        <time>2021-05-23T09:11:39Z</time>
      </trkpt>
      <trkpt lat="48.80776" lon="3.01673">
        <ele>69.8</ele>
        <time>2021-05-23T09:11:45Z</time>
      </trkpt>
      <trkpt lat="48.80771" lon="3.01675">
        <ele>70</ele>
        <time>2021-05-23T09:11:46Z</time>
      </trkpt>
      <trkpt lat="48.80732" lon="3.01697">
        <ele>72.3</ele>
        <time>2021-05-23T09:11:53Z</time>
      </trkpt>
      <trkpt lat="48.80727" lon="3.017">
        <ele>72.6</ele>
        <time>2021-05-23T09:11:54Z</time>
      </trkpt>
      <trkpt lat="48.80722" lon="3.01702">
        <ele>72.8</ele>
        <time>2021-05-23T09:11:55Z</time>
      </trkpt>
      <trkpt lat="48.80717" lon="3.01705">
        <ele>73</ele>
        <time>2021-05-23T09:11:56Z</time>
      </trkpt>
      <trkpt lat="48.80713" lon="3.01707">
        <ele>73.2</ele>
        <time>2021-05-23T09:11:57Z</time>
      </trkpt>
      <trkpt lat="48.80707" lon="3.01709">
        <ele>73.3</ele>
        <time>2021-05-23T09:11:58Z</time>
      </trkpt>
      <trkpt lat="48.80696" lon="3.01712">
        <ele>73.4</ele>
        <time>2021-05-23T09:12:00Z</time>
      </trkpt>
      <trkpt lat="48.80651" lon="3.0172">
        <ele>72.6</ele>
        <time>2021-05-23T09:12:09Z</time>
      </trkpt>
      <trkpt lat="48.80568" lon="3.01748">
        <ele>68.4</ele>
        <time>2021-05-23T09:12:24Z</time>
      </trkpt>
      <trkpt lat="48.80506" lon="3.01763">
        <ele>66.7</ele>
        <time>2021-05-23T09:12:36Z</time>
      </trkpt>
      <trkpt lat="48.80501" lon="3.01761">
        <ele>66.5</ele>
        <time>2021-05-23T09:12:37Z</time>
      </trkpt>
      <trkpt lat="48.80498" lon="3.01757">
        <ele>66.3</ele>
        <time>2021-05-23T09:12:38Z</time>
      </trkpt>
      <trkpt lat="48.80496" lon="3.0175">
        <ele>66</ele>
        <time>2021-05-23T09:12:39Z</time>
      </trkpt>
      <trkpt lat="48.80495" lon="3.01743">
        <ele>65.9</ele>
        <time>2021-05-23T09:12:40Z</time>
      </trkpt>
      <trkpt lat="48.80495" lon="3.01735">
        <ele>65.8</ele>
        <time>2021-05-23T09:12:41Z</time>
      </trkpt>
      <trkpt lat="48.80495" lon="3.01727">
        <ele>65.7</ele>
        <time>2021-05-23T09:12:42Z</time>
      </trkpt>
      <trkpt lat="48.80495" lon="3.0172">
        <ele>65.6</ele>
        <time>2021-05-23T09:12:43Z</time>
      </trkpt>
      <trkpt lat="48.80495" lon="3.01685">
        <ele>65.2</ele>
        <time>2021-05-23T09:12:48Z</time>
      </trkpt>
      <trkpt lat="48.80495" lon="3.01678">
        <ele>65.1</ele>
        <time>2021-05-23T09:12:49Z</time>
      </trkpt>
      <trkpt lat="48.80489" lon="3.01625">
        <ele>65.4</ele>
        <time>2021-05-23T09:12:58Z</time>
      </trkpt>
      <trkpt lat="48.80487" lon="3.01611">
        <ele>65.6</ele>
        <time>2021-05-23T09:13:00Z</time>
      </trkpt>
      <trkpt lat="48.80483" lon="3.01592">
        <ele>65.7</ele>
        <time>2021-05-23T09:13:03Z</time>
      </trkpt>
      <trkpt lat="48.8048" lon="3.01589">
        <ele>65.7</ele>
        <time>2021-05-23T09:13:04Z</time>
      </trkpt>
      <trkpt lat="48.80475" lon="3.01586">
        <ele>65.7</ele>
        <time>2021-05-23T09:13:05Z</time>
      </trkpt>
      <trkpt lat="48.8047" lon="3.01585">
        <ele>65.6</ele>
        <time>2021-05-23T09:13:06Z</time>
      </trkpt>
      <trkpt lat="48.80464" lon="3.01584">
        <ele>65.6</ele>
        <time>2021-05-23T09:13:07Z</time>
      </trkpt>
      <trkpt lat="48.80423" lon="3.01574">
        <ele>65.6</ele>
        <time>2021-05-23T09:13:15Z</time>
      </trkpt>
      <trkpt lat="48.80404" lon="3.01572">
        <ele>65.9</ele>
        <time>2021-05-23T09:13:19Z</time>
      </trkpt>
      <trkpt lat="48.80399" lon="3.01574">
        <ele>65.9</ele>
        <time>2021-05-23T09:13:20Z</time>
      </trkpt>
      <trkpt lat="48.80389" lon="3.01578">
        <ele>65.9</ele>
        <time>2021-05-23T09:13:22Z</time>
      </trkpt>
      <trkpt lat="48.80384" lon="3.01581">
        <ele>65.9</ele>
        <time>2021-05-23T09:13:23Z</time>
      </trkpt>
      <trkpt lat="48.80374" lon="3.01587">
        <ele>66</ele>
        <time>2021-05-23T09:13:25Z</time>
      </trkpt>
      <trkpt lat="48.80369" lon="3.01589">
        <ele>66.1</ele>
        <time>2021-05-23T09:13:26Z</time>
      </trkpt>
      <trkpt lat="48.80325" lon="3.01595">
        <ele>66.6</ele>
        <time>2021-05-23T09:13:34Z</time>
      </trkpt>
      <trkpt lat="48.8032" lon="3.01598">
        <ele>66.4</ele>
        <time>2021-05-23T09:13:35Z</time>
      </trkpt>
      <trkpt lat="48.80315" lon="3.01602">
        <ele>66.3</ele>
        <time>2021-05-23T09:13:36Z</time>
      </trkpt>
      <trkpt lat="48.80311" lon="3.01606">
        <ele>66.1</ele>
        <time>2021-05-23T09:13:37Z</time>
      </trkpt>
      <trkpt lat="48.80306" lon="3.01611">
        <ele>66</ele>
        <time>2021-05-23T09:13:38Z</time>
      </trkpt>
      <trkpt lat="48.80257" lon="3.01665">
        <ele>66</ele>
        <time>2021-05-23T09:13:49Z</time>
      </trkpt>
      <trkpt lat="48.80251" lon="3.01668">
        <ele>66</ele>
        <time>2021-05-23T09:13:50Z</time>
      </trkpt>
      <trkpt lat="48.80246" lon="3.0167">
        <ele>66.1</ele>
        <time>2021-05-23T09:13:51Z</time>
      </trkpt>
      <trkpt lat="48.80241" lon="3.01671">
        <ele>66.2</ele>
        <time>2021-05-23T09:13:52Z</time>
      </trkpt>
      <trkpt lat="48.80235" lon="3.01671">
        <ele>66.2</ele>
        <time>2021-05-23T09:13:53Z</time>
      </trkpt>
      <trkpt lat="48.8016" lon="3.01667">
        <ele>65.9</ele>
        <time>2021-05-23T09:14:08Z</time>
      </trkpt>
      <trkpt lat="48.80145" lon="3.01666">
        <ele>65.7</ele>
        <time>2021-05-23T09:14:11Z</time>
      </trkpt>
      <trkpt lat="48.80082" lon="3.01655">
        <ele>65</ele>
        <time>2021-05-23T09:14:24Z</time>
      </trkpt>
      <trkpt lat="48.80077" lon="3.01653">
        <ele>65.2</ele>
        <time>2021-05-23T09:14:25Z</time>
      </trkpt>
      <trkpt lat="48.80045" lon="3.01645">
        <ele>66</ele>
        <time>2021-05-23T09:14:32Z</time>
      </trkpt>
      <trkpt lat="48.79967" lon="3.0162">
        <ele>67.1</ele>
        <time>2021-05-23T09:14:48Z</time>
      </trkpt>
      <trkpt lat="48.79947" lon="3.01609">
        <ele>67.2</ele>
        <time>2021-05-23T09:14:52Z</time>
      </trkpt>
      <trkpt lat="48.79942" lon="3.01609">
        <ele>67.3</ele>
        <time>2021-05-23T09:14:53Z</time>
      </trkpt>
      <trkpt lat="48.79893" lon="3.01613">
        <ele>68.5</ele>
        <time>2021-05-23T09:15:02Z</time>
      </trkpt>
      <trkpt lat="48.79887" lon="3.01613">
        <ele>68.7</ele>
        <time>2021-05-23T09:15:03Z</time>
      </trkpt>
      <trkpt lat="48.79865" lon="3.0161">
        <ele>69</ele>
        <time>2021-05-23T09:15:07Z</time>
      </trkpt>
      <trkpt lat="48.79845" lon="3.01598">
        <ele>69.1</ele>
        <time>2021-05-23T09:15:11Z</time>
      </trkpt>
      <trkpt lat="48.79816" lon="3.01581">
        <ele>69.3</ele>
        <time>2021-05-23T09:15:17Z</time>
      </trkpt>
      <trkpt lat="48.79806" lon="3.01579">
        <ele>69.5</ele>
        <time>2021-05-23T09:15:19Z</time>
      </trkpt>
      <trkpt lat="48.79801" lon="3.01579">
        <ele>69.5</ele>
        <time>2021-05-23T09:15:20Z</time>
      </trkpt>
      <trkpt lat="48.79773" lon="3.01581">
        <ele>69.8</ele>
        <time>2021-05-23T09:15:25Z</time>
      </trkpt>
      <trkpt lat="48.79767" lon="3.0158">
        <ele>69.9</ele>
        <time>2021-05-23T09:15:26Z</time>
      </trkpt>
      <trkpt lat="48.79762" lon="3.01578">
        <ele>70.1</ele>
        <time>2021-05-23T09:15:27Z</time>
      </trkpt>
      <trkpt lat="48.79736" lon="3.01568">
        <ele>70.6</ele>
        <time>2021-05-23T09:15:32Z</time>
      </trkpt>
      <trkpt lat="48.79691" lon="3.01573">
        <ele>70.5</ele>
        <time>2021-05-23T09:15:41Z</time>
      </trkpt>
      <trkpt lat="48.79671" lon="3.01574">
        <ele>70.4</ele>
        <time>2021-05-23T09:15:45Z</time>
      </trkpt>
      <trkpt lat="48.79666" lon="3.01573">
        <ele>70.5</ele>
        <time>2021-05-23T09:15:46Z</time>
      </trkpt>
      <trkpt lat="48.79662" lon="3.01571">
        <ele>70.8</ele>
        <time>2021-05-23T09:15:47Z</time>
      </trkpt>
      <trkpt lat="48.79658" lon="3.01568">
        <ele>71.1</ele>
        <time>2021-05-23T09:15:48Z</time>
      </trkpt>
      <trkpt lat="48.79655" lon="3.01565">
        <ele>71.4</ele>
        <time>2021-05-23T09:15:49Z</time>
      </trkpt>
      <trkpt lat="48.79635" lon="3.0154">
        <ele>73.4</ele>
        <time>2021-05-23T09:16:00Z</time>
      </trkpt>
      <trkpt lat="48.79631" lon="3.01535">
        <ele>73.8</ele>
        <time>2021-05-23T09:16:03Z</time>
      </trkpt>
      <trkpt lat="48.79629" lon="3.01534">
        <ele>73.9</ele>
        <time>2021-05-23T09:16:04Z</time>
      </trkpt>
      <trkpt lat="48.79628" lon="3.01533">
        <ele>74</ele>
        <time>2021-05-23T09:16:05Z</time>
      </trkpt>
      <trkpt lat="48.79626" lon="3.01532">
        <ele>74.1</ele>
        <time>2021-05-23T09:16:06Z</time>
      </trkpt>
      <trkpt lat="48.79615" lon="3.01525">
        <ele>74.8</ele>
        <time>2021-05-23T09:16:15Z</time>
      </trkpt>
      <trkpt lat="48.79614" lon="3.01522">
        <ele>75</ele>
        <time>2021-05-23T09:16:16Z</time>
      </trkpt>
      <trkpt lat="48.79593" lon="3.01508">
        <ele>76.4</ele>
        <time>2021-05-23T09:16:27Z</time>
      </trkpt>
      <trkpt lat="48.79591" lon="3.0151">
        <ele>76.4</ele>
        <time>2021-05-23T09:16:28Z</time>
      </trkpt>
      <trkpt lat="48.79554" lon="3.01524">
        <ele>76.1</ele>
        <time>2021-05-23T09:16:38Z</time>
      </trkpt>
      <trkpt lat="48.79516" lon="3.01517">
        <ele>76.1</ele>
        <time>2021-05-23T09:16:49Z</time>
      </trkpt>
      <trkpt lat="48.79486" lon="3.01517">
        <ele>75.7</ele>
        <time>2021-05-23T09:16:56Z</time>
      </trkpt>
      <trkpt lat="48.7948" lon="3.01516">
        <ele>75.5</ele>
        <time>2021-05-23T09:16:57Z</time>
      </trkpt>
      <trkpt lat="48.79474" lon="3.01515">
        <ele>75.4</ele>
        <time>2021-05-23T09:16:58Z</time>
      </trkpt>
      <trkpt lat="48.79425" lon="3.01506">
        <ele>74.2</ele>
        <time>2021-05-23T09:17:08Z</time>
      </trkpt>
      <trkpt lat="48.79419" lon="3.01505">
        <ele>74.1</ele>
        <time>2021-05-23T09:17:09Z</time>
      </trkpt>
      <trkpt lat="48.79414" lon="3.01502">
        <ele>74.1</ele>
        <time>2021-05-23T09:17:10Z</time>
      </trkpt>
      <trkpt lat="48.79409" lon="3.01498">
        <ele>74.2</ele>
        <time>2021-05-23T09:17:11Z</time>
      </trkpt>
      <trkpt lat="48.79405" lon="3.01494">
        <ele>74.5</ele>
        <time>2021-05-23T09:17:12Z</time>
      </trkpt>
      <trkpt lat="48.794" lon="3.0149">
        <ele>74.7</ele>
        <time>2021-05-23T09:17:13Z</time>
      </trkpt>
      <trkpt lat="48.79396" lon="3.01487">
        <ele>74.8</ele>
        <time>2021-05-23T09:17:14Z</time>
      </trkpt>
      <trkpt lat="48.79392" lon="3.01484">
        <ele>75</ele>
        <time>2021-05-23T09:17:15Z</time>
      </trkpt>
      <trkpt lat="48.79347" lon="3.01442">
        <ele>75.4</ele>
        <time>2021-05-23T09:17:27Z</time>
      </trkpt>
      <trkpt lat="48.79301" lon="3.01393">
        <ele>77.2</ele>
        <time>2021-05-23T09:17:39Z</time>
      </trkpt>
      <trkpt lat="48.79266" lon="3.0135">
        <ele>80.3</ele>
        <time>2021-05-23T09:17:49Z</time>
      </trkpt>
      <trkpt lat="48.79229" lon="3.01318">
        <ele>82.3</ele>
        <time>2021-05-23T09:18:00Z</time>
      </trkpt>
      <trkpt lat="48.79207" lon="3.01306">
        <ele>82.5</ele>
        <time>2021-05-23T09:18:06Z</time>
      </trkpt>
      <trkpt lat="48.7919" lon="3.01295">
        <ele>82.7</ele>
        <time>2021-05-23T09:18:10Z</time>
      </trkpt>
      <trkpt lat="48.79155" lon="3.01284">
        <ele>81.8</ele>
        <time>2021-05-23T09:18:17Z</time>
      </trkpt>
      <trkpt lat="48.79132" lon="3.01276">
        <ele>81.9</ele>
        <time>2021-05-23T09:18:22Z</time>
      </trkpt>
      <trkpt lat="48.79116" lon="3.01271">
        <ele>82</ele>
        <time>2021-05-23T09:18:25Z</time>
      </trkpt>
      <trkpt lat="48.79107" lon="3.01267">
        <ele>82.2</ele>
        <time>2021-05-23T09:18:27Z</time>
      </trkpt>
      <trkpt lat="48.79082" lon="3.01249">
        <ele>84.1</ele>
        <time>2021-05-23T09:18:33Z</time>
      </trkpt>
      <trkpt lat="48.79069" lon="3.01239">
        <ele>85.8</ele>
        <time>2021-05-23T09:18:37Z</time>
      </trkpt>
      <trkpt lat="48.79046" lon="3.01242">
        <ele>85.2</ele>
        <time>2021-05-23T09:18:43Z</time>
      </trkpt>
      <trkpt lat="48.79014" lon="3.01265">
        <ele>82.1</ele>
        <time>2021-05-23T09:18:51Z</time>
      </trkpt>
      <trkpt lat="48.78989" lon="3.01288">
        <ele>79.8</ele>
        <time>2021-05-23T09:18:59Z</time>
      </trkpt>
      <trkpt lat="48.78958" lon="3.01315">
        <ele>77.9</ele>
        <time>2021-05-23T09:19:10Z</time>
      </trkpt>
      <trkpt lat="48.78954" lon="3.01318">
        <ele>77.7</ele>
        <time>2021-05-23T09:19:11Z</time>
      </trkpt>
      <trkpt lat="48.7894" lon="3.01327">
        <ele>77.5</ele>
        <time>2021-05-23T09:19:15Z</time>
      </trkpt>
      <trkpt lat="48.78928" lon="3.01339">
        <ele>77.2</ele>
        <time>2021-05-23T09:19:19Z</time>
      </trkpt>
      <trkpt lat="48.78892" lon="3.01381">
        <ele>77.5</ele>
        <time>2021-05-23T09:19:30Z</time>
      </trkpt>
      <trkpt lat="48.78874" lon="3.01399">
        <ele>77.8</ele>
        <time>2021-05-23T09:19:35Z</time>
      </trkpt>
      <trkpt lat="48.78837" lon="3.01441">
        <ele>77.1</ele>
        <time>2021-05-23T09:19:46Z</time>
      </trkpt>
      <trkpt lat="48.78794" lon="3.0149">
        <ele>76.5</ele>
        <time>2021-05-23T09:19:59Z</time>
      </trkpt>
      <trkpt lat="48.78753" lon="3.01534">
        <ele>78.4</ele>
        <time>2021-05-23T09:20:11Z</time>
      </trkpt>
      <trkpt lat="48.78729" lon="3.01562">
        <ele>81.3</ele>
        <time>2021-05-23T09:20:22Z</time>
      </trkpt>
      <trkpt lat="48.78702" lon="3.01597">
        <ele>83.7</ele>
        <time>2021-05-23T09:20:33Z</time>
      </trkpt>
      <trkpt lat="48.78699" lon="3.01601">
        <ele>83.9</ele>
        <time>2021-05-23T09:20:35Z</time>
      </trkpt>
      <trkpt lat="48.78688" lon="3.01614">
        <ele>84.5</ele>
        <time>2021-05-23T09:20:40Z</time>
      </trkpt>
      <trkpt lat="48.78671" lon="3.01635">
        <ele>84.8</ele>
        <time>2021-05-23T09:20:48Z</time>
      </trkpt>
      <trkpt lat="48.78659" lon="3.01688">
        <ele>82</ele>
        <time>2021-05-23T09:20:59Z</time>
      </trkpt>
      <trkpt lat="48.78649" lon="3.01757">
        <ele>78.1</ele>
        <time>2021-05-23T09:21:08Z</time>
      </trkpt>
      <trkpt lat="48.78642" lon="3.0177">
        <ele>78.2</ele>
        <time>2021-05-23T09:21:10Z</time>
      </trkpt>
      <trkpt lat="48.78616" lon="3.01803">
        <ele>77.5</ele>
        <time>2021-05-23T09:21:16Z</time>
      </trkpt>
      <trkpt lat="48.78571" lon="3.01872">
        <ele>75</ele>
        <time>2021-05-23T09:21:29Z</time>
      </trkpt>
      <trkpt lat="48.78565" lon="3.01902">
        <ele>74.7</ele>
        <time>2021-05-23T09:21:34Z</time>
      </trkpt>
      <trkpt lat="48.78567" lon="3.01946">
        <ele>75</ele>
        <time>2021-05-23T09:21:43Z</time>
      </trkpt>
      <trkpt lat="48.78565" lon="3.01949">
        <ele>75.1</ele>
        <time>2021-05-23T09:21:44Z</time>
      </trkpt>
      <trkpt lat="48.78535" lon="3.01977">
        <ele>76.2</ele>
        <time>2021-05-23T09:21:54Z</time>
      </trkpt>
      <trkpt lat="48.78506" lon="3.01977">
        <ele>76.6</ele>
        <time>2021-05-23T09:22:03Z</time>
      </trkpt>
      <trkpt lat="48.78504" lon="3.01973">
        <ele>76.6</ele>
        <time>2021-05-23T09:22:04Z</time>
      </trkpt>
      <trkpt lat="48.7849" lon="3.01914">
        <ele>76.1</ele>
        <time>2021-05-23T09:22:17Z</time>
      </trkpt>
      <trkpt lat="48.7849" lon="3.01859">
        <ele>78.1</ele>
        <time>2021-05-23T09:22:31Z</time>
      </trkpt>
      <trkpt lat="48.78489" lon="3.01803">
        <ele>80.1</ele>
        <time>2021-05-23T09:22:46Z</time>
      </trkpt>
      <trkpt lat="48.78484" lon="3.01757">
        <ele>81.7</ele>
        <time>2021-05-23T09:22:59Z</time>
      </trkpt>
      <trkpt lat="48.78473" lon="3.01705">
        <ele>84.3</ele>
        <time>2021-05-23T09:23:16Z</time>
      </trkpt>
      <trkpt lat="48.78464" lon="3.01664">
        <ele>86.6</ele>
        <time>2021-05-23T09:23:32Z</time>
      </trkpt>
      <trkpt lat="48.78456" lon="3.01626">
        <ele>88.7</ele>
        <time>2021-05-23T09:23:46Z</time>
      </trkpt>
      <trkpt lat="48.78453" lon="3.0159">
        <ele>90.8</ele>
        <time>2021-05-23T09:24:00Z</time>
      </trkpt>
      <trkpt lat="48.7845" lon="3.01535">
        <ele>95.2</ele>
        <time>2021-05-23T09:24:17Z</time>
      </trkpt>
      <trkpt lat="48.78449" lon="3.01492">
        <ele>98.5</ele>
        <time>2021-05-23T09:24:31Z</time>
      </trkpt>
      <trkpt lat="48.78453" lon="3.01452">
        <ele>100.7</ele>
        <time>2021-05-23T09:24:45Z</time>
      </trkpt>
      <trkpt lat="48.78477" lon="3.01428">
        <ele>101.7</ele>
        <time>2021-05-23T09:24:59Z</time>
      </trkpt>
      <trkpt lat="48.785" lon="3.01391">
        <ele>102.9</ele>
        <time>2021-05-23T09:25:13Z</time>
      </trkpt>
      <trkpt lat="48.78512" lon="3.01356">
        <ele>104.2</ele>
        <time>2021-05-23T09:25:24Z</time>
      </trkpt>
      <trkpt lat="48.78521" lon="3.0131">
        <ele>105.9</ele>
        <time>2021-05-23T09:25:37Z</time>
      </trkpt>
      <trkpt lat="48.78525" lon="3.01262">
        <ele>107.3</ele>
        <time>2021-05-23T09:25:52Z</time>
      </trkpt>
      <trkpt lat="48.78526" lon="3.0122">
        <ele>108.4</ele>
        <time>2021-05-23T09:26:06Z</time>
      </trkpt>
      <trkpt lat="48.78527" lon="3.01181">
        <ele>109.3</ele>
        <time>2021-05-23T09:26:19Z</time>
      </trkpt>
      <trkpt lat="48.78528" lon="3.01135">
        <ele>111.1</ele>
        <time>2021-05-23T09:26:34Z</time>
      </trkpt>
      <trkpt lat="48.78529" lon="3.01095">
        <ele>112.8</ele>
        <time>2021-05-23T09:26:47Z</time>
      </trkpt>
      <trkpt lat="48.78523" lon="3.01048">
        <ele>114.3</ele>
        <time>2021-05-23T09:27:03Z</time>
      </trkpt>
      <trkpt lat="48.78517" lon="3.00998">
        <ele>115.6</ele>
        <time>2021-05-23T09:27:19Z</time>
      </trkpt>
      <trkpt lat="48.78511" lon="3.00935">
        <ele>116.8</ele>
        <time>2021-05-23T09:27:36Z</time>
      </trkpt>
      <trkpt lat="48.78512" lon="3.00918">
        <ele>117.1</ele>
        <time>2021-05-23T09:27:42Z</time>
      </trkpt>
      <trkpt lat="48.78518" lon="3.00905">
        <ele>117.3</ele>
        <time>2021-05-23T09:27:47Z</time>
      </trkpt>
      <trkpt lat="48.78549" lon="3.00872">
        <ele>117.5</ele>
        <time>2021-05-23T09:28:01Z</time>
      </trkpt>
      <trkpt lat="48.78582" lon="3.00839">
        <ele>117.1</ele>
        <time>2021-05-23T09:28:14Z</time>
      </trkpt>
      <trkpt lat="48.7863" lon="3.00795">
        <ele>117.4</ele>
        <time>2021-05-23T09:28:29Z</time>
      </trkpt>
      <trkpt lat="48.78652" lon="3.00778">
        <ele>117.2</ele>
        <time>2021-05-23T09:28:35Z</time>
      </trkpt>
      <trkpt lat="48.78683" lon="3.0075">
        <ele>117</ele>
        <time>2021-05-23T09:28:43Z</time>
      </trkpt>
      <trkpt lat="48.78752" lon="3.00709">
        <ele>117.5</ele>
        <time>2021-05-23T09:28:59Z</time>
      </trkpt>
      <trkpt lat="48.78823" lon="3.00681">
        <ele>118.1</ele>
        <time>2021-05-23T09:29:14Z</time>
      </trkpt>
      <trkpt lat="48.78827" lon="3.00679">
        <ele>118.1</ele>
        <time>2021-05-23T09:29:15Z</time>
      </trkpt>
      <trkpt lat="48.78894" lon="3.00631">
        <ele>119.9</ele>
        <time>2021-05-23T09:29:30Z</time>
      </trkpt>
      <trkpt lat="48.78975" lon="3.0056">
        <ele>121.8</ele>
        <time>2021-05-23T09:29:50Z</time>
      </trkpt>
      <trkpt lat="48.79041" lon="3.00499">
        <ele>122</ele>
        <time>2021-05-23T09:30:08Z</time>
      </trkpt>
      <trkpt lat="48.79103" lon="3.00443">
        <ele>123.9</ele>
        <time>2021-05-23T09:30:26Z</time>
      </trkpt>
      <trkpt lat="48.79152" lon="3.00397">
        <ele>126</ele>
        <time>2021-05-23T09:30:42Z</time>
      </trkpt>
      <trkpt lat="48.79193" lon="3.00358">
        <ele>127.8</ele>
        <time>2021-05-23T09:30:57Z</time>
      </trkpt>
      <trkpt lat="48.79242" lon="3.00313">
        <ele>128.7</ele>
        <time>2021-05-23T09:31:14Z</time>
      </trkpt>
      <trkpt lat="48.79288" lon="3.00287">
        <ele>128.7</ele>
        <time>2021-05-23T09:31:28Z</time>
      </trkpt>
      <trkpt lat="48.79346" lon="3.00266">
        <ele>129</ele>
        <time>2021-05-23T09:31:43Z</time>
      </trkpt>
      <trkpt lat="48.79412" lon="3.00247">
        <ele>129</ele>
        <time>2021-05-23T09:31:59Z</time>
      </trkpt>
      <trkpt lat="48.79417" lon="3.00247">
        <ele>129</ele>
        <time>2021-05-23T09:32:00Z</time>
      </trkpt>
      <trkpt lat="48.79422" lon="3.00245">
        <ele>129.1</ele>
        <time>2021-05-23T09:32:01Z</time>
      </trkpt>
      <trkpt lat="48.79457" lon="3.00236">
        <ele>130.1</ele>
        <time>2021-05-23T09:32:09Z</time>
      </trkpt>
      <trkpt lat="48.79462" lon="3.00235">
        <ele>130.2</ele>
        <time>2021-05-23T09:32:10Z</time>
      </trkpt>
      <trkpt lat="48.79483" lon="3.0023">
        <ele>130.8</ele>
        <time>2021-05-23T09:32:15Z</time>
      </trkpt>
      <trkpt lat="48.79487" lon="3.0023">
        <ele>130.9</ele>
        <time>2021-05-23T09:32:16Z</time>
      </trkpt>
      <trkpt lat="48.79501" lon="3.0023">
        <ele>131.2</ele>
        <time>2021-05-23T09:32:19Z</time>
      </trkpt>
      <trkpt lat="48.79506" lon="3.00227">
        <ele>131.3</ele>
        <time>2021-05-23T09:32:20Z</time>
      </trkpt>
      <trkpt lat="48.7951" lon="3.00225">
        <ele>131.3</ele>
        <time>2021-05-23T09:32:21Z</time>
      </trkpt>
      <trkpt lat="48.79515" lon="3.00224">
        <ele>131.3</ele>
        <time>2021-05-23T09:32:22Z</time>
      </trkpt>
      <trkpt lat="48.79519" lon="3.00222">
        <ele>131.3</ele>
        <time>2021-05-23T09:32:23Z</time>
      </trkpt>
      <trkpt lat="48.79581" lon="3.00207">
        <ele>131.5</ele>
        <time>2021-05-23T09:32:38Z</time>
      </trkpt>
      <trkpt lat="48.79643" lon="3.00195">
        <ele>131.2</ele>
        <time>2021-05-23T09:32:52Z</time>
      </trkpt>
      <trkpt lat="48.79699" lon="3.0018">
        <ele>131.3</ele>
        <time>2021-05-23T09:33:04Z</time>
      </trkpt>
      <trkpt lat="48.79703" lon="3.00178">
        <ele>131.4</ele>
        <time>2021-05-23T09:33:05Z</time>
      </trkpt>
      <trkpt lat="48.79708" lon="3.00176">
        <ele>131.4</ele>
        <time>2021-05-23T09:33:06Z</time>
      </trkpt>
      <trkpt lat="48.79713" lon="3.00175">
        <ele>131.5</ele>
        <time>2021-05-23T09:33:07Z</time>
      </trkpt>
      <trkpt lat="48.79718" lon="3.00175">
        <ele>131.6</ele>
        <time>2021-05-23T09:33:08Z</time>
      </trkpt>
      <trkpt lat="48.79752" lon="3.00176">
        <ele>131.9</ele>
        <time>2021-05-23T09:33:15Z</time>
      </trkpt>
      <trkpt lat="48.79757" lon="3.00178">
        <ele>132</ele>
        <time>2021-05-23T09:33:16Z</time>
      </trkpt>
      <trkpt lat="48.79832" lon="3.00216">
        <ele>132.4</ele>
        <time>2021-05-23T09:33:31Z</time>
      </trkpt>
      <trkpt lat="48.79905" lon="3.00223">
        <ele>130.9</ele>
        <time>2021-05-23T09:33:46Z</time>
      </trkpt>
      <trkpt lat="48.7991" lon="3.00218">
        <ele>130.9</ele>
        <time>2021-05-23T09:33:48Z</time>
      </trkpt>
      <trkpt lat="48.79909" lon="3.00184">
        <ele>131.7</ele>
        <time>2021-05-23T09:33:57Z</time>
      </trkpt>
      <trkpt lat="48.79908" lon="3.00167">
        <ele>132.1</ele>
        <time>2021-05-23T09:34:00Z</time>
      </trkpt>
      <trkpt lat="48.79908" lon="3.00145">
        <ele>132.1</ele>
        <time>2021-05-23T09:34:04Z</time>
      </trkpt>
      <trkpt lat="48.79909" lon="3.00087">
        <ele>132</ele>
        <time>2021-05-23T09:34:15Z</time>
      </trkpt>
      <trkpt lat="48.79911" lon="3.00069">
        <ele>131.8</ele>
        <time>2021-05-23T09:34:19Z</time>
      </trkpt>
      <trkpt lat="48.79909" lon="2.99992">
        <ele>131.1</ele>
        <time>2021-05-23T09:34:32Z</time>
      </trkpt>
      <trkpt lat="48.79909" lon="2.99985">
        <ele>131.1</ele>
        <time>2021-05-23T09:34:33Z</time>
      </trkpt>
      <trkpt lat="48.79911" lon="2.99965">
        <ele>131.1</ele>
        <time>2021-05-23T09:34:36Z</time>
      </trkpt>
      <trkpt lat="48.7991" lon="2.99924">
        <ele>131.1</ele>
        <time>2021-05-23T09:34:42Z</time>
      </trkpt>
      <trkpt lat="48.79907" lon="2.99841">
        <ele>131</ele>
        <time>2021-05-23T09:34:53Z</time>
      </trkpt>
      <trkpt lat="48.79908" lon="2.99819">
        <ele>130.7</ele>
        <time>2021-05-23T09:34:56Z</time>
      </trkpt>
      <trkpt lat="48.79909" lon="2.99813">
        <ele>130.5</ele>
        <time>2021-05-23T09:34:57Z</time>
      </trkpt>
      <trkpt lat="48.7991" lon="2.99781">
        <ele>129.8</ele>
        <time>2021-05-23T09:35:02Z</time>
      </trkpt>
      <trkpt lat="48.7991" lon="2.99775">
        <ele>129.7</ele>
        <time>2021-05-23T09:35:03Z</time>
      </trkpt>
      <trkpt lat="48.79911" lon="2.99769">
        <ele>129.5</ele>
        <time>2021-05-23T09:35:04Z</time>
      </trkpt>
      <trkpt lat="48.79928" lon="2.99733">
        <ele>128.5</ele>
        <time>2021-05-23T09:35:12Z</time>
      </trkpt>
      <trkpt lat="48.79931" lon="2.99727">
        <ele>128.3</ele>
        <time>2021-05-23T09:35:13Z</time>
      </trkpt>
      <trkpt lat="48.79932" lon="2.99721">
        <ele>128.2</ele>
        <time>2021-05-23T09:35:14Z</time>
      </trkpt>
      <trkpt lat="48.79938" lon="2.99679">
        <ele>127.3</ele>
        <time>2021-05-23T09:35:21Z</time>
      </trkpt>
      <trkpt lat="48.79939" lon="2.99673">
        <ele>127.1</ele>
        <time>2021-05-23T09:35:22Z</time>
      </trkpt>
      <trkpt lat="48.7994" lon="2.99643">
        <ele>126.9</ele>
        <time>2021-05-23T09:35:26Z</time>
      </trkpt>
      <trkpt lat="48.79941" lon="2.99635">
        <ele>126.9</ele>
        <time>2021-05-23T09:35:27Z</time>
      </trkpt>
      <trkpt lat="48.79961" lon="2.99524">
        <ele>126.8</ele>
        <time>2021-05-23T09:35:42Z</time>
      </trkpt>
      <trkpt lat="48.79978" lon="2.99443">
        <ele>127</ele>
        <time>2021-05-23T09:35:53Z</time>
      </trkpt>
      <trkpt lat="48.79988" lon="2.99394">
        <ele>126.8</ele>
        <time>2021-05-23T09:35:59Z</time>
      </trkpt>
      <trkpt lat="48.79989" lon="2.99385">
        <ele>126.7</ele>
        <time>2021-05-23T09:36:00Z</time>
      </trkpt>
      <trkpt lat="48.7999" lon="2.99376">
        <ele>126.6</ele>
        <time>2021-05-23T09:36:01Z</time>
      </trkpt>
      <trkpt lat="48.79993" lon="2.99358">
        <ele>126.4</ele>
        <time>2021-05-23T09:36:03Z</time>
      </trkpt>
      <trkpt lat="48.80018" lon="2.99248">
        <ele>126</ele>
        <time>2021-05-23T09:36:17Z</time>
      </trkpt>
      <trkpt lat="48.80031" lon="2.99194">
        <ele>125.6</ele>
        <time>2021-05-23T09:36:24Z</time>
      </trkpt>
      <trkpt lat="48.80034" lon="2.99179">
        <ele>125.5</ele>
        <time>2021-05-23T09:36:26Z</time>
      </trkpt>
      <trkpt lat="48.80036" lon="2.99172">
        <ele>125.5</ele>
        <time>2021-05-23T09:36:27Z</time>
      </trkpt>
      <trkpt lat="48.80043" lon="2.99149">
        <ele>125.4</ele>
        <time>2021-05-23T09:36:30Z</time>
      </trkpt>
      <trkpt lat="48.80067" lon="2.99043">
        <ele>125.6</ele>
        <time>2021-05-23T09:36:45Z</time>
      </trkpt>
      <trkpt lat="48.80068" lon="2.9903">
        <ele>125.8</ele>
        <time>2021-05-23T09:36:47Z</time>
      </trkpt>
      <trkpt lat="48.80068" lon="2.99024">
        <ele>125.8</ele>
        <time>2021-05-23T09:36:48Z</time>
      </trkpt>
      <trkpt lat="48.80067" lon="2.99017">
        <ele>125.9</ele>
        <time>2021-05-23T09:36:49Z</time>
      </trkpt>
      <trkpt lat="48.80068" lon="2.98996">
        <ele>126.2</ele>
        <time>2021-05-23T09:36:52Z</time>
      </trkpt>
      <trkpt lat="48.80067" lon="2.98989">
        <ele>126.3</ele>
        <time>2021-05-23T09:36:53Z</time>
      </trkpt>
      <trkpt lat="48.8005" lon="2.98876">
        <ele>126.8</ele>
        <time>2021-05-23T09:37:09Z</time>
      </trkpt>
      <trkpt lat="48.80048" lon="2.98868">
        <ele>126.8</ele>
        <time>2021-05-23T09:37:10Z</time>
      </trkpt>
      <trkpt lat="48.80046" lon="2.98862">
        <ele>126.8</ele>
        <time>2021-05-23T09:37:11Z</time>
      </trkpt>
      <trkpt lat="48.80043" lon="2.98857">
        <ele>126.9</ele>
        <time>2021-05-23T09:37:12Z</time>
      </trkpt>
      <trkpt lat="48.80041" lon="2.98851">
        <ele>126.9</ele>
        <time>2021-05-23T09:37:13Z</time>
      </trkpt>
      <trkpt lat="48.80038" lon="2.98846">
        <ele>126.9</ele>
        <time>2021-05-23T09:37:14Z</time>
      </trkpt>
      <trkpt lat="48.80037" lon="2.98841">
        <ele>126.9</ele>
        <time>2021-05-23T09:37:15Z</time>
      </trkpt>
      <trkpt lat="48.80035" lon="2.98834">
        <ele>127</ele>
        <time>2021-05-23T09:37:16Z</time>
      </trkpt>
      <trkpt lat="48.80034" lon="2.98826">
        <ele>126.9</ele>
        <time>2021-05-23T09:37:17Z</time>
      </trkpt>
      <trkpt lat="48.80034" lon="2.98818">
        <ele>126.8</ele>
        <time>2021-05-23T09:37:18Z</time>
      </trkpt>
      <trkpt lat="48.80033" lon="2.98811">
        <ele>126.7</ele>
        <time>2021-05-23T09:37:19Z</time>
      </trkpt>
      <trkpt lat="48.80032" lon="2.98804">
        <ele>126.6</ele>
        <time>2021-05-23T09:37:20Z</time>
      </trkpt>
      <trkpt lat="48.80031" lon="2.98797">
        <ele>126.6</ele>
        <time>2021-05-23T09:37:21Z</time>
      </trkpt>
      <trkpt lat="48.80022" lon="2.98719">
        <ele>125.6</ele>
        <time>2021-05-23T09:37:32Z</time>
      </trkpt>
      <trkpt lat="48.80019" lon="2.98706">
        <ele>125.5</ele>
        <time>2021-05-23T09:37:34Z</time>
      </trkpt>
      <trkpt lat="48.80002" lon="2.98611">
        <ele>125</ele>
        <time>2021-05-23T09:37:47Z</time>
      </trkpt>
      <trkpt lat="48.8" lon="2.98605">
        <ele>125</ele>
        <time>2021-05-23T09:37:48Z</time>
      </trkpt>
      <trkpt lat="48.79997" lon="2.986">
        <ele>125</ele>
        <time>2021-05-23T09:37:49Z</time>
      </trkpt>
      <trkpt lat="48.79994" lon="2.98595">
        <ele>124.9</ele>
        <time>2021-05-23T09:37:50Z</time>
      </trkpt>
      <trkpt lat="48.7999" lon="2.98591">
        <ele>124.9</ele>
        <time>2021-05-23T09:37:51Z</time>
      </trkpt>
      <trkpt lat="48.79986" lon="2.98587">
        <ele>124.8</ele>
        <time>2021-05-23T09:37:52Z</time>
      </trkpt>
      <trkpt lat="48.79982" lon="2.98585">
        <ele>124.8</ele>
        <time>2021-05-23T09:37:53Z</time>
      </trkpt>
      <trkpt lat="48.79977" lon="2.98585">
        <ele>124.7</ele>
        <time>2021-05-23T09:37:54Z</time>
      </trkpt>
      <trkpt lat="48.79973" lon="2.98587">
        <ele>124.7</ele>
        <time>2021-05-23T09:37:55Z</time>
      </trkpt>
      <trkpt lat="48.7997" lon="2.98589">
        <ele>124.6</ele>
        <time>2021-05-23T09:37:56Z</time>
      </trkpt>
      <trkpt lat="48.79967" lon="2.98592">
        <ele>124.6</ele>
        <time>2021-05-23T09:37:57Z</time>
      </trkpt>
      <trkpt lat="48.79965" lon="2.98595">
        <ele>124.6</ele>
        <time>2021-05-23T09:37:58Z</time>
      </trkpt>
      <trkpt lat="48.79954" lon="2.98606">
        <ele>124.4</ele>
        <time>2021-05-23T09:38:08Z</time>
      </trkpt>
      <trkpt lat="48.79954" lon="2.98604">
        <ele>124.4</ele>
        <time>2021-05-23T09:38:23Z</time>
      </trkpt>
      <trkpt lat="48.79952" lon="2.98604">
        <ele>124.4</ele>
        <time>2021-05-23T09:38:52Z</time>
      </trkpt>
      <trkpt lat="48.79953" lon="2.98605">
        <ele>124.4</ele>
        <time>2021-05-23T09:39:18Z</time>
      </trkpt>
      <trkpt lat="48.79952" lon="2.98603">
        <ele>124.4</ele>
        <time>2021-05-23T09:39:49Z</time>
      </trkpt>
      <trkpt lat="48.79951" lon="2.98603">
        <ele>124.4</ele>
        <time>2021-05-23T09:40:19Z</time>
      </trkpt>
      <trkpt lat="48.79953" lon="2.98601">
        <ele>124.4</ele>
        <time>2021-05-23T09:40:37Z</time>
      </trkpt>
      <trkpt lat="48.79956" lon="2.986">
        <ele>124.5</ele>
        <time>2021-05-23T09:40:48Z</time>
      </trkpt>
      <trkpt lat="48.79956" lon="2.986">
        <ele>124.5</ele>
        <time>2021-05-23T09:40:52Z</time>
      </trkpt>
      <trkpt lat="48.79956" lon="2.98601">
        <ele>124.5</ele>
        <time>2021-05-23T09:41:04Z</time>
      </trkpt>
      <trkpt lat="48.79956" lon="2.98603">
        <ele>124.5</ele>
        <time>2021-05-23T09:41:30Z</time>
      </trkpt>
      <trkpt lat="48.79957" lon="2.98604">
        <ele>124.5</ele>
        <time>2021-05-23T09:42:02Z</time>
      </trkpt>
      <trkpt lat="48.79956" lon="2.98605">
        <ele>124.5</ele>
        <time>2021-05-23T09:42:38Z</time>
      </trkpt>
      <trkpt lat="48.79955" lon="2.98606">
        <ele>124.5</ele>
        <time>2021-05-23T09:43:14Z</time>
      </trkpt>
      <trkpt lat="48.79956" lon="2.98609">
        <ele>124.5</ele>
        <time>2021-05-23T09:43:44Z</time>
      </trkpt>
      <trkpt lat="48.79957" lon="2.98609">
        <ele>124.5</ele>
        <time>2021-05-23T09:44:14Z</time>
      </trkpt>
      <trkpt lat="48.79954" lon="2.98609">
        <ele>124.5</ele>
        <time>2021-05-23T09:44:44Z</time>
      </trkpt>
      <trkpt lat="48.79955" lon="2.98608">
        <ele>124.5</ele>
        <time>2021-05-23T09:45:16Z</time>
      </trkpt>
      <trkpt lat="48.79956" lon="2.98608">
        <ele>124.5</ele>
        <time>2021-05-23T09:45:44Z</time>
      </trkpt>
      <trkpt lat="48.79955" lon="2.98608">
        <ele>124.5</ele>
        <time>2021-05-23T09:46:17Z</time>
      </trkpt>
      <trkpt lat="48.79956" lon="2.98608">
        <ele>124.5</ele>
        <time>2021-05-23T09:46:49Z</time>
      </trkpt>
      <trkpt lat="48.79957" lon="2.98607">
        <ele>124.5</ele>
        <time>2021-05-23T09:47:24Z</time>
      </trkpt>
      <trkpt lat="48.79957" lon="2.98609">
        <ele>124.5</ele>
        <time>2021-05-23T09:47:54Z</time>
      </trkpt>
      <trkpt lat="48.79957" lon="2.98609">
        <ele>124.5</ele>
        <time>2021-05-23T09:48:22Z</time>
      </trkpt>
      <trkpt lat="48.79955" lon="2.98609">
        <ele>124.5</ele>
        <time>2021-05-23T09:49:02Z</time>
      </trkpt>
      <trkpt lat="48.79955" lon="2.98613">
        <ele>124.5</ele>
        <time>2021-05-23T09:49:10Z</time>
      </trkpt>
      <trkpt lat="48.79955" lon="2.98615">
        <ele>124.5</ele>
        <time>2021-05-23T09:49:11Z</time>
      </trkpt>
      <trkpt lat="48.79955" lon="2.98617">
        <ele>124.5</ele>
        <time>2021-05-23T09:49:12Z</time>
      </trkpt>
      <trkpt lat="48.79952" lon="2.98623">
        <ele>124.4</ele>
        <time>2021-05-23T09:49:22Z</time>
      </trkpt>
      <trkpt lat="48.7995" lon="2.9862">
        <ele>124.4</ele>
        <time>2021-05-23T09:49:24Z</time>
      </trkpt>
      <trkpt lat="48.79949" lon="2.98619">
        <ele>124.4</ele>
        <time>2021-05-23T09:49:25Z</time>
      </trkpt>
      <trkpt lat="48.79949" lon="2.98617">
        <ele>124.4</ele>
        <time>2021-05-23T09:49:26Z</time>
      </trkpt>
      <trkpt lat="48.79949" lon="2.98615">
        <ele>124.4</ele>
        <time>2021-05-23T09:49:27Z</time>
      </trkpt>
      <trkpt lat="48.79949" lon="2.98613">
        <ele>124.4</ele>
        <time>2021-05-23T09:49:28Z</time>
      </trkpt>
      <trkpt lat="48.79951" lon="2.98592">
        <ele>124.4</ele>
        <time>2021-05-23T09:49:35Z</time>
      </trkpt>
      <trkpt lat="48.79953" lon="2.98589">
        <ele>124.4</ele>
        <time>2021-05-23T09:49:36Z</time>
      </trkpt>
      <trkpt lat="48.79955" lon="2.98587">
        <ele>124.5</ele>
        <time>2021-05-23T09:49:37Z</time>
      </trkpt>
      <trkpt lat="48.79957" lon="2.98585">
        <ele>124.5</ele>
        <time>2021-05-23T09:49:38Z</time>
      </trkpt>
      <trkpt lat="48.79961" lon="2.98585">
        <ele>124.5</ele>
        <time>2021-05-23T09:49:39Z</time>
      </trkpt>
      <trkpt lat="48.79965" lon="2.98584">
        <ele>124.6</ele>
        <time>2021-05-23T09:49:40Z</time>
      </trkpt>
      <trkpt lat="48.79994" lon="2.98587">
        <ele>124.9</ele>
        <time>2021-05-23T09:49:48Z</time>
      </trkpt>
      <trkpt lat="48.79998" lon="2.98585">
        <ele>125</ele>
        <time>2021-05-23T09:49:49Z</time>
      </trkpt>
      <trkpt lat="48.80001" lon="2.98581">
        <ele>125</ele>
        <time>2021-05-23T09:49:50Z</time>
      </trkpt>
      <trkpt lat="48.80003" lon="2.98575">
        <ele>124.9</ele>
        <time>2021-05-23T09:49:51Z</time>
      </trkpt>
      <trkpt lat="48.80004" lon="2.98569">
        <ele>124.8</ele>
        <time>2021-05-23T09:49:52Z</time>
      </trkpt>
      <trkpt lat="48.80007" lon="2.98539">
        <ele>124.5</ele>
        <time>2021-05-23T09:49:56Z</time>
      </trkpt>
      <trkpt lat="48.79984" lon="2.984">
        <ele>123.8</ele>
        <time>2021-05-23T09:50:07Z</time>
      </trkpt>
      <trkpt lat="48.79954" lon="2.98223">
        <ele>123.3</ele>
        <time>2021-05-23T09:50:15Z</time>
      </trkpt>
      <trkpt lat="48.79919" lon="2.97992">
        <ele>123.9</ele>
        <time>2021-05-23T09:50:23Z</time>
      </trkpt>
      <trkpt lat="48.79846" lon="2.97511">
        <ele>127.1</ele>
        <time>2021-05-23T09:50:37Z</time>
      </trkpt>
      <trkpt lat="48.79789" lon="2.97123">
        <ele>129.7</ele>
        <time>2021-05-23T09:50:49Z</time>
      </trkpt>
      <trkpt lat="48.79697" lon="2.96495">
        <ele>128.7</ele>
        <time>2021-05-23T09:51:08Z</time>
      </trkpt>
      <trkpt lat="48.79604" lon="2.95853">
        <ele>126.8</ele>
        <time>2021-05-23T09:51:28Z</time>
      </trkpt>
      <trkpt lat="48.79544" lon="2.9544">
        <ele>128.7</ele>
        <time>2021-05-23T09:51:41Z</time>
      </trkpt>
      <trkpt lat="48.79456" lon="2.94844">
        <ele>131.2</ele>
        <time>2021-05-23T09:51:59Z</time>
      </trkpt>
      <trkpt lat="48.79383" lon="2.94345">
        <ele>131.6</ele>
        <time>2021-05-23T09:52:14Z</time>
      </trkpt>
      <trkpt lat="48.79293" lon="2.93731">
        <ele>134.5</ele>
        <time>2021-05-23T09:52:33Z</time>
      </trkpt>
      <trkpt lat="48.79246" lon="2.93338">
        <ele>136</ele>
        <time>2021-05-23T09:52:46Z</time>
      </trkpt>
      <trkpt lat="48.79211" lon="2.92922">
        <ele>135.6</ele>
        <time>2021-05-23T09:53:00Z</time>
      </trkpt>
      <trkpt lat="48.79125" lon="2.92433">
        <ele>132.6</ele>
        <time>2021-05-23T09:53:17Z</time>
      </trkpt>
      <trkpt lat="48.79072" lon="2.92151">
        <ele>130.7</ele>
        <time>2021-05-23T09:53:29Z</time>
      </trkpt>
      <trkpt lat="48.79036" lon="2.92001">
        <ele>129.4</ele>
        <time>2021-05-23T09:53:39Z</time>
      </trkpt>
      <trkpt lat="48.79008" lon="2.91876">
        <ele>127.6</ele>
        <time>2021-05-23T09:53:50Z</time>
      </trkpt>
      <trkpt lat="48.78972" lon="2.91705">
        <ele>124.1</ele>
        <time>2021-05-23T09:54:05Z</time>
      </trkpt>
      <trkpt lat="48.78961" lon="2.91616">
        <ele>122.1</ele>
        <time>2021-05-23T09:54:15Z</time>
      </trkpt>
      <trkpt lat="48.78943" lon="2.91596">
        <ele>121.9</ele>
        <time>2021-05-23T09:54:20Z</time>
      </trkpt>
      <trkpt lat="48.78921" lon="2.91593">
        <ele>122.1</ele>
        <time>2021-05-23T09:54:23Z</time>
      </trkpt>
      <trkpt lat="48.78885" lon="2.91597">
        <ele>121</ele>
        <time>2021-05-23T09:54:28Z</time>
      </trkpt>
      <trkpt lat="48.78793" lon="2.91658">
        <ele>119.4</ele>
        <time>2021-05-23T09:54:40Z</time>
      </trkpt>
      <trkpt lat="48.78753" lon="2.91686">
        <ele>120</ele>
        <time>2021-05-23T09:54:46Z</time>
      </trkpt>
      <trkpt lat="48.78721" lon="2.91695">
        <ele>120.5</ele>
        <time>2021-05-23T09:54:52Z</time>
      </trkpt>
      <trkpt lat="48.78715" lon="2.91676">
        <ele>119.8</ele>
        <time>2021-05-23T09:54:56Z</time>
      </trkpt>
      <trkpt lat="48.78675" lon="2.91555">
        <ele>115.5</ele>
        <time>2021-05-23T09:55:07Z</time>
      </trkpt>
      <trkpt lat="48.786" lon="2.9142">
        <ele>107.7</ele>
        <time>2021-05-23T09:55:19Z</time>
      </trkpt>
      <trkpt lat="48.7853" lon="2.91302">
        <ele>100.9</ele>
        <time>2021-05-23T09:55:29Z</time>
      </trkpt>
      <trkpt lat="48.78467" lon="2.91191">
        <ele>100.9</ele>
        <time>2021-05-23T09:55:39Z</time>
      </trkpt>
      <trkpt lat="48.7841" lon="2.91086">
        <ele>105.8</ele>
        <time>2021-05-23T09:55:48Z</time>
      </trkpt>
      <trkpt lat="48.78359" lon="2.90989">
        <ele>109.2</ele>
        <time>2021-05-23T09:55:56Z</time>
      </trkpt>
      <trkpt lat="48.78271" lon="2.90817">
        <ele>123.4</ele>
        <time>2021-05-23T09:56:05Z</time>
      </trkpt>
      <trkpt lat="48.78186" lon="2.90647">
        <ele>120.7</ele>
        <time>2021-05-23T09:56:13Z</time>
      </trkpt>
      <trkpt lat="48.7809" lon="2.9047">
        <ele>119.8</ele>
        <time>2021-05-23T09:56:21Z</time>
      </trkpt>
      <trkpt lat="48.77897" lon="2.90268">
        <ele>122</ele>
        <time>2021-05-23T09:56:33Z</time>
      </trkpt>
      <trkpt lat="48.77723" lon="2.90092">
        <ele>125.7</ele>
        <time>2021-05-23T09:56:45Z</time>
      </trkpt>
      <trkpt lat="48.77686" lon="2.90057">
        <ele>126.2</ele>
        <time>2021-05-23T09:56:48Z</time>
      </trkpt>
      <trkpt lat="48.77648" lon="2.90038">
        <ele>125.5</ele>
        <time>2021-05-23T09:56:51Z</time>
      </trkpt>
      <trkpt lat="48.77614" lon="2.90028">
        <ele>124.3</ele>
        <time>2021-05-23T09:56:54Z</time>
      </trkpt>
      <trkpt lat="48.77577" lon="2.89981">
        <ele>121.7</ele>
        <time>2021-05-23T09:57:00Z</time>
      </trkpt>
      <trkpt lat="48.77576" lon="2.89962">
        <ele>121.2</ele>
        <time>2021-05-23T09:57:04Z</time>
      </trkpt>
      <trkpt lat="48.7762" lon="2.89876">
        <ele>122</ele>
        <time>2021-05-23T09:57:12Z</time>
      </trkpt>
      <trkpt lat="48.77703" lon="2.89713">
        <ele>123</ele>
        <time>2021-05-23T09:57:20Z</time>
      </trkpt>
      <trkpt lat="48.7784" lon="2.89462">
        <ele>122.9</ele>
        <time>2021-05-23T09:57:30Z</time>
      </trkpt>
      <trkpt lat="48.77975" lon="2.89198">
        <ele>124.8</ele>
        <time>2021-05-23T09:57:41Z</time>
      </trkpt>
      <trkpt lat="48.78102" lon="2.88958">
        <ele>125.5</ele>
        <time>2021-05-23T09:57:51Z</time>
      </trkpt>
      <trkpt lat="48.78258" lon="2.88663">
        <ele>127</ele>
        <time>2021-05-23T09:58:03Z</time>
      </trkpt>
      <trkpt lat="48.7839" lon="2.88407">
        <ele>124.4</ele>
        <time>2021-05-23T09:58:14Z</time>
      </trkpt>
      <trkpt lat="48.78536" lon="2.88127">
        <ele>127.3</ele>
        <time>2021-05-23T09:58:26Z</time>
      </trkpt>
      <trkpt lat="48.78664" lon="2.87883">
        <ele>129.6</ele>
        <time>2021-05-23T09:58:37Z</time>
      </trkpt>
      <trkpt lat="48.78765" lon="2.8769">
        <ele>129.5</ele>
        <time>2021-05-23T09:58:46Z</time>
      </trkpt>
      <trkpt lat="48.78876" lon="2.87468">
        <ele>127</ele>
        <time>2021-05-23T09:58:56Z</time>
      </trkpt>
      <trkpt lat="48.79015" lon="2.87213">
        <ele>127.8</ele>
        <time>2021-05-23T09:59:08Z</time>
      </trkpt>
      <trkpt lat="48.79099" lon="2.87038">
        <ele>127.7</ele>
        <time>2021-05-23T09:59:17Z</time>
      </trkpt>
      <trkpt lat="48.79134" lon="2.86978">
        <ele>126.2</ele>
        <time>2021-05-23T09:59:21Z</time>
      </trkpt>
      <trkpt lat="48.79166" lon="2.86946">
        <ele>125.4</ele>
        <time>2021-05-23T09:59:25Z</time>
      </trkpt>
      <trkpt lat="48.79177" lon="2.86934">
        <ele>125.5</ele>
        <time>2021-05-23T09:59:27Z</time>
      </trkpt>
      <trkpt lat="48.79181" lon="2.86926">
        <ele>125.6</ele>
        <time>2021-05-23T09:59:28Z</time>
      </trkpt>
      <trkpt lat="48.79183" lon="2.86917">
        <ele>125.6</ele>
        <time>2021-05-23T09:59:29Z</time>
      </trkpt>
      <trkpt lat="48.79183" lon="2.86909">
        <ele>125.8</ele>
        <time>2021-05-23T09:59:30Z</time>
      </trkpt>
      <trkpt lat="48.79178" lon="2.86899">
        <ele>125.8</ele>
        <time>2021-05-23T09:59:31Z</time>
      </trkpt>
      <trkpt lat="48.79174" lon="2.86893">
        <ele>125.8</ele>
        <time>2021-05-23T09:59:32Z</time>
      </trkpt>
      <trkpt lat="48.79168" lon="2.86889">
        <ele>125.7</ele>
        <time>2021-05-23T09:59:33Z</time>
      </trkpt>
      <trkpt lat="48.79161" lon="2.86889">
        <ele>125.7</ele>
        <time>2021-05-23T09:59:34Z</time>
      </trkpt>
      <trkpt lat="48.79153" lon="2.86892">
        <ele>125.8</ele>
        <time>2021-05-23T09:59:35Z</time>
      </trkpt>
      <trkpt lat="48.79134" lon="2.86894">
        <ele>126</ele>
        <time>2021-05-23T09:59:37Z</time>
      </trkpt>
      <trkpt lat="48.79122" lon="2.86893">
        <ele>126.2</ele>
        <time>2021-05-23T09:59:38Z</time>
      </trkpt>
      <trkpt lat="48.79003" lon="2.86865">
        <ele>125.8</ele>
        <time>2021-05-23T09:59:45Z</time>
      </trkpt>
      <trkpt lat="48.78855" lon="2.86826">
        <ele>123.4</ele>
        <time>2021-05-23T09:59:52Z</time>
      </trkpt>
      <trkpt lat="48.78639" lon="2.86769">
        <ele>125.6</ele>
        <time>2021-05-23T10:00:02Z</time>
      </trkpt>
      <trkpt lat="48.78453" lon="2.8672">
        <ele>123.9</ele>
        <time>2021-05-23T10:00:10Z</time>
      </trkpt>
      <trkpt lat="48.78189" lon="2.8665">
        <ele>123.2</ele>
        <time>2021-05-23T10:00:22Z</time>
      </trkpt>
      <trkpt lat="48.77988" lon="2.86595">
        <ele>125</ele>
        <time>2021-05-23T10:00:31Z</time>
      </trkpt>
      <trkpt lat="48.77749" lon="2.86532">
        <ele>125.6</ele>
        <time>2021-05-23T10:00:42Z</time>
      </trkpt>
      <trkpt lat="48.775" lon="2.86466">
        <ele>124.4</ele>
        <time>2021-05-23T10:00:54Z</time>
      </trkpt>
      <trkpt lat="48.77337" lon="2.86423">
        <ele>122.9</ele>
        <time>2021-05-23T10:01:02Z</time>
      </trkpt>
      <trkpt lat="48.77145" lon="2.86364">
        <ele>120.1</ele>
        <time>2021-05-23T10:01:12Z</time>
      </trkpt>
      <trkpt lat="48.76884" lon="2.86282">
        <ele>117.1</ele>
        <time>2021-05-23T10:01:25Z</time>
      </trkpt>
      <trkpt lat="48.76474" lon="2.8611">
        <ele>115.3</ele>
        <time>2021-05-23T10:01:45Z</time>
      </trkpt>
      <trkpt lat="48.76126" lon="2.85988">
        <ele>117</ele>
        <time>2021-05-23T10:02:02Z</time>
      </trkpt>
      <trkpt lat="48.75784" lon="2.85913">
        <ele>115</ele>
        <time>2021-05-23T10:02:19Z</time>
      </trkpt>
      <trkpt lat="48.75343" lon="2.85854">
        <ele>111.5</ele>
        <time>2021-05-23T10:02:41Z</time>
      </trkpt>
      <trkpt lat="48.74913" lon="2.85799">
        <ele>111</ele>
        <time>2021-05-23T10:03:03Z</time>
      </trkpt>
      <trkpt lat="48.74634" lon="2.85763">
        <ele>109.8</ele>
        <time>2021-05-23T10:03:17Z</time>
      </trkpt>
      <trkpt lat="48.74335" lon="2.85724">
        <ele>110.7</ele>
        <time>2021-05-23T10:03:32Z</time>
      </trkpt>
      <trkpt lat="48.73903" lon="2.85665">
        <ele>110</ele>
        <time>2021-05-23T10:03:53Z</time>
      </trkpt>
      <trkpt lat="48.73596" lon="2.85598">
        <ele>109.5</ele>
        <time>2021-05-23T10:04:08Z</time>
      </trkpt>
      <trkpt lat="48.73264" lon="2.85498">
        <ele>109.6</ele>
        <time>2021-05-23T10:04:25Z</time>
      </trkpt>
      <trkpt lat="48.72961" lon="2.85382">
        <ele>109.1</ele>
        <time>2021-05-23T10:04:41Z</time>
      </trkpt>
      <trkpt lat="48.727" lon="2.85263">
        <ele>109.1</ele>
        <time>2021-05-23T10:04:54Z</time>
      </trkpt>
      <trkpt lat="48.72403" lon="2.85106">
        <ele>115.8</ele>
        <time>2021-05-23T10:05:10Z</time>
      </trkpt>
      <trkpt lat="48.72164" lon="2.84961">
        <ele>112.6</ele>
        <time>2021-05-23T10:05:23Z</time>
      </trkpt>
      <trkpt lat="48.71938" lon="2.84806">
        <ele>110.8</ele>
        <time>2021-05-23T10:05:36Z</time>
      </trkpt>
      <trkpt lat="48.71798" lon="2.84701">
        <ele>108.2</ele>
        <time>2021-05-23T10:05:47Z</time>
      </trkpt>
      <trkpt lat="48.71783" lon="2.84688">
        <ele>108.4</ele>
        <time>2021-05-23T10:05:49Z</time>
      </trkpt>
      <trkpt lat="48.7177" lon="2.84663">
        <ele>108.9</ele>
        <time>2021-05-23T10:05:52Z</time>
      </trkpt>
      <trkpt lat="48.71744" lon="2.84645">
        <ele>109.3</ele>
        <time>2021-05-23T10:05:56Z</time>
      </trkpt>
      <trkpt lat="48.71735" lon="2.84645">
        <ele>108.9</ele>
        <time>2021-05-23T10:05:57Z</time>
      </trkpt>
      <trkpt lat="48.71707" lon="2.84631">
        <ele>108.1</ele>
        <time>2021-05-23T10:06:00Z</time>
      </trkpt>
      <trkpt lat="48.71583" lon="2.84527">
        <ele>104</ele>
        <time>2021-05-23T10:06:10Z</time>
      </trkpt>
      <trkpt lat="48.71402" lon="2.84369">
        <ele>103.1</ele>
        <time>2021-05-23T10:06:21Z</time>
      </trkpt>
      <trkpt lat="48.71051" lon="2.84025">
        <ele>101.3</ele>
        <time>2021-05-23T10:06:41Z</time>
      </trkpt>
      <trkpt lat="48.7077" lon="2.8371">
        <ele>111.1</ele>
        <time>2021-05-23T10:06:58Z</time>
      </trkpt>
      <trkpt lat="48.70584" lon="2.83473">
        <ele>113.3</ele>
        <time>2021-05-23T10:07:10Z</time>
      </trkpt>
      <trkpt lat="48.70356" lon="2.83163">
        <ele>103.8</ele>
        <time>2021-05-23T10:07:25Z</time>
      </trkpt>
      <trkpt lat="48.70068" lon="2.82778">
        <ele>102.2</ele>
        <time>2021-05-23T10:07:44Z</time>
      </trkpt>
      <trkpt lat="48.69803" lon="2.82459">
        <ele>102.2</ele>
        <time>2021-05-23T10:08:01Z</time>
      </trkpt>
      <trkpt lat="48.69535" lon="2.82185">
        <ele>112.3</ele>
        <time>2021-05-23T10:08:17Z</time>
      </trkpt>
      <trkpt lat="48.69243" lon="2.81949">
        <ele>107.1</ele>
        <time>2021-05-23T10:08:33Z</time>
      </trkpt>
      <trkpt lat="48.69003" lon="2.81801">
        <ele>108</ele>
        <time>2021-05-23T10:08:46Z</time>
      </trkpt>
      <trkpt lat="48.68755" lon="2.81668">
        <ele>104.1</ele>
        <time>2021-05-23T10:08:59Z</time>
      </trkpt>
      <trkpt lat="48.68462" lon="2.81555">
        <ele>105.7</ele>
        <time>2021-05-23T10:09:14Z</time>
      </trkpt>
      <trkpt lat="48.68147" lon="2.81469">
        <ele>98.9</ele>
        <time>2021-05-23T10:09:30Z</time>
      </trkpt>
      <trkpt lat="48.67752" lon="2.81374">
        <ele>95.6</ele>
        <time>2021-05-23T10:09:50Z</time>
      </trkpt>
      <trkpt lat="48.67402" lon="2.81287">
        <ele>99.5</ele>
        <time>2021-05-23T10:10:08Z</time>
      </trkpt>
      <trkpt lat="48.67083" lon="2.81207">
        <ele>98.5</ele>
        <time>2021-05-23T10:10:24Z</time>
      </trkpt>
      <trkpt lat="48.66726" lon="2.81118">
        <ele>101.6</ele>
        <time>2021-05-23T10:10:42Z</time>
      </trkpt>
      <trkpt lat="48.66375" lon="2.81019">
        <ele>91.6</ele>
        <time>2021-05-23T10:11:00Z</time>
      </trkpt>
      <trkpt lat="48.6614" lon="2.80935">
        <ele>79.6</ele>
        <time>2021-05-23T10:11:11Z</time>
      </trkpt>
      <trkpt lat="48.65843" lon="2.80805">
        <ele>68</ele>
        <time>2021-05-23T10:11:26Z</time>
      </trkpt>
      <trkpt lat="48.6561" lon="2.80681">
        <ele>90.2</ele>
        <time>2021-05-23T10:11:37Z</time>
      </trkpt>
      <trkpt lat="48.65365" lon="2.80534">
        <ele>97.3</ele>
        <time>2021-05-23T10:11:49Z</time>
      </trkpt>
      <trkpt lat="48.65081" lon="2.80334">
        <ele>99.1</ele>
        <time>2021-05-23T10:12:03Z</time>
      </trkpt>
      <trkpt lat="48.64858" lon="2.80154">
        <ele>98.6</ele>
        <time>2021-05-23T10:12:15Z</time>
      </trkpt>
      <trkpt lat="48.64567" lon="2.79893">
        <ele>98.6</ele>
        <time>2021-05-23T10:12:32Z</time>
      </trkpt>
      <trkpt lat="48.64335" lon="2.79674">
        <ele>93.2</ele>
        <time>2021-05-23T10:12:46Z</time>
      </trkpt>
      <trkpt lat="48.64121" lon="2.79471">
        <ele>84.4</ele>
        <time>2021-05-23T10:12:58Z</time>
      </trkpt>
      <trkpt lat="48.63922" lon="2.79277">
        <ele>78.6</ele>
        <time>2021-05-23T10:13:10Z</time>
      </trkpt>
      <trkpt lat="48.63748" lon="2.79062">
        <ele>87.3</ele>
        <time>2021-05-23T10:13:22Z</time>
      </trkpt>
      <trkpt lat="48.63687" lon="2.78899">
        <ele>87.8</ele>
        <time>2021-05-23T10:13:29Z</time>
      </trkpt>
      <trkpt lat="48.63638" lon="2.78812">
        <ele>89.3</ele>
        <time>2021-05-23T10:13:35Z</time>
      </trkpt>
      <trkpt lat="48.63619" lon="2.78794">
        <ele>90.6</ele>
        <time>2021-05-23T10:13:40Z</time>
      </trkpt>
      <trkpt lat="48.63612" lon="2.78775">
        <ele>90.9</ele>
        <time>2021-05-23T10:13:43Z</time>
      </trkpt>
      <trkpt lat="48.63569" lon="2.78742">
        <ele>92.1</ele>
        <time>2021-05-23T10:13:49Z</time>
      </trkpt>
      <trkpt lat="48.63525" lon="2.78719">
        <ele>92.3</ele>
        <time>2021-05-23T10:13:53Z</time>
      </trkpt>
      <trkpt lat="48.63404" lon="2.7858">
        <ele>92.1</ele>
        <time>2021-05-23T10:14:02Z</time>
      </trkpt>
      <trkpt lat="48.63291" lon="2.78365">
        <ele>91.2</ele>
        <time>2021-05-23T10:14:11Z</time>
      </trkpt>
      <trkpt lat="48.63063" lon="2.77912">
        <ele>91.8</ele>
        <time>2021-05-23T10:14:29Z</time>
      </trkpt>
      <trkpt lat="48.62865" lon="2.77519">
        <ele>91</ele>
        <time>2021-05-23T10:14:45Z</time>
      </trkpt>
      <trkpt lat="48.62704" lon="2.77202">
        <ele>92.9</ele>
        <time>2021-05-23T10:14:58Z</time>
      </trkpt>
      <trkpt lat="48.62471" lon="2.76741">
        <ele>93.7</ele>
        <time>2021-05-23T10:15:17Z</time>
      </trkpt>
      <trkpt lat="48.62263" lon="2.76331">
        <ele>93.2</ele>
        <time>2021-05-23T10:15:34Z</time>
      </trkpt>
      <trkpt lat="48.62106" lon="2.7602">
        <ele>92.1</ele>
        <time>2021-05-23T10:15:47Z</time>
      </trkpt>
      <trkpt lat="48.619" lon="2.75614">
        <ele>91.3</ele>
        <time>2021-05-23T10:16:04Z</time>
      </trkpt>
      <trkpt lat="48.6167" lon="2.75161">
        <ele>92</ele>
        <time>2021-05-23T10:16:23Z</time>
      </trkpt>
      <trkpt lat="48.61503" lon="2.7486">
        <ele>90</ele>
        <time>2021-05-23T10:16:37Z</time>
      </trkpt>
      <trkpt lat="48.61367" lon="2.74725">
        <ele>90</ele>
        <time>2021-05-23T10:16:46Z</time>
      </trkpt>
      <trkpt lat="48.61075" lon="2.74446">
        <ele>88.3</ele>
        <time>2021-05-23T10:17:03Z</time>
      </trkpt>
      <trkpt lat="48.60851" lon="2.74231">
        <ele>90.6</ele>
        <time>2021-05-23T10:17:16Z</time>
      </trkpt>
      <trkpt lat="48.60549" lon="2.73937">
        <ele>88.6</ele>
        <time>2021-05-23T10:17:34Z</time>
      </trkpt>
      <trkpt lat="48.6024" lon="2.73643">
        <ele>89.4</ele>
        <time>2021-05-23T10:17:52Z</time>
      </trkpt>
      <trkpt lat="48.59938" lon="2.73352">
        <ele>90.2</ele>
        <time>2021-05-23T10:18:10Z</time>
      </trkpt>
      <trkpt lat="48.59617" lon="2.73045">
        <ele>88.2</ele>
        <time>2021-05-23T10:18:29Z</time>
      </trkpt>
      <trkpt lat="48.59367" lon="2.72804">
        <ele>86.5</ele>
        <time>2021-05-23T10:18:44Z</time>
      </trkpt>
      <trkpt lat="48.59193" lon="2.726">
        <ele>86.3</ele>
        <time>2021-05-23T10:18:56Z</time>
      </trkpt>
      <trkpt lat="48.59052" lon="2.72415">
        <ele>86.3</ele>
        <time>2021-05-23T10:19:07Z</time>
      </trkpt>
      <trkpt lat="48.5898" lon="2.72316">
        <ele>85.8</ele>
        <time>2021-05-23T10:19:16Z</time>
      </trkpt>
      <trkpt lat="48.58954" lon="2.72266">
        <ele>85.4</ele>
        <time>2021-05-23T10:19:23Z</time>
      </trkpt>
      <trkpt lat="48.58952" lon="2.72256">
        <ele>85.4</ele>
        <time>2021-05-23T10:19:24Z</time>
      </trkpt>
      <trkpt lat="48.58948" lon="2.72232">
        <ele>85.5</ele>
        <time>2021-05-23T10:19:26Z</time>
      </trkpt>
      <trkpt lat="48.58943" lon="2.7222">
        <ele>85.6</ele>
        <time>2021-05-23T10:19:27Z</time>
      </trkpt>
      <trkpt lat="48.58936" lon="2.72211">
        <ele>85.6</ele>
        <time>2021-05-23T10:19:28Z</time>
      </trkpt>
      <trkpt lat="48.58927" lon="2.72205">
        <ele>85.6</ele>
        <time>2021-05-23T10:19:29Z</time>
      </trkpt>
      <trkpt lat="48.58916" lon="2.72203">
        <ele>85.6</ele>
        <time>2021-05-23T10:19:30Z</time>
      </trkpt>
      <trkpt lat="48.58905" lon="2.72201">
        <ele>85.4</ele>
        <time>2021-05-23T10:19:31Z</time>
      </trkpt>
      <trkpt lat="48.58895" lon="2.72198">
        <ele>85.4</ele>
        <time>2021-05-23T10:19:32Z</time>
      </trkpt>
      <trkpt lat="48.58885" lon="2.72191">
        <ele>85.3</ele>
        <time>2021-05-23T10:19:33Z</time>
      </trkpt>
      <trkpt lat="48.58875" lon="2.72181">
        <ele>85.3</ele>
        <time>2021-05-23T10:19:34Z</time>
      </trkpt>
      <trkpt lat="48.58866" lon="2.72169">
        <ele>85.4</ele>
        <time>2021-05-23T10:19:35Z</time>
      </trkpt>
      <trkpt lat="48.58774" lon="2.7205">
        <ele>85.9</ele>
        <time>2021-05-23T10:19:44Z</time>
      </trkpt>
      <trkpt lat="48.58676" lon="2.71921">
        <ele>87.8</ele>
        <time>2021-05-23T10:19:56Z</time>
      </trkpt>
      <trkpt lat="48.58557" lon="2.71767">
        <ele>86.9</ele>
        <time>2021-05-23T10:20:10Z</time>
      </trkpt>
      <trkpt lat="48.58431" lon="2.71598">
        <ele>83.4</ele>
        <time>2021-05-23T10:20:24Z</time>
      </trkpt>
      <trkpt lat="48.58334" lon="2.71474">
        <ele>84</ele>
        <time>2021-05-23T10:20:35Z</time>
      </trkpt>
      <trkpt lat="48.58232" lon="2.71342">
        <ele>84.1</ele>
        <time>2021-05-23T10:20:48Z</time>
      </trkpt>
      <trkpt lat="48.58183" lon="2.71277">
        <ele>84</ele>
        <time>2021-05-23T10:20:55Z</time>
      </trkpt>
      <trkpt lat="48.58106" lon="2.71176">
        <ele>85</ele>
        <time>2021-05-23T10:21:06Z</time>
      </trkpt>
      <trkpt lat="48.58077" lon="2.71137">
        <ele>84.2</ele>
        <time>2021-05-23T10:21:17Z</time>
      </trkpt>
      <trkpt lat="48.58078" lon="2.71136">
        <ele>84.1</ele>
        <time>2021-05-23T10:21:31Z</time>
      </trkpt>
      <trkpt lat="48.58078" lon="2.71136">
        <ele>84.2</ele>
        <time>2021-05-23T10:21:36Z</time>
      </trkpt>
      <trkpt lat="48.58069" lon="2.71126">
        <ele>83.8</ele>
        <time>2021-05-23T10:21:39Z</time>
      </trkpt>
      <trkpt lat="48.58016" lon="2.71057">
        <ele>83</ele>
        <time>2021-05-23T10:21:46Z</time>
      </trkpt>
      <trkpt lat="48.57883" lon="2.70886">
        <ele>82.2</ele>
        <time>2021-05-23T10:21:58Z</time>
      </trkpt>
      <trkpt lat="48.57746" lon="2.70715">
        <ele>81.3</ele>
        <time>2021-05-23T10:22:07Z</time>
      </trkpt>
      <trkpt lat="48.57578" lon="2.70487">
        <ele>82.3</ele>
        <time>2021-05-23T10:22:18Z</time>
      </trkpt>
      <trkpt lat="48.5733" lon="2.70162">
        <ele>80.1</ele>
        <time>2021-05-23T10:22:35Z</time>
      </trkpt>
      <trkpt lat="48.57118" lon="2.69884">
        <ele>80.2</ele>
        <time>2021-05-23T10:22:50Z</time>
      </trkpt>
      <trkpt lat="48.5689" lon="2.69587">
        <ele>77.9</ele>
        <time>2021-05-23T10:23:06Z</time>
      </trkpt>
      <trkpt lat="48.56671" lon="2.69301">
        <ele>78.2</ele>
        <time>2021-05-23T10:23:22Z</time>
      </trkpt>
      <trkpt lat="48.56525" lon="2.69106">
        <ele>76.1</ele>
        <time>2021-05-23T10:23:34Z</time>
      </trkpt>
      <trkpt lat="48.56518" lon="2.69093">
        <ele>76</ele>
        <time>2021-05-23T10:23:35Z</time>
      </trkpt>
      <trkpt lat="48.56512" lon="2.69082">
        <ele>76</ele>
        <time>2021-05-23T10:23:36Z</time>
      </trkpt>
      <trkpt lat="48.56509" lon="2.69069">
        <ele>76</ele>
        <time>2021-05-23T10:23:37Z</time>
      </trkpt>
      <trkpt lat="48.56507" lon="2.69056">
        <ele>76</ele>
        <time>2021-05-23T10:23:38Z</time>
      </trkpt>
      <trkpt lat="48.56506" lon="2.69042">
        <ele>76</ele>
        <time>2021-05-23T10:23:39Z</time>
      </trkpt>
      <trkpt lat="48.56508" lon="2.69029">
        <ele>76</ele>
        <time>2021-05-23T10:23:40Z</time>
      </trkpt>
      <trkpt lat="48.56513" lon="2.69016">
        <ele>76</ele>
        <time>2021-05-23T10:23:41Z</time>
      </trkpt>
      <trkpt lat="48.56519" lon="2.69004">
        <ele>76</ele>
        <time>2021-05-23T10:23:42Z</time>
      </trkpt>
      <trkpt lat="48.56527" lon="2.68991">
        <ele>76.1</ele>
        <time>2021-05-23T10:23:43Z</time>
      </trkpt>
      <trkpt lat="48.56537" lon="2.68979">
        <ele>76.1</ele>
        <time>2021-05-23T10:23:44Z</time>
      </trkpt>
      <trkpt lat="48.56608" lon="2.68867">
        <ele>77.3</ele>
        <time>2021-05-23T10:23:51Z</time>
      </trkpt>
      <trkpt lat="48.56615" lon="2.68847">
        <ele>77.7</ele>
        <time>2021-05-23T10:23:52Z</time>
      </trkpt>
      <trkpt lat="48.56621" lon="2.68826">
        <ele>78.1</ele>
        <time>2021-05-23T10:23:53Z</time>
      </trkpt>
      <trkpt lat="48.56683" lon="2.68551">
        <ele>78.7</ele>
        <time>2021-05-23T10:24:04Z</time>
      </trkpt>
      <trkpt lat="48.56771" lon="2.6816">
        <ele>77.2</ele>
        <time>2021-05-23T10:24:19Z</time>
      </trkpt>
      <trkpt lat="48.56842" lon="2.67834">
        <ele>74</ele>
        <time>2021-05-23T10:24:33Z</time>
      </trkpt>
      <trkpt lat="48.56844" lon="2.67812">
        <ele>74.1</ele>
        <time>2021-05-23T10:24:34Z</time>
      </trkpt>
      <trkpt lat="48.56844" lon="2.67791">
        <ele>74.1</ele>
        <time>2021-05-23T10:24:35Z</time>
      </trkpt>
      <trkpt lat="48.56842" lon="2.67769">
        <ele>74.2</ele>
        <time>2021-05-23T10:24:36Z</time>
      </trkpt>
      <trkpt lat="48.56838" lon="2.67749">
        <ele>74.2</ele>
        <time>2021-05-23T10:24:37Z</time>
      </trkpt>
      <trkpt lat="48.56834" lon="2.67729">
        <ele>74.5</ele>
        <time>2021-05-23T10:24:38Z</time>
      </trkpt>
      <trkpt lat="48.56822" lon="2.67656">
        <ele>76</ele>
        <time>2021-05-23T10:24:42Z</time>
      </trkpt>
      <trkpt lat="48.56822" lon="2.67641">
        <ele>76</ele>
        <time>2021-05-23T10:24:43Z</time>
      </trkpt>
      <trkpt lat="48.56822" lon="2.67628">
        <ele>76.1</ele>
        <time>2021-05-23T10:24:44Z</time>
      </trkpt>
      <trkpt lat="48.56824" lon="2.67616">
        <ele>76.1</ele>
        <time>2021-05-23T10:24:45Z</time>
      </trkpt>
      <trkpt lat="48.56827" lon="2.67606">
        <ele>76.1</ele>
        <time>2021-05-23T10:24:46Z</time>
      </trkpt>
      <trkpt lat="48.56831" lon="2.67596">
        <ele>76</ele>
        <time>2021-05-23T10:24:47Z</time>
      </trkpt>
      <trkpt lat="48.56834" lon="2.67586">
        <ele>76</ele>
        <time>2021-05-23T10:24:48Z</time>
      </trkpt>
      <trkpt lat="48.56836" lon="2.67575">
        <ele>75.9</ele>
        <time>2021-05-23T10:24:49Z</time>
      </trkpt>
      <trkpt lat="48.56836" lon="2.67563">
        <ele>75.9</ele>
        <time>2021-05-23T10:24:50Z</time>
      </trkpt>
      <trkpt lat="48.56836" lon="2.6755">
        <ele>76</ele>
        <time>2021-05-23T10:24:51Z</time>
      </trkpt>
      <trkpt lat="48.56836" lon="2.67536">
        <ele>76</ele>
        <time>2021-05-23T10:24:52Z</time>
      </trkpt>
      <trkpt lat="48.56838" lon="2.67521">
        <ele>76</ele>
        <time>2021-05-23T10:24:53Z</time>
      </trkpt>
      <trkpt lat="48.56842" lon="2.67507">
        <ele>76</ele>
        <time>2021-05-23T10:24:54Z</time>
      </trkpt>
      <trkpt lat="48.56847" lon="2.67492">
        <ele>76.3</ele>
        <time>2021-05-23T10:24:55Z</time>
      </trkpt>
      <trkpt lat="48.56907" lon="2.67325">
        <ele>79.5</ele>
        <time>2021-05-23T10:25:05Z</time>
      </trkpt>
      <trkpt lat="48.56951" lon="2.67114">
        <ele>77.5</ele>
        <time>2021-05-23T10:25:16Z</time>
      </trkpt>
      <trkpt lat="48.56987" lon="2.6688">
        <ele>77.6</ele>
        <time>2021-05-23T10:25:28Z</time>
      </trkpt>
      <trkpt lat="48.57005" lon="2.66761">
        <ele>78.1</ele>
        <time>2021-05-23T10:25:37Z</time>
      </trkpt>
      <trkpt lat="48.57012" lon="2.66714">
        <ele>78.1</ele>
        <time>2021-05-23T10:25:41Z</time>
      </trkpt>
      <trkpt lat="48.57036" lon="2.6659">
        <ele>78.4</ele>
        <time>2021-05-23T10:25:52Z</time>
      </trkpt>
      <trkpt lat="48.57056" lon="2.66506">
        <ele>77.7</ele>
        <time>2021-05-23T10:26:01Z</time>
      </trkpt>
      <trkpt lat="48.57061" lon="2.66483">
        <ele>77.9</ele>
        <time>2021-05-23T10:26:10Z</time>
      </trkpt>
      <trkpt lat="48.57073" lon="2.66398">
        <ele>79.2</ele>
        <time>2021-05-23T10:26:18Z</time>
      </trkpt>
      <trkpt lat="48.57088" lon="2.66285">
        <ele>79.7</ele>
        <time>2021-05-23T10:26:29Z</time>
      </trkpt>
      <trkpt lat="48.57088" lon="2.66255">
        <ele>79</ele>
        <time>2021-05-23T10:26:35Z</time>
      </trkpt>
      <trkpt lat="48.57087" lon="2.66245">
        <ele>78.9</ele>
        <time>2021-05-23T10:26:36Z</time>
      </trkpt>
      <trkpt lat="48.57084" lon="2.66169">
        <ele>79</ele>
        <time>2021-05-23T10:26:42Z</time>
      </trkpt>
      <trkpt lat="48.57086" lon="2.66157">
        <ele>78.9</ele>
        <time>2021-05-23T10:26:43Z</time>
      </trkpt>
      <trkpt lat="48.5709" lon="2.66148">
        <ele>78.9</ele>
        <time>2021-05-23T10:26:44Z</time>
      </trkpt>
      <trkpt lat="48.57096" lon="2.66143">
        <ele>78.7</ele>
        <time>2021-05-23T10:26:45Z</time>
      </trkpt>
      <trkpt lat="48.57103" lon="2.66139">
        <ele>78.6</ele>
        <time>2021-05-23T10:26:46Z</time>
      </trkpt>
      <trkpt lat="48.57112" lon="2.66138">
        <ele>78.4</ele>
        <time>2021-05-23T10:26:47Z</time>
      </trkpt>
      <trkpt lat="48.57121" lon="2.66136">
        <ele>78.3</ele>
        <time>2021-05-23T10:26:48Z</time>
      </trkpt>
      <trkpt lat="48.5713" lon="2.66132">
        <ele>78.1</ele>
        <time>2021-05-23T10:26:49Z</time>
      </trkpt>
      <trkpt lat="48.57138" lon="2.66126">
        <ele>78</ele>
        <time>2021-05-23T10:26:50Z</time>
      </trkpt>
      <trkpt lat="48.57145" lon="2.66118">
        <ele>78</ele>
        <time>2021-05-23T10:26:51Z</time>
      </trkpt>
      <trkpt lat="48.5715" lon="2.66108">
        <ele>78</ele>
        <time>2021-05-23T10:26:52Z</time>
      </trkpt>
      <trkpt lat="48.57155" lon="2.66096">
        <ele>78</ele>
        <time>2021-05-23T10:26:53Z</time>
      </trkpt>
      <trkpt lat="48.57159" lon="2.66083">
        <ele>78.1</ele>
        <time>2021-05-23T10:26:54Z</time>
      </trkpt>
      <trkpt lat="48.57162" lon="2.66069">
        <ele>78.2</ele>
        <time>2021-05-23T10:26:55Z</time>
      </trkpt>
      <trkpt lat="48.5718" lon="2.66005">
        <ele>78.9</ele>
        <time>2021-05-23T10:27:00Z</time>
      </trkpt>
      <trkpt lat="48.57185" lon="2.65995">
        <ele>79</ele>
        <time>2021-05-23T10:27:01Z</time>
      </trkpt>
      <trkpt lat="48.57222" lon="2.65927">
        <ele>79</ele>
        <time>2021-05-23T10:27:07Z</time>
      </trkpt>
      <trkpt lat="48.57225" lon="2.65913">
        <ele>79</ele>
        <time>2021-05-23T10:27:08Z</time>
      </trkpt>
      <trkpt lat="48.57233" lon="2.65869">
        <ele>78.9</ele>
        <time>2021-05-23T10:27:11Z</time>
      </trkpt>
      <trkpt lat="48.57234" lon="2.65854">
        <ele>78.9</ele>
        <time>2021-05-23T10:27:12Z</time>
      </trkpt>
      <trkpt lat="48.57238" lon="2.65791">
        <ele>78</ele>
        <time>2021-05-23T10:27:16Z</time>
      </trkpt>
      <trkpt lat="48.57241" lon="2.65776">
        <ele>77.7</ele>
        <time>2021-05-23T10:27:17Z</time>
      </trkpt>
      <trkpt lat="48.57243" lon="2.65761">
        <ele>77.3</ele>
        <time>2021-05-23T10:27:18Z</time>
      </trkpt>
      <trkpt lat="48.57249" lon="2.65712">
        <ele>76.6</ele>
        <time>2021-05-23T10:27:21Z</time>
      </trkpt>
      <trkpt lat="48.57252" lon="2.65695">
        <ele>76.4</ele>
        <time>2021-05-23T10:27:22Z</time>
      </trkpt>
      <trkpt lat="48.57256" lon="2.65679">
        <ele>76.3</ele>
        <time>2021-05-23T10:27:23Z</time>
      </trkpt>
      <trkpt lat="48.57315" lon="2.65487">
        <ele>76.5</ele>
        <time>2021-05-23T10:27:33Z</time>
      </trkpt>
      <trkpt lat="48.57412" lon="2.65175">
        <ele>79.3</ele>
        <time>2021-05-23T10:27:47Z</time>
      </trkpt>
      <trkpt lat="48.57458" lon="2.65043">
        <ele>77.3</ele>
        <time>2021-05-23T10:27:53Z</time>
      </trkpt>
      <trkpt lat="48.57462" lon="2.65018">
        <ele>76.9</ele>
        <time>2021-05-23T10:27:54Z</time>
      </trkpt>
      <trkpt lat="48.57465" lon="2.64993">
        <ele>76.5</ele>
        <time>2021-05-23T10:27:55Z</time>
      </trkpt>
      <trkpt lat="48.57467" lon="2.64721">
        <ele>77.9</ele>
        <time>2021-05-23T10:28:05Z</time>
      </trkpt>
      <trkpt lat="48.57465" lon="2.64452">
        <ele>77.9</ele>
        <time>2021-05-23T10:28:16Z</time>
      </trkpt>
      <trkpt lat="48.57468" lon="2.64371">
        <ele>78.4</ele>
        <time>2021-05-23T10:28:21Z</time>
      </trkpt>
      <trkpt lat="48.5747" lon="2.64361">
        <ele>78.5</ele>
        <time>2021-05-23T10:28:22Z</time>
      </trkpt>
      <trkpt lat="48.57474" lon="2.64352">
        <ele>78.6</ele>
        <time>2021-05-23T10:28:23Z</time>
      </trkpt>
      <trkpt lat="48.57484" lon="2.64333">
        <ele>78.8</ele>
        <time>2021-05-23T10:28:25Z</time>
      </trkpt>
      <trkpt lat="48.57487" lon="2.64321">
        <ele>78.8</ele>
        <time>2021-05-23T10:28:26Z</time>
      </trkpt>
      <trkpt lat="48.57488" lon="2.64309">
        <ele>78.8</ele>
        <time>2021-05-23T10:28:27Z</time>
      </trkpt>
      <trkpt lat="48.57486" lon="2.64297">
        <ele>78.8</ele>
        <time>2021-05-23T10:28:28Z</time>
      </trkpt>
      <trkpt lat="48.57482" lon="2.64286">
        <ele>78.7</ele>
        <time>2021-05-23T10:28:29Z</time>
      </trkpt>
      <trkpt lat="48.57478" lon="2.64275">
        <ele>78.5</ele>
        <time>2021-05-23T10:28:30Z</time>
      </trkpt>
      <trkpt lat="48.57475" lon="2.64261">
        <ele>78.4</ele>
        <time>2021-05-23T10:28:31Z</time>
      </trkpt>
      <trkpt lat="48.57473" lon="2.64245">
        <ele>78.4</ele>
        <time>2021-05-23T10:28:32Z</time>
      </trkpt>
      <trkpt lat="48.57473" lon="2.64228">
        <ele>78.4</ele>
        <time>2021-05-23T10:28:33Z</time>
      </trkpt>
      <trkpt lat="48.57471" lon="2.64025">
        <ele>79.8</ele>
        <time>2021-05-23T10:28:42Z</time>
      </trkpt>
      <trkpt lat="48.57471" lon="2.63658">
        <ele>79.8</ele>
        <time>2021-05-23T10:28:57Z</time>
      </trkpt>
      <trkpt lat="48.57473" lon="2.63623">
        <ele>80</ele>
        <time>2021-05-23T10:29:00Z</time>
      </trkpt>
      <trkpt lat="48.57475" lon="2.63615">
        <ele>80</ele>
        <time>2021-05-23T10:29:01Z</time>
      </trkpt>
      <trkpt lat="48.57479" lon="2.63607">
        <ele>80</ele>
        <time>2021-05-23T10:29:02Z</time>
      </trkpt>
      <trkpt lat="48.57484" lon="2.636">
        <ele>80</ele>
        <time>2021-05-23T10:29:03Z</time>
      </trkpt>
      <trkpt lat="48.57489" lon="2.63591">
        <ele>80.1</ele>
        <time>2021-05-23T10:29:04Z</time>
      </trkpt>
      <trkpt lat="48.57493" lon="2.6358">
        <ele>80.1</ele>
        <time>2021-05-23T10:29:05Z</time>
      </trkpt>
      <trkpt lat="48.57496" lon="2.63569">
        <ele>80</ele>
        <time>2021-05-23T10:29:06Z</time>
      </trkpt>
      <trkpt lat="48.57497" lon="2.63557">
        <ele>80</ele>
        <time>2021-05-23T10:29:07Z</time>
      </trkpt>
      <trkpt lat="48.57495" lon="2.63546">
        <ele>80</ele>
        <time>2021-05-23T10:29:08Z</time>
      </trkpt>
      <trkpt lat="48.57491" lon="2.63537">
        <ele>80</ele>
        <time>2021-05-23T10:29:09Z</time>
      </trkpt>
      <trkpt lat="48.57484" lon="2.6353">
        <ele>79.9</ele>
        <time>2021-05-23T10:29:10Z</time>
      </trkpt>
      <trkpt lat="48.57474" lon="2.63527">
        <ele>79.9</ele>
        <time>2021-05-23T10:29:11Z</time>
      </trkpt>
      <trkpt lat="48.57464" lon="2.63528">
        <ele>79.9</ele>
        <time>2021-05-23T10:29:12Z</time>
      </trkpt>
      <trkpt lat="48.57454" lon="2.6353">
        <ele>79.8</ele>
        <time>2021-05-23T10:29:13Z</time>
      </trkpt>
      <trkpt lat="48.57445" lon="2.6353">
        <ele>79.8</ele>
        <time>2021-05-23T10:29:14Z</time>
      </trkpt>
      <trkpt lat="48.57437" lon="2.63527">
        <ele>79.7</ele>
        <time>2021-05-23T10:29:15Z</time>
      </trkpt>
      <trkpt lat="48.57429" lon="2.63521">
        <ele>79.6</ele>
        <time>2021-05-23T10:29:16Z</time>
      </trkpt>
      <trkpt lat="48.57421" lon="2.63513">
        <ele>79.3</ele>
        <time>2021-05-23T10:29:17Z</time>
      </trkpt>
      <trkpt lat="48.57412" lon="2.63504">
        <ele>79.2</ele>
        <time>2021-05-23T10:29:18Z</time>
      </trkpt>
      <trkpt lat="48.57346" lon="2.63427">
        <ele>81.7</ele>
        <time>2021-05-23T10:29:25Z</time>
      </trkpt>
      <trkpt lat="48.57334" lon="2.63419">
        <ele>82</ele>
        <time>2021-05-23T10:29:26Z</time>
      </trkpt>
      <trkpt lat="48.57322" lon="2.63414">
        <ele>82.2</ele>
        <time>2021-05-23T10:29:27Z</time>
      </trkpt>
      <trkpt lat="48.5731" lon="2.63411">
        <ele>82.4</ele>
        <time>2021-05-23T10:29:28Z</time>
      </trkpt>
      <trkpt lat="48.57297" lon="2.6341">
        <ele>82.5</ele>
        <time>2021-05-23T10:29:29Z</time>
      </trkpt>
      <trkpt lat="48.57285" lon="2.6341">
        <ele>82.7</ele>
        <time>2021-05-23T10:29:30Z</time>
      </trkpt>
      <trkpt lat="48.57213" lon="2.63405">
        <ele>82.3</ele>
        <time>2021-05-23T10:29:37Z</time>
      </trkpt>
      <trkpt lat="48.57205" lon="2.63403">
        <ele>82.1</ele>
        <time>2021-05-23T10:29:38Z</time>
      </trkpt>
      <trkpt lat="48.57198" lon="2.634">
        <ele>81.9</ele>
        <time>2021-05-23T10:29:39Z</time>
      </trkpt>
      <trkpt lat="48.5719" lon="2.634">
        <ele>81.8</ele>
        <time>2021-05-23T10:29:40Z</time>
      </trkpt>
      <trkpt lat="48.57181" lon="2.63403">
        <ele>81.5</ele>
        <time>2021-05-23T10:29:41Z</time>
      </trkpt>
      <trkpt lat="48.57174" lon="2.63409">
        <ele>81.3</ele>
        <time>2021-05-23T10:29:42Z</time>
      </trkpt>
      <trkpt lat="48.57167" lon="2.63417">
        <ele>81</ele>
        <time>2021-05-23T10:29:43Z</time>
      </trkpt>
      <trkpt lat="48.57159" lon="2.63423">
        <ele>81.2</ele>
        <time>2021-05-23T10:29:44Z</time>
      </trkpt>
      <trkpt lat="48.57151" lon="2.63427">
        <ele>81.4</ele>
        <time>2021-05-23T10:29:45Z</time>
      </trkpt>
      <trkpt lat="48.57141" lon="2.6343">
        <ele>81.5</ele>
        <time>2021-05-23T10:29:46Z</time>
      </trkpt>
      <trkpt lat="48.57132" lon="2.63431">
        <ele>81.6</ele>
        <time>2021-05-23T10:29:47Z</time>
      </trkpt>
      <trkpt lat="48.57121" lon="2.63431">
        <ele>81.7</ele>
        <time>2021-05-23T10:29:48Z</time>
      </trkpt>
      <trkpt lat="48.57111" lon="2.6343">
        <ele>81.8</ele>
        <time>2021-05-23T10:29:49Z</time>
      </trkpt>
      <trkpt lat="48.571" lon="2.63426">
        <ele>81.8</ele>
        <time>2021-05-23T10:29:50Z</time>
      </trkpt>
      <trkpt lat="48.5709" lon="2.63421">
        <ele>81.9</ele>
        <time>2021-05-23T10:29:51Z</time>
      </trkpt>
      <trkpt lat="48.5708" lon="2.63413">
        <ele>81.9</ele>
        <time>2021-05-23T10:29:52Z</time>
      </trkpt>
      <trkpt lat="48.57071" lon="2.63402">
        <ele>81.7</ele>
        <time>2021-05-23T10:29:53Z</time>
      </trkpt>
      <trkpt lat="48.57062" lon="2.6339">
        <ele>81.5</ele>
        <time>2021-05-23T10:29:54Z</time>
      </trkpt>
      <trkpt lat="48.57055" lon="2.63376">
        <ele>81.3</ele>
        <time>2021-05-23T10:29:55Z</time>
      </trkpt>
      <trkpt lat="48.57049" lon="2.6336">
        <ele>81.2</ele>
        <time>2021-05-23T10:29:56Z</time>
      </trkpt>
      <trkpt lat="48.57044" lon="2.63343">
        <ele>81.1</ele>
        <time>2021-05-23T10:29:57Z</time>
      </trkpt>
      <trkpt lat="48.56972" lon="2.63103">
        <ele>79.8</ele>
        <time>2021-05-23T10:30:10Z</time>
      </trkpt>
      <trkpt lat="48.56901" lon="2.62862">
        <ele>79.3</ele>
        <time>2021-05-23T10:30:24Z</time>
      </trkpt>
      <trkpt lat="48.56837" lon="2.62642">
        <ele>81.9</ele>
        <time>2021-05-23T10:30:38Z</time>
      </trkpt>
      <trkpt lat="48.56831" lon="2.62613">
        <ele>82</ele>
        <time>2021-05-23T10:30:44Z</time>
      </trkpt>
      <trkpt lat="48.56833" lon="2.62612">
        <ele>82</ele>
        <time>2021-05-23T10:31:14Z</time>
      </trkpt>
      <trkpt lat="48.56834" lon="2.62613">
        <ele>82</ele>
        <time>2021-05-23T10:31:47Z</time>
      </trkpt>
      <trkpt lat="48.56834" lon="2.62603">
        <ele>82</ele>
        <time>2021-05-23T10:31:55Z</time>
      </trkpt>
      <trkpt lat="48.56835" lon="2.62596">
        <ele>82</ele>
        <time>2021-05-23T10:31:56Z</time>
      </trkpt>
      <trkpt lat="48.56838" lon="2.62588">
        <ele>82</ele>
        <time>2021-05-23T10:31:57Z</time>
      </trkpt>
      <trkpt lat="48.56843" lon="2.6258">
        <ele>82.1</ele>
        <time>2021-05-23T10:31:58Z</time>
      </trkpt>
      <trkpt lat="48.56849" lon="2.62572">
        <ele>82.3</ele>
        <time>2021-05-23T10:31:59Z</time>
      </trkpt>
      <trkpt lat="48.56926" lon="2.62482">
        <ele>82.8</ele>
        <time>2021-05-23T10:32:07Z</time>
      </trkpt>
      <trkpt lat="48.57083" lon="2.62302">
        <ele>83.7</ele>
        <time>2021-05-23T10:32:20Z</time>
      </trkpt>
      <trkpt lat="48.57214" lon="2.62151">
        <ele>82.8</ele>
        <time>2021-05-23T10:32:32Z</time>
      </trkpt>
      <trkpt lat="48.57238" lon="2.62126">
        <ele>82.2</ele>
        <time>2021-05-23T10:32:38Z</time>
      </trkpt>
      <trkpt lat="48.57236" lon="2.62123">
        <ele>82.1</ele>
        <time>2021-05-23T10:32:50Z</time>
      </trkpt>
      <trkpt lat="48.57237" lon="2.62119">
        <ele>82</ele>
        <time>2021-05-23T10:32:51Z</time>
      </trkpt>
      <trkpt lat="48.57237" lon="2.62114">
        <ele>81.9</ele>
        <time>2021-05-23T10:32:52Z</time>
      </trkpt>
      <trkpt lat="48.57235" lon="2.6211">
        <ele>81.9</ele>
        <time>2021-05-23T10:32:53Z</time>
      </trkpt>
      <trkpt lat="48.57232" lon="2.62105">
        <ele>81.8</ele>
        <time>2021-05-23T10:32:54Z</time>
      </trkpt>
      <trkpt lat="48.57228" lon="2.621">
        <ele>81.8</ele>
        <time>2021-05-23T10:32:55Z</time>
      </trkpt>
      <trkpt lat="48.57222" lon="2.62096">
        <ele>81.9</ele>
        <time>2021-05-23T10:32:56Z</time>
      </trkpt>
      <trkpt lat="48.57134" lon="2.62014">
        <ele>81.7</ele>
        <time>2021-05-23T10:33:08Z</time>
      </trkpt>
      <trkpt lat="48.57054" lon="2.6194">
        <ele>81.7</ele>
        <time>2021-05-23T10:33:17Z</time>
      </trkpt>
      <trkpt lat="48.57046" lon="2.6193">
        <ele>81.7</ele>
        <time>2021-05-23T10:33:18Z</time>
      </trkpt>
      <trkpt lat="48.5699" lon="2.61854">
        <ele>79.6</ele>
        <time>2021-05-23T10:33:25Z</time>
      </trkpt>
      <trkpt lat="48.56983" lon="2.6184">
        <ele>79</ele>
        <time>2021-05-23T10:33:26Z</time>
      </trkpt>
      <trkpt lat="48.56977" lon="2.61826">
        <ele>78.5</ele>
        <time>2021-05-23T10:33:27Z</time>
      </trkpt>
      <trkpt lat="48.56973" lon="2.61811">
        <ele>77.9</ele>
        <time>2021-05-23T10:33:28Z</time>
      </trkpt>
      <trkpt lat="48.56969" lon="2.61796">
        <ele>77.3</ele>
        <time>2021-05-23T10:33:29Z</time>
      </trkpt>
      <trkpt lat="48.56935" lon="2.61635">
        <ele>74.5</ele>
        <time>2021-05-23T10:33:39Z</time>
      </trkpt>
      <trkpt lat="48.56903" lon="2.61428">
        <ele>76.4</ele>
        <time>2021-05-23T10:33:51Z</time>
      </trkpt>
      <trkpt lat="48.56899" lon="2.61358">
        <ele>75.2</ele>
        <time>2021-05-23T10:33:57Z</time>
      </trkpt>
      <trkpt lat="48.56901" lon="2.61352">
        <ele>75.1</ele>
        <time>2021-05-23T10:33:58Z</time>
      </trkpt>
      <trkpt lat="48.56903" lon="2.61346">
        <ele>75</ele>
        <time>2021-05-23T10:33:59Z</time>
      </trkpt>
      <trkpt lat="48.56909" lon="2.61343">
        <ele>75.1</ele>
        <time>2021-05-23T10:34:00Z</time>
      </trkpt>
      <trkpt lat="48.56915" lon="2.61342">
        <ele>75.2</ele>
        <time>2021-05-23T10:34:01Z</time>
      </trkpt>
      <trkpt lat="48.56923" lon="2.61342">
        <ele>75.5</ele>
        <time>2021-05-23T10:34:02Z</time>
      </trkpt>
      <trkpt lat="48.56998" lon="2.61326">
        <ele>78.8</ele>
        <time>2021-05-23T10:34:09Z</time>
      </trkpt>
      <trkpt lat="48.57118" lon="2.61274">
        <ele>78</ele>
        <time>2021-05-23T10:34:19Z</time>
      </trkpt>
      <trkpt lat="48.57128" lon="2.61266">
        <ele>78</ele>
        <time>2021-05-23T10:34:20Z</time>
      </trkpt>
      <trkpt lat="48.57136" lon="2.61257">
        <ele>78</ele>
        <time>2021-05-23T10:34:21Z</time>
      </trkpt>
      <trkpt lat="48.57143" lon="2.61245">
        <ele>78</ele>
        <time>2021-05-23T10:34:22Z</time>
      </trkpt>
      <trkpt lat="48.57148" lon="2.61232">
        <ele>78.1</ele>
        <time>2021-05-23T10:34:23Z</time>
      </trkpt>
      <trkpt lat="48.57151" lon="2.61218">
        <ele>78.2</ele>
        <time>2021-05-23T10:34:24Z</time>
      </trkpt>
      <trkpt lat="48.57153" lon="2.61204">
        <ele>78.4</ele>
        <time>2021-05-23T10:34:25Z</time>
      </trkpt>
      <trkpt lat="48.57154" lon="2.61189">
        <ele>78.5</ele>
        <time>2021-05-23T10:34:26Z</time>
      </trkpt>
      <trkpt lat="48.57154" lon="2.61173">
        <ele>78.6</ele>
        <time>2021-05-23T10:34:27Z</time>
      </trkpt>
      <trkpt lat="48.57153" lon="2.61157">
        <ele>78.7</ele>
        <time>2021-05-23T10:34:28Z</time>
      </trkpt>
      <trkpt lat="48.57141" lon="2.60941">
        <ele>79.8</ele>
        <time>2021-05-23T10:34:41Z</time>
      </trkpt>
      <trkpt lat="48.57141" lon="2.60931">
        <ele>79.9</ele>
        <time>2021-05-23T10:34:42Z</time>
      </trkpt>
      <trkpt lat="48.57142" lon="2.60923">
        <ele>79.9</ele>
        <time>2021-05-23T10:34:43Z</time>
      </trkpt>
      <trkpt lat="48.57144" lon="2.60917">
        <ele>80</ele>
        <time>2021-05-23T10:34:44Z</time>
      </trkpt>
      <trkpt lat="48.57147" lon="2.60911">
        <ele>80</ele>
        <time>2021-05-23T10:34:45Z</time>
      </trkpt>
      <trkpt lat="48.57151" lon="2.60907">
        <ele>80</ele>
        <time>2021-05-23T10:34:46Z</time>
      </trkpt>
      <trkpt lat="48.57155" lon="2.60903">
        <ele>80</ele>
        <time>2021-05-23T10:34:47Z</time>
      </trkpt>
      <trkpt lat="48.5716" lon="2.60902">
        <ele>80</ele>
        <time>2021-05-23T10:34:48Z</time>
      </trkpt>
      <trkpt lat="48.57166" lon="2.609">
        <ele>80</ele>
        <time>2021-05-23T10:34:49Z</time>
      </trkpt>
      <trkpt lat="48.57173" lon="2.60899">
        <ele>80</ele>
        <time>2021-05-23T10:34:50Z</time>
      </trkpt>
      <trkpt lat="48.57181" lon="2.609">
        <ele>79.9</ele>
        <time>2021-05-23T10:34:51Z</time>
      </trkpt>
      <trkpt lat="48.57189" lon="2.60901">
        <ele>79.8</ele>
        <time>2021-05-23T10:34:52Z</time>
      </trkpt>
      <trkpt lat="48.57198" lon="2.60904">
        <ele>79.7</ele>
        <time>2021-05-23T10:34:53Z</time>
      </trkpt>
      <trkpt lat="48.57206" lon="2.60907">
        <ele>79.6</ele>
        <time>2021-05-23T10:34:54Z</time>
      </trkpt>
      <trkpt lat="48.57305" lon="2.60949">
        <ele>78.9</ele>
        <time>2021-05-23T10:35:04Z</time>
      </trkpt>
      <trkpt lat="48.57343" lon="2.60966">
        <ele>78.9</ele>
        <time>2021-05-23T10:35:10Z</time>
      </trkpt>
      <trkpt lat="48.57346" lon="2.6097">
        <ele>78.8</ele>
        <time>2021-05-23T10:35:11Z</time>
      </trkpt>
      <trkpt lat="48.57348" lon="2.60975">
        <ele>78.8</ele>
        <time>2021-05-23T10:35:12Z</time>
      </trkpt>
      <trkpt lat="48.57348" lon="2.6098">
        <ele>78.7</ele>
        <time>2021-05-23T10:35:13Z</time>
      </trkpt>
      <trkpt lat="48.57347" lon="2.60987">
        <ele>78.7</ele>
        <time>2021-05-23T10:35:14Z</time>
      </trkpt>
      <trkpt lat="48.57346" lon="2.60993">
        <ele>78.7</ele>
        <time>2021-05-23T10:35:15Z</time>
      </trkpt>
      <trkpt lat="48.57341" lon="2.61013">
        <ele>78.7</ele>
        <time>2021-05-23T10:35:19Z</time>
      </trkpt>
      <trkpt lat="48.57338" lon="2.61015">
        <ele>78.7</ele>
        <time>2021-05-23T10:35:20Z</time>
      </trkpt>
      <trkpt lat="48.57336" lon="2.61015">
        <ele>78.8</ele>
        <time>2021-05-23T10:35:21Z</time>
      </trkpt>
      <trkpt lat="48.57332" lon="2.61014">
        <ele>78.8</ele>
        <time>2021-05-23T10:35:22Z</time>
      </trkpt>
      <trkpt lat="48.57328" lon="2.61014">
        <ele>78.8</ele>
        <time>2021-05-23T10:35:23Z</time>
      </trkpt>
      <trkpt lat="48.57323" lon="2.61015">
        <ele>78.7</ele>
        <time>2021-05-23T10:35:24Z</time>
      </trkpt>
      <trkpt lat="48.57319" lon="2.61019">
        <ele>78.7</ele>
        <time>2021-05-23T10:35:25Z</time>
      </trkpt>
      <trkpt lat="48.57317" lon="2.61025">
        <ele>78.6</ele>
        <time>2021-05-23T10:35:26Z</time>
      </trkpt>
      <trkpt lat="48.57315" lon="2.61033">
        <ele>78.6</ele>
        <time>2021-05-23T10:35:27Z</time>
      </trkpt>
      <trkpt lat="48.57314" lon="2.61042">
        <ele>78.5</ele>
        <time>2021-05-23T10:35:28Z</time>
      </trkpt>
      <trkpt lat="48.57313" lon="2.61052">
        <ele>78.4</ele>
        <time>2021-05-23T10:35:29Z</time>
      </trkpt>
      <trkpt lat="48.57312" lon="2.61071">
        <ele>78.3</ele>
        <time>2021-05-23T10:35:31Z</time>
      </trkpt>
      <trkpt lat="48.57313" lon="2.6108">
        <ele>78.3</ele>
        <time>2021-05-23T10:35:32Z</time>
      </trkpt>
      <trkpt lat="48.57317" lon="2.61168">
        <ele>78</ele>
        <time>2021-05-23T10:35:44Z</time>
      </trkpt>
      <trkpt lat="48.5732" lon="2.61171">
        <ele>77.9</ele>
        <time>2021-05-23T10:35:45Z</time>
      </trkpt>
      <trkpt lat="48.57324" lon="2.61173">
        <ele>77.9</ele>
        <time>2021-05-23T10:35:46Z</time>
      </trkpt>
      <trkpt lat="48.57367" lon="2.61188">
        <ele>76.9</ele>
        <time>2021-05-23T10:35:58Z</time>
      </trkpt>
      <trkpt lat="48.57368" lon="2.6119">
        <ele>76.9</ele>
        <time>2021-05-23T10:35:59Z</time>
      </trkpt>
      <trkpt lat="48.57367" lon="2.61194">
        <ele>76.9</ele>
        <time>2021-05-23T10:36:00Z</time>
      </trkpt>
      <trkpt lat="48.57367" lon="2.61198">
        <ele>76.8</ele>
        <time>2021-05-23T10:36:01Z</time>
      </trkpt>
      <trkpt lat="48.57366" lon="2.61203">
        <ele>76.8</ele>
        <time>2021-05-23T10:36:02Z</time>
      </trkpt>
      <trkpt lat="48.57362" lon="2.61211">
        <ele>76.8</ele>
        <time>2021-05-23T10:36:05Z</time>
      </trkpt>
      <trkpt lat="48.5736" lon="2.61211">
        <ele>76.8</ele>
        <time>2021-05-23T10:36:06Z</time>
      </trkpt>
      <trkpt lat="48.57359" lon="2.61212">
        <ele>76.8</ele>
        <time>2021-05-23T10:36:07Z</time>
      </trkpt>
    </trkseg>
  </trk>
</gpx>